[[{"header":{"parameterUnit":"m.s-1","parameterCategory":1,"la1":30.6,"la2":29.2853,"lo1":-89.7004,"lo2":-87.6739,"dx":0.0162,"dy":0.0183,"nx":112,"ny":82,"refTime":"2022-11-23T18:00:00:Z","depth":0,"parameterNumber":2,"parameterNumberName":"U-component_of_WINDS"},"data":[0.0,0.0,0.0,0.0,0.0,0.0,0.0,0.0,0.0,0.0,0.0,0.0,0.0,0.0,0.0,0.0,0.0,0.0,0.0,0.0,0.0,0.0,0.0,0.0,0.0,0.0,0.0,0.0,0.0,0.0,0.0,0.0,0.0,0.0,0.0,0.0,0.0,0.0,0.0,0.0,0.0,0.0,0.0,0.0,0.0,0.0,0.0,0.0,0.0,0.0,0.0,0.0,0.0,0.0,0.0,0.0,0.0,0.0,0.0,0.0,0.0,0.0,0.0,0.0,0.0,0.0,0.0,0.0,0.0,0.0,0.0,0.0,0.0,0.0,0.0,0.0,0.0,0.0,0.0,0.0,0.0,0.0,0.0,0.0,0.0,0.0,0.0,0.0,0.0,0.0,0.0,-2.3097,-1.3922,-0.7955,-0.9044,-1.0463,-1.5511,-2.5111,0.0,0.0,0.0,0.0,0.0,0.0,0.0,0.0,0.0,0.0,0.0,0.0,0.0,0.0,0.0,0.0,0.0,0.0,0.0,0.0,0.0,0.0,0.0,0.0,0.0,0.0,0.0,0.0,0.0,0.0,0.0,0.0,0.0,0.0,0.0,0.0,0.0,0.0,0.0,0.0,0.0,0.0,0.0,0.0,0.0,0.0,0.0,0.0,0.0,0.0,0.0,0.0,0.0,0.0,0.0,0.0,0.0,0.0,0.0,0.0,0.0,0.0,0.0,0.0,0.0,0.0,0.0,0.0,0.0,0.0,0.0,0.0,0.0,0.0,0.0,0.0,0.0,0.0,0.0,0.0,0.0,0.0,0.0,0.0,0.0,0.0,0.0,0.0,0.0,0.0,0.0,0.0,0.0,0.0,0.0,0.0,0.0,0.0,0.0,0.0,0.0,0.0,0.0,0.0,-1.9326,-1.273,-1.2146,-1.2866,-1.4422,-1.4659,-1.8535,-2.7577,0.0,0.0,0.0,0.0,0.0,0.0,0.0,0.0,0.0,0.0,0.0,0.0,0.0,0.0,0.0,0.0,0.0,0.0,0.0,0.0,0.0,0.0,0.0,0.0,0.0,0.0,0.0,0.0,0.0,0.0,0.0,0.0,0.0,0.0,0.0,0.0,0.0,0.0,0.0,0.0,0.0,0.0,0.0,0.0,0.0,0.0,0.0,0.0,0.0,0.0,0.0,0.0,0.0,0.0,0.0,0.0,0.0,0.0,0.0,0.0,0.0,0.0,0.0,0.0,0.0,0.0,0.0,0.0,0.0,0.0,0.0,0.0,0.0,0.0,0.0,0.0,0.0,0.0,0.0,0.0,0.0,0.0,0.0,0.0,0.0,0.0,0.0,0.0,0.0,0.0,0.0,0.0,0.0,0.0,0.0,0.0,0.0,0.0,0.0,0.0,0.0,0.0,0.0,-3.0201,-2.5286,-1.5138,-1.6654,-1.8395,-1.8731,-1.9298,-2.2735,-3.0038,-2.9562,0.0,0.0,0.0,0.0,0.0,0.0,0.0,0.0,0.0,0.0,0.0,0.0,0.0,0.0,0.0,0.0,0.0,0.0,0.0,0.0,0.0,0.0,0.0,0.0,0.0,0.0,0.0,0.0,0.0,0.0,0.0,0.0,0.0,0.0,0.0,0.0,0.0,0.0,0.0,0.0,0.0,0.0,0.0,0.0,0.0,0.0,0.0,0.0,0.0,0.0,0.0,0.0,0.0,0.0,0.0,0.0,0.0,0.0,0.0,0.0,0.0,0.0,0.0,0.0,0.0,0.0,0.0,0.0,0.0,0.0,0.0,0.0,0.0,0.0,0.0,0.0,0.0,0.0,0.0,0.0,0.0,0.0,0.0,0.0,0.0,0.0,0.0,0.0,0.0,0.0,0.0,0.0,0.0,0.0,0.0,0.0,0.0,0.0,0.0,0.0,0.0,0.0,-3.1414,-2.8716,-2.0349,-2.2066,-2.3569,-2.2814,-2.3558,-2.6517,-3.2444,-3.28,0.0,0.0,0.0,0.0,0.0,0.0,0.0,0.0,0.0,0.0,0.0,0.0,0.0,0.0,0.0,0.0,0.0,0.0,0.0,0.0,0.0,0.0,0.0,0.0,0.0,0.0,0.0,0.0,0.0,0.0,0.0,0.0,0.0,0.0,0.0,0.0,0.0,0.0,0.0,0.0,0.0,0.0,0.0,0.0,0.0,0.0,0.0,0.0,0.0,0.0,0.0,0.0,0.0,0.0,0.0,0.0,0.0,0.0,0.0,0.0,0.0,0.0,0.0,0.0,0.0,0.0,0.0,0.0,0.0,0.0,0.0,0.0,0.0,0.0,0.0,0.0,0.0,0.0,0.0,0.0,0.0,0.0,0.0,0.0,0.0,0.0,0.0,0.0,0.0,0.0,0.0,0.0,0.0,0.0,0.0,0.0,0.0,0.0,0.0,0.0,0.0,0.0,-2.6725,-2.3651,-2.3793,-2.6087,-2.7482,-2.7179,-2.6983,-2.9278,-3.4932,-3.5448,0.0,0.0,0.0,0.0,0.0,0.0,0.0,0.0,0.0,0.0,0.0,0.0,0.0,0.0,0.0,0.0,0.0,0.0,0.0,0.0,0.0,0.0,0.0,0.0,0.0,0.0,0.0,0.0,0.0,0.0,0.0,0.0,0.0,0.0,0.0,0.0,0.0,0.0,0.0,0.0,0.0,0.0,0.0,0.0,0.0,0.0,0.0,0.0,0.0,0.0,0.0,0.0,0.0,0.0,0.0,0.0,0.0,0.0,0.0,0.0,0.0,0.0,0.0,0.0,0.0,0.0,0.0,0.0,0.0,0.0,0.0,0.0,0.0,0.0,0.0,0.0,0.0,0.0,0.0,0.0,0.0,0.0,0.0,0.0,0.0,0.0,0.0,0.0,0.0,0.0,0.0,0.0,0.0,0.0,0.0,0.0,0.0,0.0,0.0,0.0,0.0,0.0,-3.0846,-2.8678,0.0,-2.9403,-3.0012,-2.9931,-2.9816,-3.1728,-3.6487,0.0,0.0,0.0,0.0,0.0,0.0,0.0,0.0,0.0,0.0,0.0,0.0,0.0,0.0,0.0,0.0,0.0,0.0,0.0,0.0,0.0,0.0,0.0,0.0,0.0,0.0,0.0,0.0,0.0,0.0,0.0,0.0,0.0,0.0,0.0,0.0,0.0,0.0,0.0,0.0,0.0,0.0,0.0,0.0,0.0,0.0,0.0,0.0,0.0,0.0,0.0,0.0,0.0,0.0,0.0,0.0,0.0,0.0,0.0,0.0,0.0,0.0,0.0,0.0,0.0,0.0,0.0,0.0,0.0,0.0,0.0,0.0,0.0,0.0,0.0,0.0,0.0,0.0,0.0,0.0,0.0,0.0,0.0,0.0,0.0,0.0,0.0,0.0,0.0,0.0,0.0,0.0,0.0,0.0,0.0,0.0,0.0,0.0,0.0,0.0,0.0,0.0,-3.5535,-3.3741,-3.2236,0.0,-3.22,-3.262,-3.2479,-3.2437,-3.3997,-3.7899,0.0,0.0,0.0,0.0,0.0,0.0,0.0,0.0,0.0,0.0,0.0,0.0,0.0,0.0,0.0,0.0,0.0,0.0,0.0,0.0,0.0,0.0,0.0,0.0,0.0,0.0,0.0,0.0,0.0,0.0,0.0,0.0,0.0,0.0,0.0,0.0,0.0,0.0,0.0,0.0,0.0,0.0,0.0,0.0,0.0,0.0,0.0,0.0,0.0,0.0,0.0,0.0,0.0,0.0,0.0,0.0,0.0,0.0,0.0,0.0,0.0,0.0,0.0,0.0,0.0,0.0,0.0,0.0,0.0,0.0,0.0,0.0,0.0,0.0,0.0,0.0,0.0,0.0,0.0,0.0,0.0,0.0,0.0,0.0,0.0,0.0,0.0,0.0,0.0,0.0,0.0,0.0,0.0,0.0,0.0,0.0,0.0,0.0,0.0,0.0,0.0,0.0,-3.5778,-3.3859,-3.2544,-3.3112,-3.4496,-3.5248,-3.4735,-3.4672,-3.6027,0.0,0.0,0.0,0.0,0.0,0.0,0.0,0.0,0.0,0.0,0.0,0.0,0.0,0.0,0.0,0.0,0.0,0.0,0.0,0.0,0.0,0.0,0.0,0.0,0.0,0.0,0.0,0.0,0.0,0.0,0.0,0.0,0.0,0.0,0.0,0.0,0.0,0.0,0.0,0.0,0.0,0.0,0.0,0.0,0.0,0.0,0.0,0.0,0.0,0.0,0.0,0.0,0.0,0.0,0.0,0.0,0.0,0.0,0.0,0.0,0.0,0.0,0.0,0.0,0.0,0.0,0.0,0.0,0.0,0.0,0.0,0.0,0.0,0.0,0.0,0.0,0.0,0.0,0.0,0.0,0.0,0.0,0.0,0.0,0.0,0.0,0.0,0.0,0.0,0.0,0.0,0.0,0.0,0.0,0.0,0.0,0.0,0.0,0.0,0.0,0.0,0.0,0.0,-3.6702,-3.4292,-3.3269,-3.5256,-3.5172,-3.5241,-3.5816,-3.5199,-3.6061,-3.9154,0.0,0.0,0.0,0.0,0.0,0.0,0.0,0.0,0.0,0.0,0.0,0.0,0.0,0.0,0.0,0.0,0.0,0.0,0.0,0.0,0.0,0.0,0.0,0.0,0.0,0.0,0.0,0.0,0.0,0.0,0.0,0.0,0.0,0.0,0.0,0.0,0.0,0.0,0.0,0.0,0.0,0.0,0.0,0.0,0.0,0.0,0.0,0.0,0.0,0.0,0.0,0.0,0.0,0.0,0.0,0.0,0.0,0.0,0.0,0.0,0.0,0.0,0.0,0.0,0.0,0.0,0.0,0.0,0.0,0.0,0.0,0.0,0.0,0.0,0.0,0.0,0.0,0.0,0.0,0.0,0.0,0.0,0.0,0.0,0.0,0.0,0.0,0.0,0.0,0.0,0.0,0.0,0.0,0.0,0.0,0.0,0.0,0.0,0.0,0.0,0.0,0.0,-3.7342,-3.56,-3.4979,-3.6752,-3.6831,-3.6839,-3.7284,-3.6545,-3.6848,-3.8918,0.0,0.0,0.0,0.0,0.0,0.0,0.0,0.0,0.0,0.0,0.0,0.0,0.0,0.0,0.0,0.0,0.0,0.0,0.0,0.0,0.0,0.0,0.0,0.0,0.0,0.0,0.0,0.0,0.0,0.0,0.0,0.0,0.0,0.0,0.0,0.0,0.0,0.0,0.0,0.0,0.0,0.0,0.0,0.0,0.0,0.0,0.0,0.0,0.0,0.0,0.0,0.0,0.0,0.0,0.0,0.0,0.0,0.0,0.0,0.0,0.0,0.0,0.0,0.0,0.0,0.0,0.0,0.0,0.0,0.0,0.0,0.0,0.0,0.0,0.0,0.0,0.0,0.0,0.0,0.0,0.0,0.0,0.0,0.0,0.0,0.0,0.0,0.0,0.0,0.0,0.0,0.0,0.0,0.0,0.0,0.0,0.0,0.0,0.0,0.0,0.0,0.0,-3.8105,-3.7544,-3.7368,-3.8135,-3.8978,-3.9241,-3.8842,-3.8236,-3.8073,-3.8568,0.0,0.0,0.0,0.0,0.0,0.0,0.0,0.0,0.0,0.0,0.0,0.0,0.0,0.0,0.0,0.0,0.0,0.0,0.0,0.0,0.0,0.0,0.0,0.0,0.0,0.0,0.0,0.0,0.0,0.0,0.0,0.0,0.0,0.0,0.0,0.0,0.0,0.0,0.0,0.0,0.0,0.0,0.0,0.0,0.0,0.0,0.0,0.0,0.0,0.0,0.0,0.0,0.0,0.0,0.0,0.0,0.0,0.0,0.0,0.0,-0.1598,0.0,0.0,0.0,0.0,0.0,0.0,0.0,0.0,0.0,0.0,0.0,0.0,0.0,0.0,0.0,0.0,0.0,0.0,0.0,0.0,0.0,0.0,0.0,0.0,0.0,0.0,0.0,0.0,0.0,0.0,0.0,0.0,0.0,0.0,0.0,0.0,0.0,0.0,0.0,0.0,0.0,-4.0598,-3.8708,-3.7979,-4.0366,-3.9184,-3.8723,-3.989,-3.8213,-3.7512,-3.8501,-3.8532,0.0,0.0,0.0,0.0,0.0,0.0,0.0,0.0,0.0,0.0,0.0,0.0,0.0,0.0,0.0,0.0,0.0,0.0,0.0,0.0,0.0,0.0,0.0,0.0,0.0,0.0,0.0,0.0,0.0,0.0,0.0,0.0,0.0,0.0,0.0,0.0,0.0,0.0,0.0,0.0,0.0,0.0,0.0,0.0,0.0,0.0,0.0,0.0,0.0,0.0,0.0,0.0,0.0,0.0,0.0,0.0,0.0,0.0,0.0,0.0,-0.07,0.0,0.0,0.0,0.0,0.0,0.0,0.0,0.0,0.0,0.0,0.0,0.0,0.0,0.0,0.0,0.0,0.0,0.0,0.0,0.0,0.0,0.0,0.0,0.0,0.0,0.0,0.0,0.0,0.0,0.0,0.0,0.0,0.0,0.0,0.0,0.0,0.0,0.0,0.0,0.0,-4.1336,-3.9599,-3.8747,-4.0182,-4.0117,-3.9872,-3.9776,-3.8861,-3.8266,-3.8049,-3.8443,0.0,0.0,0.0,0.0,0.0,0.0,0.0,0.0,0.0,0.0,0.0,0.0,0.0,0.0,0.0,0.0,0.0,0.0,0.0,0.0,0.0,0.0,0.0,0.0,0.0,0.0,0.0,0.0,0.0,0.0,0.0,0.0,0.0,0.0,0.0,0.0,0.0,0.0,0.0,0.0,0.0,0.0,0.0,0.0,0.0,0.0,0.0,0.0,0.0,0.0,0.0,0.0,0.0,1.6091,1.7093,1.7206,1.6541,2.354,3.5496,2.2205,2.1987,2.8788,0.0,0.0,0.0,0.0,0.0,0.0,0.0,0.0,0.0,0.0,0.0,0.0,0.0,0.0,0.0,0.0,0.0,0.0,0.0,0.0,0.0,0.0,0.0,0.0,0.0,0.3124,0.4315,0.0,0.0,0.0,0.0,0.0,0.0,0.0,0.0,0.0,0.0,0.0,0.0,-4.1335,-4.0296,-3.9506,-3.9691,-4.0781,-4.0815,-3.9403,-3.9337,-3.8932,-3.7607,-3.8364,-3.86,0.0,0.0,0.0,0.0,0.0,0.0,0.0,0.0,0.0,0.0,0.0,0.0,0.0,0.0,0.0,0.0,0.0,0.0,0.0,0.0,0.0,0.0,0.0,0.0,0.0,0.0,0.0,0.0,0.0,0.0,0.0,0.0,0.0478,0.1087,0.0,0.0,0.0,0.0,0.0,0.0,0.0,0.0,0.0,0.0,0.0,0.0,0.0,0.0,0.9559,2.3057,2.9928,3.0216,4.3458,4.9846,4.9957,4.9873,5.102,5.2991,5.0986,0.0,3.0566,2.6108,0.0,0.0,0.0,0.0,0.0,0.0,0.0,0.0,0.0,0.0,0.0,0.0,0.0,0.0,0.0,0.0,0.0,0.0,0.0,0.0,0.0,0.0,2.2381,2.0264,1.4375,0.8127,0.0,-0.9624,-2.201,-2.6086,-2.8637,0.0,0.0,0.0,0.0,0.0,0.0,0.0,-4.1377,-4.0283,-3.9841,-4.0727,-3.958,-3.8919,-3.9239,-3.8246,-3.758,-3.7277,-3.7376,-3.7805,-3.8569,-3.8238,0.0,0.0,0.0,0.0,0.0,0.0,0.0,0.0,0.0,0.0,0.0,0.0,0.0,0.0,0.0,0.0,0.0,0.0,0.0,0.0,0.0,0.0,0.0,0.0,0.0,0.0,0.0,0.0,0.0,-1.1383,-0.7382,-0.8187,-1.2466,-1.83,0.0,0.0,0.0,0.0,0.0,0.0,0.0,0.0,0.0,2.2025,2.2655,2.6854,3.5534,4.2379,4.5791,4.589,5.3184,5.6656,5.6599,5.6788,5.7152,5.7628,5.7357,5.2975,4.5233,3.51,2.1887,0.7086,0.0,0.0,0.0,0.0,-0.6679,-0.3866,1.3224,1.9383,0.0,1.1238,0.0,0.0,0.0,0.0,0.0,0.0,0.0,0.0,0.0,0.0,0.0,1.7331,1.2454,0.6166,0.1661,-0.7842,-1.6542,0.0,-2.6389,-3.188,-3.5611,0.0,0.0,0.0,0.0,0.0,-4.0886,-3.9855,-3.9021,-3.898,-3.8291,-3.7692,-3.7724,-3.7867,-3.7911,-3.7866,-3.8111,-3.8105,-3.8013,-3.7845,-3.7951,0.0,0.0,0.0,0.0,0.0,0.0,0.0,0.0,0.0,0.0,0.0,0.0,0.0,0.0,0.0,0.0,0.0,0.0,0.0,0.0,0.0,0.0,0.0,0.0,0.0,0.0,0.0,0.0,-1.0301,-0.6765,-1.1893,-0.7592,-0.962,0.0,0.0,0.0,0.0,0.0,0.0,1.5383,1.5303,2.2367,3.8171,3.8784,4.4479,5.6244,5.6384,5.6384,5.6379,5.7099,5.7409,5.7308,5.7592,5.809,5.8693,5.8314,5.8124,5.707,4.3408,3.5073,2.966,1.6853,0.9189,0.582,0.9897,1.1674,1.438,3.0685,3.6592,3.6287,3.2434,0.0,2.2226,1.5377,0.0,0.0,0.0,0.0,0.3194,0.9427,0.9274,0.8294,1.0942,0.6937,0.1039,-0.3947,-1.0388,-1.5682,0.0,-2.3743,-3.0502,-3.4342,0.0,0.0,0.0,0.0,-3.902,-3.9544,-3.8969,-3.813,-3.7416,-3.7151,-3.6854,-3.6624,-3.7638,-3.8276,-3.8291,-3.8726,-3.8486,-3.7501,-3.7515,-3.7142,-3.6338,0.0,0.0,0.0,0.0,0.0,0.0,0.0,0.0,0.0,0.0,0.0,0.0,0.0,0.0,0.0,0.0,0.0,0.0,0.0,0.0,0.0,0.0,0.0,0.0,0.0,0.0,0.0,0.0,0.0,0.3217,1.5395,0.0,0.0,0.0,0.0,0.831,0.7929,1.4773,3.1054,3.0586,3.7614,5.4688,5.539,5.6256,5.7862,5.7954,5.8066,5.8173,5.8149,5.8235,5.8431,5.8496,5.8624,5.879,5.8957,5.902,5.8892,5.7167,4.6386,3.0916,3.0045,1.9742,0.7432,2.4229,3.0395,3.2889,5.0392,5.6254,5.2983,3.4503,1.7456,0.716,2.2978,1.5939,0.0,0.0,1.3944,1.3078,2.3015,1.8962,1.1583,0.8779,0.0805,-0.7155,-1.0144,-1.9106,-2.4854,0.0,-2.0982,-2.4907,-2.9393,0.0,-3.4501,-3.6448,-3.7992,-3.8423,-3.7207,-3.7298,-3.7295,-3.71,-3.6551,-3.6256,-3.6701,-3.7382,-3.789,-3.8164,-3.828,-3.8132,-3.7699,-3.6781,-3.6307,-3.6625,-3.6296,0.0,0.0,0.0,0.0,0.0,0.0,0.0,0.0,0.0,0.0,0.0,0.0,0.0,0.0,0.0,0.0,0.0,0.0,0.0,0.0,0.0,0.0,0.0,0.0,0.0,0.0,0.0,0.0,0.5583,1.8048,0.0,0.0,1.702,2.3552,2.4315,3.3437,4.1765,4.8209,4.8192,5.1147,5.7913,5.8336,5.8899,5.9865,5.9971,5.9948,5.9802,6.0416,6.0692,6.0612,6.0287,6.0508,6.1133,6.0252,5.9905,5.9919,5.9608,5.5341,4.9021,4.9008,4.5279,4.0633,4.6825,4.908,4.9851,5.583,5.769,5.6223,4.903,4.2264,3.802,4.3635,3.9188,3.2051,3.1392,2.8408,2.4359,1.9588,1.4737,0.9048,0.0945,-0.5594,-1.1006,-1.4715,-1.9986,-2.3532,-2.2188,-2.6211,-3.0049,-3.0408,-3.1187,-3.2882,-3.5944,-3.6737,-3.6822,-3.6274,-3.6399,-3.6258,-3.5807,-3.5457,-3.5431,-3.6133,-3.6838,-3.7494,-3.8178,-3.7905,-3.7607,-3.7468,-3.5459,-3.4478,-3.46,-3.3646,-3.4286,0.0,0.0,0.0,0.0,0.0,0.0,0.0,0.0,0.0,0.0,0.0,0.0,0.0,0.0,0.0,0.0,0.0,0.0,0.0,0.0,0.0,0.0,0.0,0.0,0.0,0.0,2.1075,0.6906,2.3378,3.0475,1.6638,2.9653,3.9312,4.0201,5.0172,5.6705,5.778,5.7856,5.846,5.9863,6.0118,6.0666,6.1636,6.1745,6.1678,6.1499,6.2185,6.2459,6.2373,6.2084,6.233,6.2905,6.1703,6.1221,6.125,6.0953,6.0467,5.989,5.956,5.9599,5.9815,5.9588,5.9448,5.9278,5.8559,5.8209,5.7918,5.7069,5.6436,5.5913,5.479,5.1526,4.6925,4.0641,3.4465,2.714,1.6348,0.9472,0.3404,-0.471,-1.0294,-1.4755,-1.8394,-2.1149,-2.3461,-2.4912,-2.8447,-3.0902,-3.0241,-3.0809,-3.2732,-3.6803,-3.6493,-3.6252,-3.7562,-3.654,-3.556,-3.5261,-3.5149,-3.5353,-3.6063,-3.7445,-3.8091,-3.7822,-3.8114,-3.7826,-3.6708,-3.5381,-3.4452,-3.4071,-3.3234,-3.3857,-3.6016,0.0,0.0,0.0,0.0,0.0,0.0,0.0,0.0,0.0,0.0,0.0,0.0,0.0,0.0,0.0,0.0,0.0,0.0,0.0,0.0,0.0,0.0,0.0,0.6401,1.7878,2.2731,0.9346,3.3241,4.5507,3.1918,4.4573,5.4099,5.5239,5.5858,5.7128,5.9215,5.8842,5.9514,6.1514,6.1783,6.2314,6.3173,6.32,6.3207,6.3284,6.3358,6.343,6.3585,6.3748,6.3867,6.3901,6.3232,6.2974,6.2966,6.2128,6.1785,6.1676,6.071,6.0837,6.1518,6.1233,6.1041,6.0759,5.9671,5.9344,5.9102,5.7182,5.6543,5.6241,5.472,5.0956,4.605,4.0788,3.1157,2.101,1.4476,0.4514,-0.4622,-0.7748,-1.3196,-1.8599,-2.1277,-2.3522,-2.5464,-2.6965,-2.669,-2.6839,-2.8502,-3.0847,-3.3952,-3.8598,-3.7039,0.0,-4.0549,-3.7613,-3.5181,-3.5461,-3.5795,-3.622,-3.6629,-3.9163,-3.9744,-3.7299,-3.8993,-3.8642,-3.5578,-3.6329,-3.62,-3.5106,-3.5375,-3.5224,-3.4624,0.0,0.0,0.0,0.0,0.0,0.0,0.0,0.0,0.0,0.0,0.0,0.0,0.0,0.0,0.0,0.0,0.0,0.0,0.0,0.0,0.0,0.0,2.3266,1.9833,3.2673,4.1261,3.8048,4.5664,4.9814,4.6329,5.1131,5.481,5.5533,5.7212,5.8782,6.0173,6.0482,6.1481,6.3321,6.3589,6.4154,6.5114,6.5182,6.5182,6.5158,6.523,6.5341,6.5429,6.4908,6.4753,6.4876,6.4091,6.3806,6.3852,6.3668,6.3551,6.336,6.1896,6.181,6.2463,6.2109,6.1847,6.1603,6.1074,6.0625,6.0052,5.8357,5.7344,5.6105,5.2515,4.6974,4.0534,3.3914,2.4556,1.5063,0.7687,-0.0141,-0.7263,-1.1984,-1.6568,-2.0491,-2.3073,-2.4825,-2.6162,-2.7367,-2.7602,-2.7908,-2.8608,-3.0504,-3.2574,-3.4136,-3.4767,0.0,-3.6598,-3.6136,-3.6473,-3.8407,-3.9163,-3.9686,-3.9696,-4.0236,-3.9403,-3.6898,-3.6466,-3.599,-3.5002,-3.4183,-3.333,-3.242,-3.4494,-3.5467,0.0,0.0,0.0,0.0,0.0,0.0,0.0,0.0,0.0,0.0,0.0,0.0,0.0,0.0,0.0,0.0,0.0,0.0,0.0,0.0,0.0,0.0,2.4336,3.4101,3.4611,4.2551,4.8798,5.0011,5.1211,5.2136,5.2696,5.4581,5.597,5.6422,5.8045,5.9703,6.1186,6.1676,6.2742,6.4573,6.4879,6.5269,6.5832,6.5947,6.6013,6.6036,6.6013,6.6102,6.6283,6.5777,6.5658,0.0,6.4987,6.471,6.4753,6.4432,6.4252,0.0,0.0,0.0,0.0,0.0,6.2353,6.1917,6.1578,6.0921,5.9969,5.8271,5.6634,5.4713,5.1498,4.4987,3.7258,3.0437,2.0863,1.1,0.2992,-0.4435,-1.0757,-1.4871,-1.9032,-2.2671,-2.4519,-2.5864,-2.7047,-2.7786,-2.8371,0.0,-2.8799,-3.0531,-3.2564,-3.4856,-3.5115,-3.5814,-3.7713,-3.6839,-3.6572,-3.7912,-3.864,-3.894,-3.8697,-3.9325,0.0,0.0,0.0,-3.5602,-3.5034,-3.4188,0.0,0.0,0.0,0.0,0.0,0.0,0.0,0.0,-3.9392,-4.0124,0.0,0.0,0.0,0.0,0.0,0.0,0.0,0.0,0.0,0.0,0.0,0.0,0.0,0.0,0.0,0.0,3.6457,4.7182,4.7928,4.8438,4.9417,5.1034,5.2128,5.3068,5.3711,5.5768,5.7167,5.7513,5.867,6.0171,6.2132,0.0,0.0,0.0,0.0,6.5801,6.5826,6.5947,6.6058,6.6205,6.608,6.6144,6.6396,6.6336,6.6431,6.6552,6.5862,6.5624,6.5681,6.4902,6.4555,6.4481,6.4369,6.4185,6.3919,6.3488,6.2807,6.2015,6.1759,0.0,0.0,5.7718,5.5365,5.275,5.0514,4.3432,3.4912,2.8268,1.8342,0.7888,-0.0,-0.8029,-1.4694,-1.6925,-2.1003,-2.4693,-2.544,-2.6631,-2.7617,-2.8198,-2.876,-2.9305,-2.9005,-3.0565,-3.322,-3.7553,-3.6326,-3.6442,-4.0516,-3.8254,-3.6127,-3.5989,0.0,0.0,-3.5864,-3.7681,-3.7632,-3.4869,-3.5865,-3.5994,-3.4901,-3.4884,-3.4933,-3.5172,-3.5718,-3.5577,-3.4673,-3.6023,-3.7,-3.7876,-3.9521,-4.0164,0.0,0.0,0.0,0.0,0.0,0.0,0.0,0.0,0.0,0.0,0.0,0.0,0.0,0.0,0.0,2.4144,3.7594,4.7875,4.9103,5.0374,5.1389,5.2094,5.2431,5.32,5.4604,5.5926,5.699,5.7771,5.9656,6.1283,6.2471,6.3503,0.0,6.5597,6.575,6.5876,6.6036,6.5994,6.6058,6.6205,0.0,0.0,6.6322,6.6426,6.6504,6.6588,6.6556,6.6541,6.6562,6.6445,6.6371,6.6202,6.5333,6.4773,6.4501,6.4696,6.4095,6.3109,6.3077,6.199,6.0331,5.9067,5.6419,5.2499,4.5846,3.8398,0.0,2.1444,1.1597,0.2576,-0.2907,-1.0185,-1.6659,-1.9056,-2.231,-2.5017,-2.6055,-2.6263,-2.6757,-2.8299,-2.8766,-2.9098,-2.9962,-3.0617,-3.1345,-3.1879,-3.3131,-3.4347,-3.5176,-3.4893,-3.5769,-3.8365,-3.846,-3.8308,-3.8191,-3.8505,-3.7407,-3.4175,-3.4003,-3.3513,-3.2689,-3.2667,-3.2467,-3.2266,-3.2829,-3.3342,-3.367,-3.4538,-3.5777,-3.7473,-3.8377,-3.8972,0.0,0.0,0.0,0.0,0.0,0.0,0.0,0.0,0.0,0.0,0.0,0.1901,0.9529,0.0,2.6136,3.4295,4.2965,4.9025,4.9924,5.1472,5.259,5.2643,5.3528,5.4547,5.5694,5.693,5.7909,5.8541,6.0172,6.1584,6.2639,6.38,6.4852,6.5763,6.5924,6.6058,6.6144,6.6144,6.6184,6.6205,6.6123,6.6146,6.6245,6.6353,6.6465,6.6606,6.6717,6.6774,6.6797,6.6845,6.682,6.6713,6.5945,6.547,6.518,6.505,6.4332,6.3416,6.3624,6.2087,5.9749,5.8081,5.4902,5.0186,4.2185,3.4859,2.7151,1.7151,0.8697,0.1018,-0.5611,-1.1387,-1.6294,-1.9624,-2.262,-2.4754,-2.594,-2.6287,-2.6908,-2.8372,-2.8963,-2.9329,-2.9761,-3.0821,-3.1454,-3.1513,-3.2376,-3.3329,-3.3601,-3.3916,-3.4642,-3.617,-3.5889,-3.5742,-3.5752,-3.5763,-3.5062,-3.3569,-3.3331,-3.2863,-3.2038,-3.201,-3.2069,-3.2412,-3.2794,-3.3418,-3.4423,-3.4797,-3.5777,-3.7385,-3.7736,-3.8347,0.0,0.0,0.0,0.0,0.0,0.0,0.0,0.0,-0.8561,0.4044,0.7216,1.1263,2.3079,2.708,3.2436,4.4198,4.8287,5.0146,5.0552,5.2335,5.3567,5.3387,5.4727,5.593,5.6692,5.7888,5.8859,5.944,6.0664,6.1894,6.2987,6.4139,6.5109,6.5905,6.6102,6.6185,6.6184,6.6245,6.6245,6.6205,6.6123,6.6146,6.6225,6.6281,6.6431,6.6624,6.6687,6.6757,6.6794,6.68,6.6798,6.6753,6.626,6.5952,6.5693,6.5003,6.4214,6.3505,6.3561,6.1697,5.8834,5.6385,5.2681,4.7532,3.8918,3.1803,2.456,1.4035,0.6817,0.0443,-0.7647,-1.2013,-1.5463,-1.9883,-2.2624,-2.4461,-2.559,-2.6078,-2.6794,-2.8114,-2.8955,-2.9496,-2.9472,-3.0983,-3.2167,-3.2034,-3.2214,-3.2512,-3.3055,-3.3175,-3.2981,-3.295,-3.2542,-3.2438,-3.2657,-3.2604,-3.2815,-3.3255,-3.3237,-3.3003,-3.2311,-3.2348,-3.2718,-3.3428,-3.3418,-3.4047,-3.5418,-3.5418,-3.6199,-3.7758,-3.7758,-3.8305,-3.8727,-2.9442,-1.6401,-0.6169,-0.3526,0.2345,0.0,0.0,1.7288,3.0596,3.3837,3.5446,3.9308,4.1449,4.3663,4.6664,4.9061,5.068,5.0999,5.3149,5.4789,5.5113,5.5499,5.6165,5.7188,5.7877,5.8781,6.0012,6.1614,6.2917,6.3828,6.5044,6.5827,6.5971,6.6123,6.6165,6.6102,6.6184,6.6205,6.6205,6.6123,6.6166,6.6299,6.6301,6.6431,6.6689,6.6757,6.6789,6.6805,6.6795,6.6804,6.6739,6.6154,6.5854,6.5704,6.4833,6.4193,6.3593,6.272,6.0956,5.8561,5.5345,5.1436,4.6003,3.5767,2.8902,2.2229,1.0838,0.4475,-0.0751,-0.8051,-1.2162,-1.5799,-2.0866,-2.3349,-2.4716,-2.5639,-2.5345,-2.5339,-2.6794,-2.7772,-2.8512,-2.9682,-3.1269,-3.1944,-3.0321,-3.0669,-3.1169,-3.1305,-3.0923,-3.1225,-3.2143,-3.1617,-3.147,-3.2639,-3.2356,-3.2539,-3.3472,-3.3586,-3.3481,-3.3272,-3.3611,-3.3739,-3.3428,-3.3418,-3.4027,-3.5376,-3.5376,-3.6582,-3.8875,-3.8875,-3.9002,-1.1487,-0.8783,-0.6633,0.5765,0.9136,1.22,2.2721,2.1446,2.1908,3.5585,3.9075,4.03,4.2224,4.4315,4.6189,0.0,4.9543,5.1316,5.2305,5.4096,5.5568,5.6312,5.6923,5.7454,5.7859,5.8282,5.8814,5.9626,6.1382,6.2674,6.3274,6.4864,6.5861,6.6058,6.6225,6.6301,6.6264,6.6303,6.6245,6.6144,6.6144,6.6187,6.6241,6.6281,6.645,6.67,6.6776,6.68,6.6804,6.6804,6.6792,6.6736,6.6084,6.565,6.5314,6.4588,6.4113,6.3593,6.2311,6.0629,5.8255,5.331,4.8972,4.3633,3.2084,2.5597,1.9895,0.8223,0.2882,-0.1217,-0.9221,-1.2338,-1.4646,-1.9618,-2.1619,-2.267,-2.3561,-2.387,-2.4468,-2.6232,-2.7063,-2.7719,-2.9059,-3.0676,-3.1566,-3.0214,-3.0191,-3.0355,-3.0355,-3.0012,-3.0018,-3.0674,-3.1461,-3.2071,-3.2648,-3.2932,-3.3596,-3.4912,-3.4815,-3.4658,-3.456,-3.4482,-3.4625,-3.4823,-3.5187,-3.5814,-3.6823,-3.7199,-3.8178,-3.9635,-3.9635,-4.0,-0.0436,0.1877,0.1288,1.3546,1.9407,2.2269,2.2772,2.3157,2.6323,3.6796,3.9877,4.1133,4.2894,4.4966,4.6887,4.8092,4.9907,5.1749,5.3249,5.4783,5.6129,5.7117,5.8011,5.8529,5.8492,5.8638,5.8955,5.9438,6.1219,6.252,6.3062,6.4807,6.5885,6.6102,6.6283,6.6375,6.634,6.6358,6.6303,6.6123,6.6205,6.6245,6.6221,6.6341,6.6513,6.6678,6.6754,6.6806,6.6792,6.6805,6.6756,6.6604,6.603,6.5471,6.49,6.4388,6.3785,6.3058,6.1679,5.9655,5.674,5.1174,4.6104,4.0081,2.9163,2.2566,1.6788,0.6236,0.123,-0.2768,-1.0073,-1.2601,-1.4302,-1.9057,-2.0586,-2.1331,-2.2378,-2.2986,-2.3883,-2.5653,-2.6132,-2.6901,-2.7998,-2.986,-3.0815,-2.9995,-2.9884,-2.9847,-3.0114,-3.0139,-3.0136,-3.0396,-3.2157,-3.3224,-3.2927,-3.3808,-3.484,-3.6071,-3.5786,-3.5702,-3.5838,-3.578,-3.6012,-3.6398,-3.703,-3.7657,-3.8427,-3.8941,-3.9632,-4.0389,-4.0524,-4.1322,-2.3382,-1.122,0.0613,1.3805,2.603,3.4901,3.513,3.5675,3.6721,3.8738,4.0075,4.1545,4.3975,4.5714,4.7174,4.8601,5.0262,5.1847,5.3374,5.503,5.6462,5.7481,5.8402,5.8984,0.0,5.8921,5.9175,5.9812,6.1573,6.2928,6.3727,6.5186,6.6016,6.6102,6.6225,6.6264,6.6205,6.6264,6.6264,6.6205,6.6264,6.6301,6.6316,6.6574,6.6654,6.6603,6.6737,6.6805,6.6792,6.6791,6.6604,6.6279,6.5935,6.5313,6.4575,6.4293,6.3214,6.1714,6.0576,5.7397,5.3339,4.9366,4.3028,3.5375,2.7254,1.9945,1.2709,0.4785,-0.0932,-0.574,-1.0111,-1.3059,-1.5819,-1.9957,-2.1031,-2.1481,-2.2992,-2.3438,-2.3587,-2.4462,-2.5091,-2.5791,-2.6919,-2.875,-2.9722,-2.8959,-2.9328,-3.0114,-3.0804,-3.162,-3.2098,-3.2098,-3.3697,-3.449,-3.3771,-3.4786,-3.5628,-3.6292,-3.6435,-3.6496,-3.6717,-3.7866,-3.8134,-3.7806,-3.8438,-3.9192,-3.9814,-3.9814,-4.0434,-4.1547,-4.218,-4.318,-1.2191,0.0552,1.3125,2.5512,3.1902,3.5304,3.5763,3.6706,3.8031,3.9851,3.2781,2.6681,2.8186,3.0003,3.1596,3.2594,4.3322,5.2279,5.4474,5.5594,5.679,5.8521,5.9009,0.0,0.0,0.0,0.0,5.9455,6.1274,6.2558,6.3047,6.4799,6.5885,6.6102,6.6264,6.634,6.6264,6.6303,6.6303,6.6264,6.6435,6.648,6.6439,6.6672,6.6737,6.668,6.6757,6.6756,6.6673,6.6683,6.6386,6.5935,6.5649,6.4863,6.3933,6.379,6.2135,5.992,5.9751,5.7012,5.2681,4.705,3.9975,3.2312,2.4681,1.7564,1.061,0.3563,-0.0,-0.3429,-1.0883,-1.2601,-1.3644,-1.8715,-1.99,-2.0203,-2.139,-2.1987,-2.2724,-2.4024,-2.4664,-2.5569,-2.7458,-2.8818,-2.9766,-3.0438,-3.0395,-3.0232,-3.0511,-3.1516,-3.2391,-3.2775,-3.4109,-3.504,-3.5139,-3.5975,-3.6857,-3.7545,-3.7678,-3.7871,-3.8361,-3.876,-3.9162,-3.9379,-4.0162,-4.0545,-4.0811,-4.1674,-4.2393,-4.2692,-4.3788,-4.4609,-0.0363,1.0257,1.9414,3.158,3.4743,3.5059,3.5843,3.6872,3.8206,3.9987,2.8739,1.8905,2.0166,2.2094,2.1682,1.6017,3.0204,4.28,4.539,4.6163,4.9658,5.8334,5.9383,5.9419,0.0,0.0,0.0,5.9381,6.1262,6.2522,6.2815,6.4718,6.5909,6.6123,6.6264,6.6322,6.6303,6.6303,6.6321,6.6373,6.6503,6.6575,6.6445,6.2557,6.297,6.653,6.2559,6.3035,6.6622,6.661,6.6231,6.563,6.546,6.4487,6.3156,6.2993,6.0981,5.8479,5.8963,5.5605,5.0155,4.4895,3.6786,2.8022,2.2067,1.4467,0.6982,0.215,-0.154,-0.523,-1.1517,-1.3358,-1.4688,-1.8774,-1.9654,-2.01,-2.1126,-2.1716,-2.2443,-2.372,-2.4433,-2.5577,-2.7717,-2.8897,-3.0023,-3.1513,-3.1589,-3.1502,-3.1639,-3.2564,-3.3413,-3.4078,-3.5151,-3.585,-3.6238,-3.7069,-3.776,-3.8304,-3.8437,-3.8692,-3.9341,-3.9604,-3.9997,-4.0647,-4.1304,-4.1817,-4.2061,-4.3063,-4.3689,-4.3678,-4.5257,-4.5985,1.0043,1.6795,1.995,3.1992,3.4743,3.4729,3.579,3.6725,3.7585,3.8229,2.6992,1.7184,0.0,2.0528,1.7296,0.0861,1.3819,2.6856,2.9424,3.0127,3.7625,0.0,0.0,0.0,0.0,0.0,0.0,5.9613,0.0,6.2815,6.3104,6.4951,6.608,6.6205,6.6225,6.6245,6.6283,6.6322,6.6373,6.6509,6.6523,6.6275,6.5492,5.5435,5.637,6.5385,5.5301,5.6931,6.6671,6.6594,6.609,6.5369,6.5322,6.4087,6.2314,6.1941,5.9893,5.7341,5.7875,5.3076,4.6123,4.2796,3.3447,2.2835,1.9467,1.0957,0.2107,0.0452,-0.5104,-1.0807,-1.1722,-1.499,-1.8237,-1.9815,-2.0266,-2.0717,-2.2306,-2.2605,-2.2898,-2.3585,-2.472,-2.6003,-2.7579,-2.8986,-3.0472,-3.1987,-3.2704,-3.3345,-3.3771,-3.448,-3.5186,-3.5976,-3.6664,-3.7079,-3.7213,-3.777,-3.8304,-3.8681,-3.8681,-3.9067,-3.9713,-4.0506,-4.1035,-4.1433,-4.2073,-4.2708,-4.3314,-4.4051,-4.4422,-4.4422,-4.6345,-4.7324,1.4497,2.2863,3.0468,3.336,3.4647,3.5304,3.5843,3.74,3.5695,2.5277,1.2018,-0.0971,-1.2034,-0.2521,0.5601,0.1507,2.6176,0.0,4.8483,4.9746,0.0,5.8851,0.0,5.9866,5.982,5.9853,0.0,0.0,6.2113,6.294,6.3306,6.5051,6.6126,6.6264,6.6375,6.6411,6.6358,6.6422,6.6465,6.6489,6.6644,6.2344,5.4461,5.999,5.9526,5.4661,6.0047,6.3974,6.6514,6.6109,6.557,6.494,6.4293,6.3275,6.2003,6.0863,5.8863,5.6445,5.4164,5.0169,4.4989,3.9474,3.0868,2.1726,1.7258,0.9655,0.1938,-0.0601,-0.4514,-0.8723,-1.1732,-1.4256,-1.6571,-1.8603,-1.9586,-2.0449,-2.2005,-2.2866,-2.3721,-2.4437,-2.632,-2.8201,-2.919,-3.0607,-3.1826,-3.282,-3.33,-3.3762,-3.4176,-3.5011,-3.5986,-3.6799,-3.6944,-3.7358,-3.7904,-3.8293,-3.8692,-3.9078,-3.9088,-3.9604,-4.0777,-4.1293,-4.1922,-4.2811,-4.3439,-4.3927,-4.4051,-4.5135,-4.5743,-4.5743,-4.7652,-4.8379,2.2668,2.9044,3.4275,3.4607,3.5182,3.4231,2.8835,2.853,2.5531,1.1553,-0.282,-1.5427,-2.3852,-1.0576,-0.0881,0.0,0.0,0.0,4.4053,4.5307,4.9467,0.0,5.9963,0.0,5.9918,5.5265,5.2474,0.0,5.9087,6.3102,6.392,6.5352,6.6206,6.634,6.6445,6.6477,6.6411,6.6485,6.653,6.6583,6.67,6.3467,5.7412,5.8819,5.8706,5.7474,0.0,6.1963,6.6334,6.5865,6.5236,6.4459,6.3668,6.2604,6.1229,5.9289,5.701,5.4211,5.0212,4.5683,4.0964,3.6197,2.8271,1.9941,1.6287,0.8731,0.0735,-0.1924,-0.5479,-0.9179,-1.2415,-1.4749,-1.6745,-1.9057,-1.9893,-2.0638,-2.2288,-2.3133,-2.4166,-2.6142,-2.8053,-2.9658,-3.0929,-3.1826,-3.2666,-3.3798,-3.4471,-3.5002,-3.5275,-3.5704,-3.6268,-3.7079,-3.7606,-3.8006,-3.8181,-3.921,-3.9724,-3.9483,-4.0116,-4.0884,-4.1678,-4.2304,-4.3051,-4.3689,-4.441,-4.489,-4.5147,-4.644,-4.7048,-4.7074,-4.8726,-4.9347,3.1399,3.4275,3.4485,3.5803,3.6188,3.2823,1.9753,1.7082,1.2982,-0.2536,-1.619,-2.5885,-2.7698,-1.3304,-0.5492,-1.8853,0.0,2.8732,3.2715,3.4018,4.0234,5.5687,5.754,5.7525,5.739,4.6765,4.0603,4.2237,5.3573,6.0886,6.2113,6.3075,6.4498,6.6373,6.6477,6.6474,6.6422,6.6489,6.6583,6.6688,6.6691,6.5933,6.4271,5.6036,5.6733,6.398,0.0,0.0,6.6109,6.5664,6.4889,6.3909,6.3137,6.182,6.0016,5.7593,5.4711,5.1285,4.6556,4.1096,3.5718,3.3006,2.5765,1.7796,1.5346,0.7544,-0.0874,-0.3491,-0.7415,-1.1486,-1.3444,-1.5895,-1.8211,-1.9994,-2.0732,-2.1254,-2.3154,-2.38,-2.4974,-2.8412,-2.9682,-3.0615,-3.2333,-3.2806,-3.3511,-3.4902,-3.585,-3.6519,-3.6779,-3.6539,-3.6684,-3.7348,-3.8517,-3.9057,-3.857,-4.0236,-4.0884,-4.0007,-4.1399,-4.2293,-4.242,-4.3302,-4.4051,-4.4546,-4.5135,-4.5851,-4.6465,-4.7626,-4.8236,-4.8302,-4.9442,-4.9993,3.377,3.4841,3.5561,3.6346,3.7266,3.4279,2.0024,1.7611,1.0656,-1.6487,-2.3284,-2.846,-4.1999,-3.0283,-1.497,-0.4044,1.4732,3.3539,4.9684,5.2863,5.1156,0.0,4.4113,4.4213,4.4197,3.3408,0.0,0.0,0.0,4.8402,4.8901,4.9706,5.5213,6.6222,6.6519,6.6519,6.6555,6.6634,6.6649,6.6613,6.6669,6.1798,5.3018,6.032,5.9654,5.3121,6.0167,0.0,6.5707,6.4714,6.3911,6.3163,6.1982,6.0228,5.8152,5.6454,5.2995,4.8692,4.5316,3.9324,3.2777,2.9527,2.3079,1.5794,1.1234,0.431,-0.2538,-0.4875,-0.947,-1.3941,-1.4655,-1.726,-1.9819,-2.0031,-2.0728,-2.1914,-2.42,-2.6254,-2.8264,-2.981,-3.0743,-3.1474,-3.2517,-3.365,-3.4765,-3.5714,-3.5996,-3.6674,-3.8507,-3.866,-3.8671,-3.8782,-3.9583,-3.9986,-3.9855,-4.1024,-4.155,-4.1046,-4.1795,-4.2546,-4.3063,-4.3802,-4.4669,-4.5525,-4.6358,-4.7193,-4.7821,-4.8611,-4.8944,-4.8957,-4.967,-5.0222,3.4924,3.5494,3.6136,3.7266,3.8264,3.3293,1.1404,0.7376,-0.0211,-3.0186,-3.553,-3.7333,-4.5622,-3.3707,-1.9971,-1.1778,1.1527,3.2025,4.1845,5.2015,5.6584,5.1536,4.5009,4.0992,4.1078,2.4683,0.0,0.0,0.0,3.2046,4.5527,5.3159,6.0065,6.6443,6.6626,6.6601,6.6601,6.6642,6.6628,6.6601,6.6603,6.3751,5.8663,6.3916,6.3341,5.8515,6.3638,0.0,6.497,6.4068,6.3037,6.1956,6.0677,5.897,5.6878,5.4067,5.0396,4.6277,4.1662,3.5717,2.9345,2.3589,1.8275,1.3167,0.8044,0.1796,-0.4359,-0.8815,-1.2258,-1.5242,-1.6798,-1.8795,-2.0411,-2.1132,-2.2742,-2.4535,-2.6081,-2.8334,-3.0352,-3.0943,-3.1965,-3.2954,-3.365,-3.4756,-3.585,-3.6914,-3.7719,-3.8507,-3.955,-4.0355,-4.0484,-3.9823,-4.0614,-4.1142,-4.0732,-4.2166,-4.2696,-4.1922,-4.2937,-4.3689,-4.4051,-4.4927,-4.578,-4.673,-4.756,-4.8146,-4.8624,-4.9314,-4.9704,-5.0,-5.0357,-5.096,3.4954,3.6294,3.683,3.8487,3.9376,3.2348,0.3552,-0.2134,-0.9778,-3.9632,-4.5367,-4.5239,-4.6019,-3.61,-2.6631,-2.3156,-0.002,2.0649,2.9605,4.0896,4.9195,5.1745,4.0621,0.0,3.3062,1.4034,0.0,0.0,0.0,0.0,4.5775,5.9456,6.6712,6.6712,6.6702,6.6652,6.6624,6.6614,6.6581,6.6579,6.6508,6.6458,6.6388,6.6166,6.5989,6.5843,6.5551,0.0,0.0,6.3221,6.2036,6.057,5.9133,5.7207,5.4907,5.1254,4.7355,4.3247,3.7895,3.2226,2.5972,1.8519,1.4092,1.0503,0.4819,-0.0907,-0.6364,-1.2094,-1.4807,-1.643,-1.8691,-2.0072,-2.1329,-2.2908,-2.5233,-2.7282,-2.7844,-3.0053,-3.1683,-3.1683,-3.2954,-3.4223,-3.5049,-3.585,-3.6914,-3.8374,-3.955,-4.0333,-4.0851,-4.1761,-4.2027,-4.1343,-4.2016,-4.2281,-4.1749,-4.3302,-4.3838,-4.2799,-4.4063,-4.4939,-4.5159,-4.5914,-4.6768,-4.769,-4.8276,-4.874,-4.92,-4.9905,-5.0444,-5.0892,-5.1027,-5.1679,3.3171,3.7357,3.8397,4.0146,4.0752,3.3306,0.4285,-0.1968,-1.0096,-3.9928,-4.6007,-4.6258,-4.7167,-4.6176,-4.0443,-2.585,-2.1494,-0.8078,2.594,2.1484,1.7289,2.4175,0.0,0.0,0.6439,-0.4485,0.0,0.0,0.0,0.0,4.6936,5.955,6.6712,6.6712,6.6638,6.6634,6.6699,6.6621,6.6566,6.6501,6.6441,6.6281,6.6041,6.5951,6.5743,6.5437,6.4742,0.0,0.0,6.1695,6.0469,5.922,5.7032,5.4086,5.0828,4.8453,4.4066,3.8942,3.5987,3.0225,2.3138,1.726,1.2708,0.8177,0.0465,-0.4657,-0.8527,-1.2392,-1.5807,-1.8461,-1.9528,-2.1361,-2.3504,-2.5096,-2.7293,-2.89,-2.902,-3.0918,-3.2526,-3.2517,-3.378,-3.5049,-3.5704,-3.7048,-3.8364,-3.9812,-4.0073,-4.0851,-4.2799,-4.2546,-4.2914,-4.4645,-4.3927,-4.3189,-4.3063,-4.3838,-4.4211,-4.4175,-4.4792,-4.5525,-4.6143,-4.6503,-4.7112,-4.769,-4.8276,-4.8868,-4.9569,-5.0438,-5.0851,-5.0905,-5.1475,-5.2203,3.3946,3.8532,3.9418,4.0462,3.3955,2.2133,0.2167,-0.8581,-2.0222,-4.1028,-4.4931,-4.4869,-4.5767,-4.6794,-4.5572,-3.9727,-3.0972,-1.9694,-0.4746,0.5392,1.2332,1.5245,0.8476,0.0,0.0,0.0,0.0,0.0,0.0,0.0,0.0,6.3908,6.6759,6.6759,6.6731,6.6686,6.664,6.6566,6.6498,6.6425,6.6262,6.6082,6.5924,6.554,6.5111,6.4674,6.3906,0.0,0.0,6.0576,5.8796,5.6729,5.5717,5.2698,4.8607,4.6354,4.191,3.6444,3.1634,2.6496,2.0637,1.3018,0.8171,0.4178,-0.1555,-0.6537,-1.1032,-1.4201,-1.7303,-2.0085,-2.1532,-2.3695,-2.6057,-2.8068,-2.9663,-3.0818,-3.1798,-3.3734,-3.4983,-3.4195,-3.6209,-3.7955,-3.7307,-3.875,-4.0322,-4.1377,-4.1761,-4.265,-4.4287,-4.4287,-4.4534,-4.5768,-4.5037,-4.4669,-4.5037,-4.5294,-4.5537,-4.5525,-4.5768,-4.613,-4.6849,-4.6968,-4.7455,-4.8302,-4.8548,-4.9054,-4.9863,-5.0349,-5.0937,-5.1387,-5.2235,-5.2802,2.8385,3.6109,4.0317,4.1229,2.9842,1.486,0.1089,-1.3094,-2.753,-4.2198,-4.4761,-4.4565,-4.5167,-4.6279,-4.7499,-4.8619,-3.9765,-3.0868,-2.551,-1.3594,-0.3283,0.2406,0.0,-0.5676,0.0,0.0,0.0,0.0,0.0,0.0,0.0,6.6789,6.6776,6.6761,6.6757,6.6689,6.6566,6.6498,6.6406,6.6306,6.6086,6.59,6.5685,6.508,6.4497,6.3806,0.0,0.0,0.0,5.8695,5.6727,5.4728,5.3179,5.0072,4.6209,4.3154,3.8788,3.3448,2.7829,2.2712,1.7485,0.9571,0.4183,-0.0155,-0.4358,-0.8867,-1.3205,-1.6133,-1.9187,-2.2073,-2.3722,-2.6057,-2.8508,-3.0501,-3.1657,-3.2666,-3.459,-3.6073,-3.6884,-3.6499,-3.8486,-3.9942,-3.9156,-4.0452,-4.1888,-4.2788,-4.3428,-4.4299,-4.5403,-4.5646,-4.5997,-4.661,-4.6358,-4.6118,-4.6263,-4.6263,-4.6491,-4.6849,-4.6849,-4.7205,-4.8016,-4.8016,-4.8276,-4.8792,-4.9298,-4.9578,-4.9861,-5.0937,-5.1661,-5.1977,-5.3125,-5.3558,1.3889,2.8886,4.1127,4.2847,3.0955,1.5348,0.2104,-1.3407,-2.9019,-4.3254,-4.6186,-4.6175,-4.618,-4.6204,-4.679,-4.8526,-5.0117,-4.4979,-2.7369,-3.7072,-3.884,0.0,0.0,-2.9463,0.0,0.0,0.0,0.0,0.0,0.0,0.0,6.6745,6.6702,6.6697,6.6638,6.6561,6.6497,6.6439,6.6309,6.6102,6.6036,6.5711,6.5175,6.4639,6.385,0.0,0.0,0.0,0.0,5.5653,5.4218,5.367,4.8881,4.5546,4.2958,3.8218,3.3807,2.9628,2.5458,1.9431,1.2765,0.7881,0.1707,-0.4526,-0.8738,-1.1995,-1.4915,-1.829,-2.1763,-2.475,-2.5618,-2.8068,-3.0785,-3.2184,-3.3215,-3.4609,-3.738,-3.739,-3.7678,-3.9801,-4.0203,-4.0463,-4.1097,-4.1761,-4.2788,-4.4051,-4.4792,-4.5525,-4.6263,-4.6491,-4.6955,-4.7573,-4.7912,-4.7547,-4.6383,-4.6263,-4.6849,-4.8016,-4.8029,-4.8611,-4.9897,-5.001,-4.967,-4.9125,-5.058,-5.0763,-4.9495,-5.2321,-5.3288,-5.2723,-5.3933,-5.446,-0.0305,0.7044,1.1064,1.2108,0.052,-1.1926,-1.4921,-2.7528,-3.971,-4.3617,-4.4468,-4.4499,-4.4484,-4.5427,-4.6757,-4.8456,-5.0662,-5.0621,-4.623,-4.1344,-3.5956,-3.0008,-1.6539,0.1343,0.0,0.0,0.0,0.0,0.0,0.0,0.0,6.6711,6.6706,6.6702,6.6592,6.6501,6.6431,6.6258,6.6128,6.5947,6.5632,6.5199,6.468,6.3765,0.0,0.0,0.0,0.0,0.0,5.4744,5.2916,5.1331,4.7924,4.4193,4.0416,3.7338,3.2178,2.612,2.1963,1.6254,0.9743,0.3881,-0.1555,-0.6694,-1.0895,-1.3681,-1.6438,-2.0858,-2.3864,-2.6086,-2.7085,-2.9091,-3.1234,-3.2936,-3.4718,-3.6344,-3.7822,-3.9398,-4.0581,-4.0203,-4.1749,-4.2788,-4.2027,-4.3279,-4.4534,-4.5281,-4.5646,-4.6371,-4.7429,-4.7442,-4.769,-4.8534,-4.8753,-4.8753,-4.8624,-4.8508,-4.8855,-4.9314,-4.9429,-4.9543,-5.001,-5.0403,-5.0506,-5.0276,-5.1217,-5.1719,-5.1745,-5.2861,-5.3744,-5.463,-5.4323,-5.4657,-1.4998,-0.7103,-0.2486,-0.1778,-1.3162,-2.4135,-2.2539,-3.3953,-4.466,-4.3813,-4.3667,-4.3691,-4.369,-4.4799,-4.6161,-4.7523,-4.9895,-5.1185,-5.0152,-4.2839,-3.5197,-2.8559,0.0,0.0,0.0,0.0,0.0,0.0,0.0,0.0,0.0,0.0,6.6615,6.6595,6.6517,6.6367,6.6206,6.6086,6.5804,6.5398,6.513,6.4552,6.3742,6.2928,0.0,0.0,0.0,0.0,0.0,5.2206,5.0109,4.8453,4.4487,4.0963,3.7559,3.3688,2.8632,2.289,1.7901,1.2311,0.621,0.0622,-0.4977,-1.0403,-1.4641,-1.6921,-1.8746,-2.2657,-2.5451,-2.7757,-2.8458,-3.0825,-3.3327,-3.4992,-3.6479,-3.7822,-3.9408,-4.1097,-4.2131,-4.1493,-4.3291,-4.4582,-4.3541,-4.4767,-4.5997,-4.6598,-4.6849,-4.7324,-4.8392,-4.8392,-4.8637,-4.9227,-4.9469,-4.9797,-5.001,-4.9783,-4.9783,-5.0348,-5.0553,-5.0788,-5.1013,-5.1605,-5.1921,-5.1907,-5.2872,-5.324,-5.2998,-5.3598,-5.4401,-5.5496,-5.5219,-5.5323,0.0,-1.6056,-0.4934,-0.4141,-1.4655,-2.4856,-2.3554,-3.4381,0.0,-4.3769,-4.3612,-4.3646,-4.3763,-4.4387,-4.5214,-4.6222,-4.8448,-4.8065,-4.2236,-4.1456,-3.5015,-1.7588,0.2011,0.0,0.0,0.0,0.0,0.0,0.0,0.0,0.0,0.0,6.645,6.637,6.6373,6.6225,6.59,6.5856,6.5398,6.455,6.4459,6.3728,6.2343,6.1876,0.0,0.0,0.0,0.0,0.0,4.8692,4.6504,4.5261,3.9342,3.6394,3.4515,2.8019,2.3542,1.9916,1.3547,0.7892,0.2489,-0.2333,-0.8845,-1.5485,-1.9478,-2.0914,-2.1672,-2.3859,-2.6818,-2.9478,-2.9962,-3.2992,-3.6324,-3.7668,-3.8221,-3.9025,-4.1761,-4.2374,-4.2603,-4.3428,-4.4816,-4.5805,-4.5525,-4.6225,-4.7061,-4.8016,-4.8146,-4.8392,-4.9112,-4.9455,-4.9683,-4.9683,-5.0263,-5.0711,-5.0906,-5.0235,-5.0123,-5.1003,-5.1683,-5.224,-5.27,-5.3487,-5.3825,-5.3796,-5.4983,-5.4941,-5.386,-5.4692,-5.5233,-5.5613,-5.6394,-5.6466,-3.9874,0.0,-3.4578,-3.3769,-3.6317,-3.8764,0.0,-4.0377,-4.2929,-4.2733,-4.27,-4.3103,-4.4373,-4.4722,-4.5554,-4.7756,-4.9693,-4.8733,-4.2504,-3.243,-2.1251,-0.9217,0.3597,0.0,0.0,0.0,0.0,0.0,0.0,0.0,0.0,0.0,6.6206,6.6104,6.5951,6.5881,6.59,6.5341,6.4757,6.4143,6.337,6.2401,6.124,5.9946,0.0,0.0,0.0,0.0,5.2062,4.7584,4.5301,4.405,3.8021,3.4024,3.1194,2.5884,2.0275,1.4785,1.0341,0.4331,-0.264,-0.977,-1.508,-1.9043,-2.1226,-2.2099,-2.3246,-2.669,-2.8627,-3.0077,-3.2294,-3.4359,-3.6063,-3.7062,-3.9004,-4.0851,-4.1981,-4.3494,-4.4767,-4.5513,-4.625,-4.6849,-4.673,-4.7311,-4.7899,-4.8353,-4.874,-4.9213,-5.0348,-5.032,-5.032,-5.0572,-5.1334,-5.1773,-5.1568,-5.154,-5.1745,-5.2193,-5.3223,-5.3689,-5.339,-5.4888,-5.5587,-5.5139,-5.5866,-5.618,-5.6166,-5.6093,-5.6279,-5.6537,-5.6523,-5.695,-4.2315,-4.3619,-4.4738,-4.4313,-4.395,-4.3572,-4.3104,-4.238,-4.1799,-4.1799,-4.1772,-4.2161,-4.3475,-4.1933,-4.2012,-4.6703,-4.4007,-4.0547,-3.8255,-3.225,-2.2264,-0.6667,0.0154,0.0,0.0,0.0,0.0,0.0,0.0,0.0,0.0,0.0,6.6086,6.59,6.5624,6.5494,6.5484,6.4881,6.42,6.3382,6.227,6.1238,6.0185,5.8445,5.6962,0.0,0.0,0.0,4.9097,4.5525,4.2657,3.9832,3.517,3.0871,2.6824,2.1406,1.6156,1.0812,0.5103,-0.1696,-0.8774,-1.429,-1.7803,-2.056,-2.332,-2.4544,-2.5502,-2.7901,-3.0224,-3.2294,-3.3947,-3.593,-3.7718,-3.8492,-4.0157,-4.2016,-4.3004,-4.4497,-4.5876,-4.6225,-4.7074,-4.7795,-4.7652,-4.8249,-4.8957,-4.9629,-4.977,-5.0235,-5.1238,-5.11,-5.121,-5.143,-5.1882,-5.2193,-5.2301,-5.273,-5.2837,-5.2623,-5.3776,-5.4244,-5.3609,-5.506,-5.593,-5.59,-5.6358,-5.6901,-5.7542,-5.7205,-5.7092,-5.7092,-5.743,-5.764,-4.1419,-4.2474,-4.3636,-4.4189,-4.3906,-4.3474,-4.3336,-4.2165,-4.1091,-4.1086,-4.1142,-4.1259,-4.1488,-3.9168,-3.9025,-4.4549,-3.6573,-3.0009,-3.1043,-3.1961,-2.6181,-0.9047,0.0,0.0,0.0,0.0,0.0,0.0,0.0,0.0,0.0,0.0,0.0,6.5659,6.5299,6.4971,6.456,6.42,6.3469,6.2351,6.1073,5.9902,5.8789,5.6878,5.5324,0.0,0.0,0.0,4.5775,4.3212,3.9523,3.5117,3.1621,2.7264,2.2377,1.6327,1.1567,0.7231,-0.1079,-0.8285,-1.4315,-1.6968,-1.9333,-2.1703,-2.5505,-2.7415,-2.8426,-2.926,-3.1884,-3.4662,-3.5311,-3.7477,-3.9809,-4.0624,-4.1788,-4.304,-4.441,-4.5622,-4.656,-4.6654,-4.7769,-4.8726,-4.8558,-4.9173,-5.0123,-5.0906,-5.1017,-5.1238,-5.1896,-5.2004,-5.2099,-5.2394,-5.253,-5.2851,-5.3126,-5.3785,-5.3844,-5.3087,-5.4047,-5.4546,-5.4316,-5.5134,-5.5932,-5.6712,-5.6932,-5.7525,-5.832,-5.8099,-5.7766,-5.7416,-5.854,-5.843,-4.291,-4.0267,-3.7846,-4.0912,-4.2142,-4.2419,-4.1679,-4.1296,-4.1086,-4.1025,-4.1597,-4.1255,-3.8501,-4.2095,-4.4901,-4.3148,-3.5367,-2.7406,0.0,0.0,-1.3433,0.0,0.0,0.0,0.0,0.0,0.0,0.0,0.0,0.0,0.0,0.0,0.0,6.506,6.4932,6.4087,6.2494,6.2642,6.2168,6.092,5.9329,5.7706,5.6089,5.4615,5.3181,0.0,0.0,4.7318,4.5143,4.1201,3.7688,3.4091,2.8102,2.3725,1.9893,1.2406,0.7258,0.2705,-0.7065,-1.2911,-1.6438,-1.9251,-2.2525,-2.5628,-2.692,-2.9602,-3.2492,-3.3282,-3.3806,-3.475,-3.6823,-3.8543,-4.0265,-4.187,-4.3127,-4.4534,-4.6358,-4.7285,-4.7977,-4.8584,-4.9301,-4.9883,-5.0432,-5.0558,-5.0906,-5.1568,-5.1677,-5.1896,-5.2451,-5.2957,-5.3246,-5.3246,-5.4112,-5.4539,-5.4097,-5.4641,-5.4996,-5.4905,-5.5575,-5.6348,-5.7342,-5.7031,-5.7493,-5.8609,-5.8486,-5.853,-5.8991,-5.8649,-5.8305,-5.8099,-5.8195,-5.821,-4.2082,-4.0847,-3.9053,-3.7918,-3.6333,-3.4906,-3.4266,-3.4142,-3.4884,-3.745,-3.8539,-3.8689,-3.7423,-3.7197,-3.4535,-2.6313,-2.8611,-2.8643,-2.0589,-2.0676,0.0,0.0,0.0,0.0,0.0,0.0,0.0,0.0,0.0,0.0,0.0,0.0,0.0,0.0,6.403,6.2971,6.1708,6.0552,5.9606,5.8963,5.7216,5.5878,5.4807,5.2981,5.1555,5.0396,0.0,4.4944,4.2115,3.8589,3.4728,3.0582,2.5313,2.0185,1.4668,0.5291,-0.1188,-0.6113,-1.1794,-1.6031,-1.9415,-2.2256,-2.486,-2.7186,-2.9419,-3.1772,-3.4083,-3.5571,-3.6428,-3.7264,-3.8707,-4.0451,-4.2268,-4.3311,-4.4738,-4.6333,-4.786,-4.8877,-4.9802,-5.0419,-5.1293,-5.1825,-5.1839,-5.2056,-5.238,-5.2623,-5.273,-5.2943,-5.3486,-5.3785,-5.4186,-5.4684,-5.4845,-5.4947,-5.5119,-5.5362,-5.5366,-5.5218,-5.5872,-5.6482,-5.7064,-5.6865,-5.7139,-5.8006,-5.8208,-5.8602,-5.9099,-5.8976,-5.8758,-5.8649,-5.832,-5.7974,-4.1596,-4.1113,-3.9623,-3.596,-3.3527,-3.1303,-2.863,-2.8919,-3.0486,-3.2981,-3.4147,-3.4907,-3.5528,-3.2402,-2.6518,-1.6787,-2.3562,-2.7075,0.0,0.0,0.0,0.0,0.0,0.0,0.0,0.0,0.0,0.0,0.0,0.0,0.0,0.0,0.0,0.0,6.3013,6.1752,6.0491,5.8342,5.7237,5.7137,5.5192,5.4086,5.368,5.1246,4.9753,4.9003,4.5849,4.2459,3.9034,3.5929,3.1556,2.6425,2.1617,1.4893,0.6958,-0.221,-0.8895,-1.3613,-1.5922,-1.9265,-2.2809,-2.5257,-2.7248,-2.9153,-3.2143,-3.4063,-3.5694,-3.7626,-3.9274,-4.0562,-4.055,-4.22,-4.414,-4.4938,-4.6437,-4.7977,-4.9321,-5.0448,-5.1375,-5.2071,-5.2808,-5.3308,-5.3006,-5.3323,-5.3637,-5.3666,-5.3771,-5.3979,-5.4289,-5.4494,-5.5063,-5.6146,-5.5661,-5.552,-5.6174,-5.6196,-5.6124,-5.5673,-5.6154,-5.654,-5.6645,-5.6674,-5.7024,-5.7784,-5.8321,-5.8789,-5.9422,-5.9422,-5.9315,-5.9099,-5.8664,-5.7974,-4.308,-3.928,-3.5108,-3.5962,-3.8832,-3.8963,-2.9609,-3.0991,-3.3037,-2.8774,-2.9019,-3.0181,-3.0952,-3.2215,-3.2373,-2.9958,-2.498,-1.813,0.0,0.0,0.0,0.0,0.0,0.0,0.0,0.0,0.0,0.0,0.0,0.0,0.0,0.0,0.0,0.0,0.0,6.0408,5.7728,5.6385,5.58,5.5877,5.3436,5.2109,5.1601,4.9072,4.7688,4.7136,4.3527,4.0294,3.7339,3.344,2.8533,2.2802,1.5749,0.6087,-0.4478,-0.877,-1.2619,-1.6308,-1.9778,-2.3486,-2.6761,-2.836,-3.0708,-3.3165,-3.4645,-3.6506,-3.8354,-4.0209,-4.251,-4.3953,-4.2238,-4.3143,-4.49,-4.6731,-4.8096,-4.9308,-5.1127,-5.2014,-5.2673,-5.3203,-5.3308,-5.3533,-5.4082,-5.4186,-5.4186,-5.4186,-5.4713,-5.4815,-5.4406,-5.5205,-5.6161,-5.7228,-5.6959,-5.6783,-5.7004,-5.7588,-5.7693,-5.6989,-5.7034,-5.7363,-5.7962,-5.7915,-5.8366,-5.9332,-5.9698,-6.0046,-6.0272,-6.0586,-6.0167,-5.9099,-5.9099,-5.8085,-4.19,-3.8239,-3.4531,-3.5806,-3.7125,-3.5384,-2.4946,-2.5169,-2.8064,-2.9669,-2.748,-2.6338,-2.9898,-2.4912,-2.0953,-2.321,-1.7586,0.0,0.0,0.0,0.0,0.0,0.0,0.0,0.0,0.0,0.0,0.0,0.0,0.0,0.0,0.0,0.0,0.0,0.0,5.8536,5.6664,5.4966,5.377,5.309,5.1408,5.0524,5.0403,4.7803,4.6222,4.5236,4.093,3.7278,3.4031,2.8604,2.323,1.7549,0.7023,-0.1844,-0.9196,-1.3291,-1.7333,-2.1207,-2.4216,-2.7425,-3.0471,-3.2039,-3.3953,-3.6088,-3.7754,-3.9313,-4.104,-4.3225,-4.5038,-4.5975,-4.4973,-4.6539,-4.8557,-4.9337,-5.0696,-5.1972,-5.2673,-5.3518,-5.4245,-5.4377,-5.4988,-5.5506,-5.5305,-5.562,-5.5735,-5.532,-5.5521,-5.5521,-5.5305,-5.562,-5.629,-5.719,-5.733,-5.7331,-5.7466,-5.7871,-5.8186,-5.8336,-5.8336,-5.8276,-5.8126,-5.8515,-5.8952,-5.9514,-5.988,-6.0092,-6.0377,-5.9955,-5.9529,-5.9099,-5.7974,-5.7078,-3.9156,-3.6656,-3.3897,-3.3521,-3.4359,-3.249,-2.184,-2.2458,-2.5401,-2.5946,-2.4382,-2.3992,-2.7486,-2.1049,-1.6087,0.0,0.0,0.0,0.0,0.0,0.0,0.0,0.0,0.0,0.0,0.0,0.0,0.0,0.0,0.0,0.0,0.0,0.0,0.0,0.0,5.6997,5.5435,5.3617,5.2036,5.0739,4.9372,4.8806,4.8909,4.6397,4.4529,4.3003,3.8614,3.4331,3.0146,2.4383,1.756,0.9399,-0.1552,-0.8959,-1.4123,-1.8335,-2.2308,-2.5942,-2.8488,-3.123,-3.3933,-3.5701,-3.7167,-3.8726,-4.0564,-4.2088,-4.3571,-4.5978,-4.766,-4.8586,-4.8572,-4.9861,-5.1229,-5.1605,-5.2704,-5.3742,-5.3964,-5.4684,-5.5406,-5.5635,-5.6259,-5.6664,-5.6244,-5.6552,-5.6552,-5.6017,-5.6017,-5.613,-5.5918,-5.6214,-5.69,-5.7901,-5.818,-5.8354,-5.8503,-5.8441,-5.862,-5.927,-5.9207,-5.8904,-5.8456,-5.8875,-5.933,-5.9652,-5.988,-6.0197,-6.0481,-5.9955,-5.93,-5.8729,-5.7499,-5.6609,-3.4976,-3.4357,-3.2536,-2.8784,-3.1292,-3.1952,-2.1501,-2.4536,-2.6501,-1.5911,-1.8851,-2.3173,-2.2882,-2.2274,-2.1191,0.0,0.0,0.0,0.0,0.0,0.0,0.0,0.0,0.0,0.0,0.0,0.0,0.0,0.0,0.0,0.0,0.0,0.0,0.0,0.0,0.0,5.3724,5.232,5.0779,4.9147,4.7347,4.6766,4.708,4.4671,4.2383,4.0144,3.6426,3.1424,2.5697,2.1397,1.1396,-0.199,-0.9234,-1.5059,-1.9875,-2.4444,-2.7506,-2.9904,-3.2778,-3.5118,-3.7155,-3.9053,-4.0325,-4.1334,-4.308,-4.4616,-4.6111,-4.8361,-5.0299,-5.2012,-5.3084,-5.2573,-5.2019,-5.3163,-5.386,-5.4494,-5.4988,-5.5506,-5.613,-5.6649,-5.6761,-5.6761,-5.6761,-5.6761,-5.6552,-5.6017,-5.6439,-5.6552,-5.6032,-5.7052,-5.8201,-5.923,-5.974,-6.0016,-6.0377,-5.9315,-5.9099,-5.9789,-5.9407,-5.9099,-5.9099,-5.9099,-5.933,-6.0001,-6.0001,-6.0302,-6.0794,-6.0794,-5.9895,-5.8092,-5.8092,-5.7133,-3.9218,-3.4049,-2.9358,-3.2038,-2.8804,-2.4221,-2.1306,-2.2335,-2.1783,-1.4547,-1.7879,-2.1928,-2.0983,-1.6162,0.0,0.0,0.0,0.0,0.0,0.0,0.0,0.0,0.0,0.0,0.0,0.0,0.0,0.0,0.0,0.0,0.0,0.0,0.0,0.0,0.0,0.0,5.3315,5.2366,5.1093,4.9408,4.7519,4.6577,4.6275,4.2814,4.0115,3.7719,3.2504,2.7453,2.2018,1.0618,0.0706,-0.7832,-1.5032,-2.0084,-2.3672,-2.821,-3.1376,-3.3589,-3.5966,-3.8585,-4.0817,-4.1901,-4.3254,-4.4686,-4.5753,-4.6832,-4.8005,-5.0239,-5.1886,-5.3396,-5.5047,-5.5189,-5.4835,-5.4654,-5.532,-5.6032,-5.572,-5.613,-5.6552,-5.6761,-5.6761,-5.6761,-5.6761,-5.6761,-5.6761,-5.6552,-5.6664,-5.6931,-5.7196,-5.8038,-5.8689,-5.8982,-5.9425,-5.9514,-5.9222,-5.9207,-5.9207,-5.9084,-5.9099,-5.9099,-5.9099,-5.9099,-5.933,-6.0001,-6.0001,-6.0302,-6.0794,-5.9955,-5.9054,-5.8092,-5.7245,-5.638,-3.4165,-3.0647,-2.811,-2.6562,-2.3117,-1.9558,-1.7923,-1.7691,-1.6944,-1.3443,-1.5252,-1.7189,-1.595,-1.1836,0.0,0.0,0.0,0.0,0.0,0.0,0.0,0.0,0.0,0.0,0.0,0.0,0.0,0.0,0.0,0.0,0.0,0.0,0.0,0.0,0.0,0.0,5.2664,5.1835,5.0723,4.9113,4.6985,4.5415,4.4291,4.0692,3.7465,3.4231,2.5461,1.9155,1.4113,0.1403,-0.7517,-1.3887,-1.9912,-2.4574,-2.829,-3.2071,-3.5026,-3.7309,-3.9242,-4.1501,-4.3605,-4.4457,-4.574,-4.7327,-4.8181,-4.9066,-5.0162,-5.2201,-5.3488,-5.4633,-5.6311,-5.67,-5.6506,-5.6017,-5.6342,-5.6664,-5.6342,-5.6552,-5.6761,-5.6761,-5.6761,-5.6761,-5.6761,-5.6761,-5.6761,-5.6761,-5.6992,-5.7408,-5.8085,-5.8797,-5.9341,-5.9601,-5.9682,-5.9606,-5.9392,-5.9207,-5.9099,-5.8976,-5.8991,-5.9006,-5.9114,-5.9207,-5.9437,-6.0001,-6.0092,-6.0392,-6.0794,-5.9834,-5.8808,-5.776,-5.7049,-5.6293,-2.4649,-2.5766,-2.7367,-1.6411,-1.6009,-1.7101,-1.2767,-1.2126,-1.2479,-1.2479,-1.1744,-1.0653,-0.9332,0.0,0.0,0.0,0.0,0.0,0.0,0.0,0.0,0.0,0.0,0.0,0.0,0.0,0.0,0.0,0.0,0.0,0.0,0.0,0.0,0.0,0.0,0.0,5.1921,5.1147,5.0014,0.0,4.5938,4.3735,4.1902,3.8404,3.414,2.8892,1.6318,0.8186,0.3078,-0.6635,-1.4132,-1.9929,-2.4487,-2.9034,-3.3336,-3.5882,-3.8455,-4.0968,-4.2351,-4.3958,-4.5751,-4.6682,-4.8024,-4.9426,-5.0258,-5.1128,-5.2247,-5.4188,-5.5066,-5.5743,-5.7293,-5.748,-5.729,-5.729,-5.7019,-5.6761,-5.6761,-5.6761,-5.6761,-5.6761,-5.6761,-5.6761,-5.6761,-5.6761,-5.6792,-5.6854,-5.7423,-5.81,-5.8777,-5.947,-6.0116,-6.0732,-6.0241,-6.0,-6.0211,-5.93,-5.8882,-5.9377,-5.8976,-5.8788,-5.9099,-5.9315,-5.9652,-6.0001,-6.0287,-6.0481,-6.069,-6.0136,-5.8886,-5.7202,-5.7274,-5.6623,-3.1413,-2.612,-2.0909,-1.8304,-1.5512,-1.3102,-1.2038,-1.1281,-1.0789,-1.0789,-0.969,-0.8474,0.0,0.0,0.0,0.0,0.0,0.0,0.0,0.0,0.0,0.0,0.0,0.0,0.0,0.0,0.0,0.0,0.0,0.0,0.0,0.0,0.0,0.0,0.0,5.3044,5.1769,5.1289,5.0331,0.0,4.5663,4.3406,4.1828,3.6584,2.841,1.781,0.9504,0.136,-0.6959,-1.4556,-2.106,-2.6613,-3.1197,-3.4565,-3.7231,-4.0068,-4.1739,-4.2859,-4.4996,-4.6406,-4.7577,-4.8962,-5.0007,-5.0843,-5.1419,-5.2258,-5.3283,-5.4791,-5.5889,-5.69,-5.8494,-5.8594,-5.8319,-5.8319,-5.7495,-5.6761,-5.6761,-5.6761,-5.6761,-5.6761,-5.6761,-5.6761,-5.6761,-5.6761,-5.6946,-5.7469,-5.8131,-5.8808,-5.9485,-6.0163,-6.064,-6.0778,-6.0241,-5.9698,-5.9407,-5.8991,-5.8664,-5.8525,-5.8664,-5.8788,-5.9099,-5.9315,-5.9652,-6.0001,-6.0287,-6.0257,-6.0121,-5.9499,-5.8634,-5.7289,-5.7289,-5.6851,-2.8918,-2.5867,-2.3812,-1.7161,-1.3618,-1.1655,-1.1163,-1.0304,-0.9447,-0.8961,-0.823,0.0,0.0,0.0,0.0,0.0,0.0,0.0,0.0,0.0,0.0,0.0,0.0,0.0,0.0,0.0,0.0,0.0,0.0,0.0,0.0,0.0,0.0,0.0,5.3498,5.2491,5.1549,5.0292,4.9276,4.8487,4.4702,3.9104,3.1919,2.8747,2.1403,1.073,0.1987,-0.6291,-1.4174,-2.114,-2.71,-3.2383,-3.5428,-3.8252,-4.0673,-4.2748,-4.4513,-4.5961,-4.7258,-4.8695,-5.0103,-5.0768,-5.182,-5.2785,-5.2874,-5.3694,-5.493,-5.6049,-5.6972,-5.7898,-5.9137,-5.9225,-5.8956,-5.8956,-5.8227,-5.7401,-5.7211,-5.7019,-5.6923,-5.6923,-5.6842,-5.6761,-5.6761,-5.7038,-5.7362,-5.7715,-5.8624,-5.9393,-5.9747,-6.0101,-6.0317,-6.0317,-5.9494,-5.876,-5.8141,-5.7728,-5.7513,-5.7281,-5.7404,-5.7877,-5.862,-5.9047,-5.9531,-6.0001,-6.0392,-6.0346,-5.9895,-5.9407,-5.8291,-5.6808,-5.7176,-5.6851,-2.5561,-2.5639,-2.7157,-1.4812,-1.1655,-1.1405,-1.0425,-0.9447,-0.8352,-0.7495,0.0,0.0,0.0,0.0,0.0,0.0,0.0,0.0,0.0,0.0,0.0,0.0,0.0,0.0,0.0,0.0,0.0,0.0,0.0,0.0,0.0,0.0,5.5443,5.4102,5.2959,5.1849,5.0978,4.9235,4.8254,4.8014,4.3715,3.3917,1.9365,1.8072,1.283,0.3934,-0.6181,-1.4447,-2.0978,-2.7629,-3.308,-3.7383,-3.9337,-4.1656,-4.4097,-4.5143,-4.7039,-4.9202,-4.9426,-5.0813,-5.2457,-5.2516,-5.3403,-5.4497,-5.4438,-5.5389,-5.6602,-5.7437,-5.8044,-5.8733,-5.9551,-5.9587,-5.9492,-5.9492,-5.903,-5.8395,-5.784,-5.7464,-5.7275,-5.718,-5.7019,-5.6761,-5.6761,-5.7223,-5.7669,-5.7916,-5.8793,-5.9532,-5.9762,-5.9686,-5.9609,-5.9609,-5.8593,-5.7643,-5.7094,-5.6477,-5.6172,-5.6279,-5.6279,-5.6835,-5.7932,-5.8684,-5.9227,-5.9924,-6.054,-6.0466,-5.9804,-5.93,-5.818,-5.6551,-5.7049,-5.6737,-3.2013,-2.6036,-1.9233,-1.3293,-1.1405,-1.0789,-1.0051,-0.8961,-0.7869,0.0,0.0,0.0,0.0,0.0,0.0,0.0,0.0,0.0,0.0,0.0,0.0,0.0,0.0,0.0,0.0,0.0,0.0,0.0,0.0,0.0,0.0,5.633,5.5122,5.4119,5.3197,5.1581,4.9184,4.9356,4.882,4.7695,4.3241,3.1201,1.2762,0.7541,0.0895,-0.7011,-1.5337,-2.2972,-2.9985,-3.607,-3.9776,-4.184,-4.5222,-4.684,-4.742,-4.8962,-5.0088,-5.0986,-5.2259,-5.2723,-5.3093,-5.4433,-5.4982,-5.5178,-5.5905,-5.6734,-5.7469,-5.8001,-5.8759,-5.9583,-5.9843,-6.0088,-6.0206,-6.0206,-6.0206,-5.9843,-5.8924,-5.8395,-5.801,-5.7731,-5.7195,-5.6761,-5.6761,-5.6838,-5.73,-5.847,-5.83,-5.847,-5.9639,-5.927,-5.8916,-5.8916,-5.7895,-5.7198,-5.7094,-5.6157,-5.5727,-5.6279,-5.6279,-5.6627,-5.7572,-5.8442,-5.9103,-5.9506,-6.0398,-6.0257,-5.9207,-5.9099,-5.8415,-5.7176,-5.7303,-5.7191,-3.1256,-2.4767,-1.8135,-1.217,-1.0418,-0.9805,-0.8221,-0.7617,-0.7136,0.0,0.0,0.0,0.0,0.0,0.0,0.0,0.0,0.0,0.0,0.0,0.0,0.0,0.0,0.0,0.0,0.0,0.0,0.0,0.0,0.0,5.6891,5.633,5.5385,5.3912,5.2857,5.1839,5.0779,4.888,4.5949,4.183,3.0903,1.8311,0.4229,-0.8916,-1.5424,-1.6877,-2.4408,-3.1072,-3.67,-4.0631,-4.3547,-4.5619,-4.7869,-4.9101,-4.9727,-5.0723,-5.1789,-5.2827,-5.364,-5.4253,-5.472,-5.5523,-5.6139,-5.6676,-5.71,-5.8002,-5.8971,-5.9463,-5.9993,-6.0499,-6.0622,-6.0687,-6.075,-6.075,-6.075,-6.0649,-6.0206,-5.9209,-5.8211,-5.7559,-5.7115,-5.6761,-5.6761,-5.7069,-5.7531,-5.8131,-5.8285,-5.8547,-5.9147,-5.8624,-5.8109,-5.7809,-5.6738,-5.5884,-5.5575,-5.4753,-5.4555,-5.4978,-5.5293,-5.5768,-5.6644,-5.7577,-5.8334,-5.8802,-5.9827,-5.9925,-5.9099,-5.843,-5.764,-5.6851,-5.6851,-5.6851,-3.1372,-2.6672,-2.2062,-1.4018,-1.1877,-1.0896,-0.7402,-0.6641,-0.6401,0.0,0.0,0.0,0.0,0.0,0.0,0.0,0.0,0.0,0.0,0.0,0.0,0.0,0.0,0.0,0.0,0.0,0.0,0.0,0.0,0.0,5.6545,5.6528,5.568,5.3798,5.2926,5.2217,5.15,4.3998,3.7673,3.2363,1.5707,0.2345,-0.8198,-2.307,-2.959,-2.9515,-3.4167,-3.8434,-4.2307,-4.4778,-4.6994,-4.8862,-5.0372,-5.1348,-5.1971,-5.2646,-5.3656,-5.4669,-5.4986,-5.5667,-5.6319,-5.6397,-5.7127,-5.8069,-5.8191,-5.9172,-6.0381,-6.0508,-6.0915,-6.1219,-6.087,-6.097,-6.1102,-6.1102,-6.1102,-6.1019,-6.0835,-5.9668,-5.8395,-5.737,-5.7019,-5.6761,-5.6761,-5.7177,-5.7577,-5.7746,-5.8054,-5.8331,-5.85,-5.7931,-5.7303,-5.6807,-5.5737,-5.4917,-5.4304,-5.38,-5.3605,-5.3904,-5.4421,-5.5053,-5.5954,-5.6859,-5.771,-5.8215,-5.8984,-5.9258,-5.886,-5.8011,-5.7191,-5.6637,-5.6637,-5.6637,-3.6034,-3.4983,-3.2182,-2.0952,-1.7788,-1.5611,-0.8913,0.0,0.0,0.0,0.0,0.0,0.0,0.0,0.0,0.0,0.0,0.0,0.0,0.0,0.0,0.0,0.0,0.0,0.0,0.0,0.0,0.0,0.0,0.0,5.7388,5.6948,5.5798,5.3857,5.3871,5.2413,4.9345,3.1506,2.1423,1.8843,0.0686,-1.4505,-2.6764,-3.0787,-3.8031,-4.7352,-4.4933,-4.4838,-4.6601,-4.9823,-5.1212,-5.1607,-5.4089,-5.4723,-5.4441,-5.5377,-5.6067,-5.652,-5.6674,-5.6904,-5.7147,-5.7406,-5.815,-5.9025,-5.9275,-6.0186,-6.1042,-6.0667,-6.114,-6.1397,-6.0323,-6.0589,-6.1102,-6.1102,-6.1102,-6.0851,-5.993,-5.9298,-5.8562,-5.7668,-5.7131,-5.6761,-5.6761,-5.6792,-5.7038,-5.7669,-5.7254,-5.71,-5.7746,-5.7238,-5.6598,-5.5979,-5.5451,-5.4917,-5.4304,-5.38,-5.3605,-5.3904,-5.4421,-5.4962,-5.5626,-5.6731,-5.7595,-5.7823,-5.8125,-5.8171,-5.8171,-5.8134,-5.7863,-5.7303,-5.7303,-5.7303,-3.6009,-3.5149,-3.366,-2.5736,-2.0345,-1.6278,-1.318,-0.912,0.0,0.0,0.0,0.0,0.0,0.0,0.0,0.0,0.0,0.0,0.0,0.0,0.0,0.0,0.0,0.0,0.0,0.0,0.0,0.0,0.0,0.0,5.6492,5.6811,5.613,5.423,5.3901,4.6306,3.0842,1.2757,0.1707,-0.2533,-1.67,-2.7206,-3.436,-4.3295,-4.9473,-5.3327,-5.2733,-5.1911,-5.1138,-5.2606,-5.3767,-5.4578,-5.573,-5.6064,-5.6076,-5.6564,-5.6904,-5.7281,-5.7887,-5.812,-5.8277,-5.9003,-5.9741,-6.042,-6.1155,-6.1681,-6.2046,-6.189,-6.1795,-6.1578,-6.0854,-6.0904,-6.1102,-6.1102,-6.0835,-6.0479,-5.9843,-5.903,-5.8303,-5.7668,-5.7131,-5.6761,-5.6761,-5.6761,-5.6854,-5.7084,-5.6915,-5.6854,-5.71,-5.6915,-5.6454,-5.5521,-5.5235,-5.4728,-5.3904,-5.3605,-5.3515,-5.3605,-5.4333,-5.4845,-5.525,-5.6191,-5.6708,-5.6595,-5.6787,-5.7259,-5.8126,-5.7444,-5.7078,-5.7303,-5.6851,-5.6964,-3.8117,-3.7764,-3.7024,-3.1379,-2.6233,-2.1451,-1.7201,-1.2395,0.0,0.0,0.0,0.0,0.0,0.0,0.0,0.0,0.0,0.0,0.0,0.0,0.0,0.0,0.0,0.0,0.0,0.0,0.0,0.0,0.0,0.0,5.6237,5.6706,5.3282,4.5127,4.3915,3.3093,1.1572,-0.6203,-1.6826,-2.0272,-3.4519,-4.2319,-4.4533,-5.315,-5.692,-5.6735,-5.7752,-5.6757,-5.46,-5.5349,-5.6101,-5.6938,-5.7379,-5.76,-5.7623,-5.7963,-5.814,-5.8405,-5.9133,-5.9443,-5.9581,-6.0428,-6.1188,-6.1809,-6.2292,-6.2763,-6.3066,-6.2668,-6.2296,-6.1854,-6.1268,-6.1102,-6.1102,-6.1102,-6.0581,-6.0033,-5.9564,-5.8744,-5.7933,-5.748,-5.6923,-5.6567,-5.6567,-5.6567,-5.6567,-5.6664,-5.6664,-5.6664,-5.6761,-5.6649,-5.6145,-5.5235,-5.4932,-5.4421,-5.362,-5.3515,-5.3515,-5.3515,-5.4215,-5.4728,-5.5134,-5.5849,-5.6145,-5.5918,-5.6083,-5.6452,-5.7136,-5.6689,-5.6664,-5.7303,-5.6851,-5.6964,0.0,0.0,0.0,-3.8031,-3.5605,-3.1603,-2.093,0.0,0.0,0.0,0.0,0.0,0.0,0.0,0.0,0.0,0.0,0.0,0.0,0.0,0.0,0.0,0.0,0.0,0.0,0.0,0.0,0.0,0.0,5.7036,5.6794,5.6132,4.6378,2.5807,2.2783,1.2242,-0.7188,-2.5049,-3.3867,-3.3873,-5.2056,-5.9633,-5.7708,-5.9511,-5.9628,-5.8432,-5.9902,-5.9107,-5.691,-5.801,-5.8475,-5.8545,-5.9215,-5.9415,-5.9265,-5.9596,-5.9761,-5.9936,-6.0488,-6.0851,-6.1075,-6.1502,-6.2388,-6.3206,-6.2626,-6.3251,-6.3947,-6.2914,-6.2591,-6.2374,-6.1318,-6.1102,-6.1102,-6.1102,-6.041,-5.9508,-5.8982,-5.8256,-5.7637,-5.718,-5.6537,-5.5979,-5.5979,-5.5979,-5.6077,-5.6372,-5.6372,-5.647,-5.6761,-5.6228,-5.572,-5.5134,-5.4611,-5.4097,-5.3515,-5.3515,-5.3515,-5.3515,-5.4008,-5.4509,-5.5134,-5.562,-5.5918,-5.5918,-5.5951,-5.5797,-5.5321,-5.5998,-5.6708,-5.7274,-5.7289,-5.7303,-4.2828,0.0,0.0,0.0,0.0,0.0,0.0,0.0,0.0,0.0,0.0,0.0,0.0,0.0,0.0,0.0,0.0,0.0,0.0,0.0,0.0,0.0,0.0,0.0,0.0,0.0,0.0,0.0,5.6845,5.6564,5.6492,4.2482,2.5329,0.5508,-0.9588,-2.0548,-2.7178,-4.5185,-5.4621,-5.548,-5.9826,-6.1552,-6.0854,-6.1117,-6.0626,-5.9633,-6.096,-6.0563,-5.9038,-5.9464,-5.9844,-6.0129,-5.999,-6.0164,-6.0441,-6.01,-6.0469,-6.1171,-6.116,-6.1436,-6.2048,-6.2901,-6.3219,-6.3379,-6.3921,-6.4183,-6.4128,-6.3141,-6.2668,-6.2374,-6.1318,-6.1102,-6.1102,-6.1102,-6.0394,-5.958,-5.8982,-5.7886,-5.6877,-5.6603,-5.6244,-5.5979,-5.5979,-5.5979,-5.6077,-5.6077,-5.6274,-5.647,-5.647,-5.613,-5.572,-5.5134,-5.4611,-5.4097,-5.3515,-5.3515,-5.3515,-5.3515,-5.4008,-5.4509,-5.5134,-5.525,-5.535,-5.532,-5.4994,-5.4715,-5.4716,-5.5889,-5.6505,-5.6665,-5.7547,-5.7974,-4.2882,-4.2882,-4.3154,-4.4313,0.0,0.0,0.0,-2.7997,0.0,0.0,0.0,0.0,0.0,0.0,0.0,0.0,0.0,0.0,0.0,0.0,0.0,0.0,0.0,0.0,0.0,0.0,0.0,0.0,4.9177,4.0491,3.2096,2.0101,0.4609,-1.4772,-2.6862,-3.7479,-4.6713,-5.7301,-6.3137,-6.4178,-6.3562,-6.3002,-6.2548,-6.2205,-6.1551,-6.077,-6.1576,-6.1454,-6.0756,-6.0938,-6.1004,-6.0878,-6.074,-6.0861,-6.1099,-6.0757,-6.1131,-6.184,-6.1894,-6.2332,-6.3021,-6.3911,-6.4089,-6.4127,-6.4583,-6.4637,-6.4323,-6.3216,-6.2453,-6.1854,-6.1252,-6.1102,-6.1102,-6.1102,-6.019,-5.9177,-5.868,-5.7402,-5.6311,-5.6213,-5.5849,-5.5681,-5.5681,-5.5681,-5.578,-5.5979,-5.6176,-5.6274,-5.6567,-5.5933,-5.5436,-5.5134,-5.4421,-5.3815,-5.3515,-5.3515,-5.3515,-5.3605,-5.4008,-5.4524,-5.525,-5.5381,-5.5265,-5.5134,-5.4815,-5.4746,-5.4807,-5.5567,-5.6303,-5.7172,-5.7525,-5.7944,-4.2922,-4.2955,-4.3353,-4.4693,0.0,0.0,-3.4736,-3.1568,0.0,0.0,0.0,0.0,0.0,0.0,0.0,0.0,0.0,0.0,0.0,0.0,0.0,0.0,0.0,0.0,0.0,0.0,5.3676,5.4091,3.5279,1.5032,-0.5087,-0.6738,-1.5813,-3.5032,-3.6102,-4.4919,-6.2776,-6.3025,-6.3487,-6.431,-6.45,-6.4082,-6.3196,-6.2827,-6.2289,-6.1624,-6.1902,-6.1911,-6.1781,-6.2228,-6.1969,-6.1252,-6.1448,-6.1523,-6.1386,-6.14,-6.17,-6.2258,-6.2676,-6.3304,-6.3978,-6.4546,-6.4861,-6.4911,-6.4687,-6.4584,-6.434,-6.3141,-6.1946,-6.1003,-6.1086,-6.1102,-6.1102,-6.1102,-5.9984,-5.877,-5.8193,-5.6911,-5.5918,-5.5819,-5.5466,-5.5194,-5.5194,-5.5194,-5.5396,-5.588,-5.5979,-5.6176,-5.6664,-5.575,-5.5134,-5.5134,-5.4126,-5.3515,-5.3515,-5.3515,-5.3605,-5.3904,-5.3904,-5.4421,-5.5581,-5.5581,-5.5365,-5.5134,-5.5033,-5.5025,-5.5307,-5.5276,-5.6301,-5.8126,-5.7576,-5.7591,-4.2941,-4.3371,-4.3788,0.0,0.0,0.0,-4.1386,-3.8152,0.0,0.0,0.0,0.0,0.0,0.0,0.0,0.0,0.0,0.0,0.0,0.0,0.0,0.0,0.0,0.0,0.0,0.0,3.3365,3.1324,1.3779,-0.5546,-2.5569,-2.6671,-3.5617,-5.5139,-5.5959,-5.8199,-6.2638,-6.3197,-6.3737,-6.424,-6.4743,-6.4374,-6.32,-6.3067,-6.2082,-6.0599,-6.2025,-6.1999,-6.1052,-6.2548,-6.2768,-6.2132,-6.1933,-6.1878,-6.1987,-6.205,-6.2545,-6.3306,-6.35,-6.4031,-6.4581,-6.4876,-6.4861,-6.4601,-6.4004,-6.3852,-6.3716,-6.253,-6.1193,-6.0357,-6.0953,-6.1102,-6.1102,-6.1102,-5.9984,-5.877,-5.8193,-5.6911,-5.5834,-5.5365,-5.528,-5.5194,-5.5194,-5.5194,-5.5295,-5.5581,-5.588,-5.6077,-5.647,-5.5651,-5.5134,-5.5134,-5.4126,-5.3515,-5.3515,-5.3515,-5.3605,-5.3904,-5.4097,-5.4626,-5.5581,-5.5381,-5.5265,-5.5134,-5.4215,-5.4289,-5.5126,-5.5264,-5.6301,-5.8126,-5.8005,-5.8025,-4.3074,-4.3172,-4.3498,-4.3498,0.0,0.0,0.0,0.0,0.0,0.0,0.0,0.0,0.0,0.0,0.0,0.0,0.0,0.0,0.0,0.0,0.0,0.0,0.0,0.0,0.0,0.0,0.8931,-0.2463,-1.1923,-2.5857,-4.5805,-4.6864,-5.1359,-6.1189,-6.16,-6.2166,-6.3234,-6.3592,-6.4207,-6.5158,-6.4941,-6.4489,-6.3765,-6.2819,-6.2239,-6.1976,-6.2278,-6.2376,-6.2445,-6.3185,-6.3213,-6.2755,-6.2326,-6.222,-6.224,-6.1781,-6.2456,-6.3466,-6.3206,-6.3791,-6.4724,-6.4792,-6.4792,-6.4566,-6.3811,-6.2979,-6.2152,-6.1637,-6.0729,-6.0175,-6.092,-6.1102,-6.1019,-6.0835,-5.9619,-5.8391,-5.7854,-5.6572,-5.5466,-5.528,-5.5194,-5.5194,-5.5194,-5.5194,-5.5295,-5.578,-5.588,-5.6077,-5.6145,-5.5536,-5.5033,-5.4713,-5.4023,-5.3515,-5.3515,-5.3605,-5.38,-5.4097,-5.4333,-5.4962,-5.578,-5.5381,-5.5179,-5.5134,-5.4318,-5.4406,-5.5521,-5.5565,-5.6444,-5.7967,-5.7693,-5.7764,0.0,0.0,0.0,0.0,0.0,-4.3247,0.0,0.0,0.0,0.0,0.0,0.0,0.0,0.0,0.0,0.0,0.0,0.0,0.0,0.0,0.0,0.0,0.0,0.0,0.0,0.0,-1.5373,-3.5773,-3.6793,-4.3798,-6.0561,-6.1561,-6.1609,-6.1621,-6.167,-6.2344,-6.3682,-6.3856,-6.4603,-6.5893,-6.5048,-6.4465,-6.4123,-6.2648,-6.2442,-6.3289,-6.2621,-6.2956,-6.3922,-6.3792,-6.3538,-6.3213,-6.2672,-6.2467,-6.2399,-6.1767,-6.2342,-6.3387,-6.2987,-6.367,-6.4724,-6.4724,-6.4513,-6.4111,-6.3432,-6.1882,-6.0308,-6.0678,-6.0265,-5.9993,-6.087,-6.1102,-6.1019,-6.0479,-5.9234,-5.8008,-5.7496,-5.6213,-5.5194,-5.5194,-5.5194,-5.5295,-5.5295,-5.5295,-5.5496,-5.5979,-5.5979,-5.5963,-5.5918,-5.532,-5.4815,-5.4304,-5.38,-5.3515,-5.3515,-5.371,-5.4008,-5.4304,-5.4656,-5.5194,-5.5979,-5.5581,-5.5265,-5.5134,-5.4713,-5.4902,-5.5918,-5.5918,-5.6481,-5.7595,-5.7239,-5.7498,0.0,0.0,0.0,0.0,-4.5635,0.0,0.0,0.0,0.0,0.0,0.0,0.0,0.0,0.0,0.0,0.0,0.0,0.0,0.0,0.0,0.0,0.0,0.0,0.0,0.0,0.0,0.0,-5.6563,-5.5241,-5.5831,-6.1367,-6.1678,-6.169,-6.1694,-6.169,-6.209,-6.292,-6.3689,-6.4457,-6.5197,-6.4927,-6.4293,-6.3416,-6.3072,-6.2563,-6.1993,-6.3111,-6.3535,-6.3407,-6.3869,-6.3848,-6.3511,-6.2953,-6.2755,-6.2786,-6.3028,-6.3435,-6.3818,-6.4288,-6.4566,-6.4724,-6.4724,-6.3793,-6.2556,-6.2113,-6.0463,-5.8889,-5.9798,-5.961,-5.9347,-6.0755,-6.1102,-6.1019,-6.0479,-5.9234,-5.8008,-5.7496,-5.6213,-5.5194,-5.5194,-5.5381,-5.5581,-5.5581,-5.5581,-5.578,-5.6274,-5.5979,-5.5666,-5.5918,-5.5003,-5.4406,-5.4304,-5.38,-5.3515,-5.3515,-5.371,-5.4008,-5.4304,-5.4656,-5.5194,-5.5979,-5.5834,-5.562,-5.5134,-5.5033,-5.532,-5.5918,-5.5918,-5.6282,-5.698,-5.7032,-5.7498,0.0,0.0,0.0,0.0,0.0,0.0,-4.4071,0.0,-4.299,0.0,0.0,0.0,0.0,0.0,0.0,0.0,0.0,0.0,0.0,0.0,0.0,0.0,0.0,0.0,0.0,0.0,0.0,0.0,0.0,-5.7031,-6.068,-6.0917,-6.095,-6.095,-6.1444,-6.228,-6.348,-6.3928,-6.4499,-6.5145,-6.4481,-6.3671,-6.2759,-6.2121,-6.2043,-6.2404,-6.2856,-6.335,-6.3898,-6.3915,-6.378,-6.3557,-6.3165,-6.2972,-6.2778,-6.2413,-6.2851,-6.3546,-6.3392,-6.3951,-6.4724,-6.4724,-6.367,-6.2223,-6.1384,-6.0164,-5.9072,-5.9268,-5.9446,-5.9777,-6.0837,-6.1102,-6.0935,-6.0206,-5.9056,-5.7932,-5.7149,-5.6032,-5.5194,-5.5194,-5.5396,-5.5681,-5.578,-5.588,-5.5979,-5.6372,-5.5979,-5.5566,-5.5436,-5.4815,-5.42,-5.3904,-5.3605,-5.35,-5.371,-5.4008,-5.4215,-5.4553,-5.5179,-5.5481,-5.5481,-5.5735,-5.5819,-5.5521,-5.5521,-5.5834,-5.6439,-5.6439,-5.6791,-5.7381,-5.7546,-5.7887,-4.6414,0.0,0.0,0.0,0.0,0.0,0.0,0.0,0.0,0.0,0.0,0.0,0.0,0.0,0.0,0.0,0.0,0.0,0.0,0.0,0.0,0.0,0.0,0.0,0.0,0.0,0.0,0.0,0.0,0.0,-6.0448,-6.0504,-6.0508,-6.0721,-6.1367,-6.2468,-6.4034,-6.3909,-6.4295,-6.5153,-6.3914,-6.2973,-6.2279,-6.1764,-6.201,-6.2901,-6.3123,-6.3653,-6.4292,-6.4,-6.378,-6.3557,-6.3307,-6.3002,-6.2603,-6.2003,-6.2516,-6.3431,-6.2899,-6.346,-6.4408,-6.4408,-6.3269,-6.1636,-6.0696,-5.9904,-5.9208,-5.8985,-5.9348,-5.9994,-6.0737,-6.0835,-6.0479,-5.9684,-5.8712,-5.7668,-5.6877,-5.5948,-5.5194,-5.5295,-5.5481,-5.578,-5.6077,-5.6077,-5.6176,-5.647,-5.6062,-5.5551,-5.5134,-5.4611,-5.4097,-5.3515,-5.362,-5.371,-5.3904,-5.4215,-5.4539,-5.489,-5.5596,-5.578,-5.5194,-5.5849,-5.6032,-5.5918,-5.6017,-5.6342,-5.6761,-5.6946,-5.7392,-5.8054,-5.7943,-5.8301,0.0,0.0,0.0,-4.5991,0.0,0.0,0.0,0.0,-4.2258,0.0,0.0,0.0,0.0,0.0,0.0,0.0,0.0,0.0,0.0,0.0,0.0,0.0,0.0,0.0,0.0,0.0,0.0,0.0,0.0,0.0,-6.1286,-6.085,-6.0756,-6.1545,-6.1658,-6.2493,-6.4171,-6.3351,-6.3663,-6.5083,-6.3238,-6.224,-6.2036,-6.279,-6.3027,-6.2987,-6.4474,-6.4837,-6.4389,-6.4188,-6.3891,-6.3557,-6.3307,-6.2818,-6.2344,-6.2486,-6.3082,-6.3789,-6.3582,-6.3583,-6.3635,-6.3635,-6.2193,-6.0341,-5.9781,-5.922,-5.8715,-5.8844,-5.9087,-5.946,-6.0197,-6.012,-5.958,-5.9168,-5.8195,-5.7323,-5.6781,-5.5948,-5.5295,-5.5581,-5.578,-5.6077,-5.6372,-5.6372,-5.647,-5.6761,-5.6244,-5.572,-5.5134,-5.4611,-5.4097,-5.3515,-5.371,-5.3904,-5.3904,-5.4451,-5.489,-5.5194,-5.5681,-5.578,-5.5194,-5.6176,-5.6552,-5.5918,-5.6439,-5.6761,-5.6761,-5.7423,-5.8085,-5.8747,-5.8156,-5.8624,0.0,0.0,-5.1804,-4.7709,0.0,0.0,0.0,0.0,0.0,0.0,0.0,0.0,0.0,0.0,0.0,0.0,0.0,0.0,0.0,0.0,0.0,0.0,0.0,0.0,0.0,0.0,0.0,0.0,0.0,0.0,0.0,-6.0437,-6.0431,-6.0788,-6.1385,-6.2213,-6.326,-6.2976,-6.3019,-6.3367,-6.2643,-6.2219,-6.207,-6.2257,-6.2847,-6.3723,-6.3994,-6.4225,-6.4331,-6.4023,-6.3691,-6.3307,-6.3213,-6.2718,-6.2023,-6.1888,-6.2433,-6.3342,-6.4083,-6.4337,-6.425,-6.3758,-6.2525,-6.0999,-5.9918,-5.9525,-5.9319,-5.8976,-5.9696,-6.0437,-6.0414,-6.0001,-5.9459,-5.8669,-5.7621,-5.675,-5.6296,-5.575,-5.5481,-5.5581,-5.5979,-5.6274,-5.6372,-5.6244,-5.613,-5.6228,-5.5421,-5.4815,-5.4611,-5.4112,-5.3815,-5.3815,-5.3815,-5.4023,-5.4466,-5.489,-5.5093,-5.5194,-5.5681,-5.588,-5.578,-5.6372,-5.6664,-5.6537,-5.6664,-5.6977,-5.7423,-5.7654,-5.8347,-5.9455,-5.9236,-5.9604,-5.2843,-5.3727,0.0,-5.0356,-5.0064,0.0,-4.4913,0.0,0.0,0.0,0.0,0.0,0.0,0.0,0.0,0.0,0.0,0.0,0.0,0.0,0.0,0.0,0.0,0.0,0.0,0.0,0.0,0.0,0.0,0.0,0.0,0.0,-6.0387,-6.0809,-6.1373,-6.2025,-6.2784,-6.2493,-6.2371,-6.2416,-6.2335,-6.2176,-6.1973,-6.2503,-6.3169,-6.393,-6.3968,-6.4048,-6.4131,-6.3891,-6.3557,-6.3165,-6.2984,-6.2446,-6.175,-6.1544,-6.186,-6.2458,-6.3509,-6.383,-6.3708,-6.3021,-6.1848,-6.0578,-5.9521,-5.9268,-5.9326,-5.8963,-5.9697,-6.0479,-6.0001,-5.9355,-5.8621,-5.7824,-5.6957,-5.628,-5.6017,-5.575,-5.5581,-5.5681,-5.6077,-5.647,-5.6567,-5.6047,-5.572,-5.5918,-5.5119,-5.4509,-5.4289,-5.4008,-5.38,-5.3904,-5.4008,-5.4333,-5.489,-5.5093,-5.5194,-5.5194,-5.5681,-5.5979,-5.5979,-5.647,-5.6869,-5.7115,-5.6884,-5.7223,-5.8131,-5.8131,-5.8701,-5.9793,-6.004,-6.0378]},{"header":{"parameterUnit":"m.s-1","parameterCategory":1,"la1":30.6,"la2":29.2853,"lo1":-89.7004,"lo2":-87.6739,"dx":0.0162,"dy":0.0183,"nx":112,"ny":82,"refTime":"2022-11-23T18:00:00:Z","depth":0,"parameterNumber":3,"parameterNumberName":"V-component_of_WINDS"},"data":[0.0,0.0,0.0,0.0,0.0,0.0,0.0,0.0,0.0,0.0,0.0,0.0,0.0,0.0,0.0,0.0,0.0,0.0,0.0,0.0,0.0,0.0,0.0,0.0,0.0,0.0,0.0,0.0,0.0,0.0,0.0,0.0,0.0,0.0,0.0,0.0,0.0,0.0,0.0,0.0,0.0,0.0,0.0,0.0,0.0,0.0,0.0,0.0,0.0,0.0,0.0,0.0,0.0,0.0,0.0,0.0,0.0,0.0,0.0,0.0,0.0,0.0,0.0,0.0,0.0,0.0,0.0,0.0,0.0,0.0,0.0,0.0,0.0,0.0,0.0,0.0,0.0,0.0,0.0,0.0,0.0,0.0,0.0,0.0,0.0,0.0,0.0,0.0,0.0,0.0,0.0,-3.1937,-4.4494,-5.2447,-5.1953,-5.1427,-4.4731,-2.9794,0.0,0.0,0.0,0.0,0.0,0.0,0.0,0.0,0.0,0.0,0.0,0.0,0.0,0.0,0.0,0.0,0.0,0.0,0.0,0.0,0.0,0.0,0.0,0.0,0.0,0.0,0.0,0.0,0.0,0.0,0.0,0.0,0.0,0.0,0.0,0.0,0.0,0.0,0.0,0.0,0.0,0.0,0.0,0.0,0.0,0.0,0.0,0.0,0.0,0.0,0.0,0.0,0.0,0.0,0.0,0.0,0.0,0.0,0.0,0.0,0.0,0.0,0.0,0.0,0.0,0.0,0.0,0.0,0.0,0.0,0.0,0.0,0.0,0.0,0.0,0.0,0.0,0.0,0.0,0.0,0.0,0.0,0.0,0.0,0.0,0.0,0.0,0.0,0.0,0.0,0.0,0.0,0.0,0.0,0.0,0.0,0.0,0.0,0.0,0.0,0.0,0.0,0.0,0.0,-3.3474,-4.7099,-5.0594,-5.2087,-5.2448,-5.1123,-4.4201,-2.9964,0.0,0.0,0.0,0.0,0.0,0.0,0.0,0.0,0.0,0.0,0.0,0.0,0.0,0.0,0.0,0.0,0.0,0.0,0.0,0.0,0.0,0.0,0.0,0.0,0.0,0.0,0.0,0.0,0.0,0.0,0.0,0.0,0.0,0.0,0.0,0.0,0.0,0.0,0.0,0.0,0.0,0.0,0.0,0.0,0.0,0.0,0.0,0.0,0.0,0.0,0.0,0.0,0.0,0.0,0.0,0.0,0.0,0.0,0.0,0.0,0.0,0.0,0.0,0.0,0.0,0.0,0.0,0.0,0.0,0.0,0.0,0.0,0.0,0.0,0.0,0.0,0.0,0.0,0.0,0.0,0.0,0.0,0.0,0.0,0.0,0.0,0.0,0.0,0.0,0.0,0.0,0.0,0.0,0.0,0.0,0.0,0.0,0.0,0.0,0.0,0.0,0.0,0.0,-2.6138,-3.4329,-4.9903,-5.2028,-5.2309,-5.2169,-5.1274,-4.4861,-3.1106,-3.0479,0.0,0.0,0.0,0.0,0.0,0.0,0.0,0.0,0.0,0.0,0.0,0.0,0.0,0.0,0.0,0.0,0.0,0.0,0.0,0.0,0.0,0.0,0.0,0.0,0.0,0.0,0.0,0.0,0.0,0.0,0.0,0.0,0.0,0.0,0.0,0.0,0.0,0.0,0.0,0.0,0.0,0.0,0.0,0.0,0.0,0.0,0.0,0.0,0.0,0.0,0.0,0.0,0.0,0.0,0.0,0.0,0.0,0.0,0.0,0.0,0.0,0.0,0.0,0.0,0.0,0.0,0.0,0.0,0.0,0.0,0.0,0.0,0.0,0.0,0.0,0.0,0.0,0.0,0.0,0.0,0.0,0.0,0.0,0.0,0.0,0.0,0.0,0.0,0.0,0.0,0.0,0.0,0.0,0.0,0.0,0.0,0.0,0.0,0.0,0.0,0.0,0.0,-3.087,-3.7763,-4.9432,-5.1359,-5.1718,-5.1544,-5.1101,-4.5243,-3.2022,-3.1263,0.0,0.0,0.0,0.0,0.0,0.0,0.0,0.0,0.0,0.0,0.0,0.0,0.0,0.0,0.0,0.0,0.0,0.0,0.0,0.0,0.0,0.0,0.0,0.0,0.0,0.0,0.0,0.0,0.0,0.0,0.0,0.0,0.0,0.0,0.0,0.0,0.0,0.0,0.0,0.0,0.0,0.0,0.0,0.0,0.0,0.0,0.0,0.0,0.0,0.0,0.0,0.0,0.0,0.0,0.0,0.0,0.0,0.0,0.0,0.0,0.0,0.0,0.0,0.0,0.0,0.0,0.0,0.0,0.0,0.0,0.0,0.0,0.0,0.0,0.0,0.0,0.0,0.0,0.0,0.0,0.0,0.0,0.0,0.0,0.0,0.0,0.0,0.0,0.0,0.0,0.0,0.0,0.0,0.0,0.0,0.0,0.0,0.0,0.0,0.0,0.0,0.0,-3.9622,-4.8223,-4.9327,-4.9062,-4.9325,-5.0582,-4.9956,-4.4235,-3.1869,-3.15,0.0,0.0,0.0,0.0,0.0,0.0,0.0,0.0,0.0,0.0,0.0,0.0,0.0,0.0,0.0,0.0,0.0,0.0,0.0,0.0,0.0,0.0,0.0,0.0,0.0,0.0,0.0,0.0,0.0,0.0,0.0,0.0,0.0,0.0,0.0,0.0,0.0,0.0,0.0,0.0,0.0,0.0,0.0,0.0,0.0,0.0,0.0,0.0,0.0,0.0,0.0,0.0,0.0,0.0,0.0,0.0,0.0,0.0,0.0,0.0,0.0,0.0,0.0,0.0,0.0,0.0,0.0,0.0,0.0,0.0,0.0,0.0,0.0,0.0,0.0,0.0,0.0,0.0,0.0,0.0,0.0,0.0,0.0,0.0,0.0,0.0,0.0,0.0,0.0,0.0,0.0,0.0,0.0,0.0,0.0,0.0,0.0,0.0,0.0,0.0,0.0,0.0,-3.6761,-4.4371,0.0,-4.8935,-4.9458,-4.9324,-4.9622,-4.4687,-3.2566,0.0,0.0,0.0,0.0,0.0,0.0,0.0,0.0,0.0,0.0,0.0,0.0,0.0,0.0,0.0,0.0,0.0,0.0,0.0,0.0,0.0,0.0,0.0,0.0,0.0,0.0,0.0,0.0,0.0,0.0,0.0,0.0,0.0,0.0,0.0,0.0,0.0,0.0,0.0,0.0,0.0,0.0,0.0,0.0,0.0,0.0,0.0,0.0,0.0,0.0,0.0,0.0,0.0,0.0,0.0,0.0,0.0,0.0,0.0,0.0,0.0,0.0,0.0,0.0,0.0,0.0,0.0,0.0,0.0,0.0,0.0,0.0,0.0,0.0,0.0,0.0,0.0,0.0,0.0,0.0,0.0,0.0,0.0,0.0,0.0,0.0,0.0,0.0,0.0,0.0,0.0,0.0,0.0,0.0,0.0,0.0,0.0,0.0,0.0,0.0,0.0,0.0,-2.7514,-3.6341,-4.3764,0.0,-4.8649,-4.905,-4.8839,-4.9475,-4.4911,-3.3091,0.0,0.0,0.0,0.0,0.0,0.0,0.0,0.0,0.0,0.0,0.0,0.0,0.0,0.0,0.0,0.0,0.0,0.0,0.0,0.0,0.0,0.0,0.0,0.0,0.0,0.0,0.0,0.0,0.0,0.0,0.0,0.0,0.0,0.0,0.0,0.0,0.0,0.0,0.0,0.0,0.0,0.0,0.0,0.0,0.0,0.0,0.0,0.0,0.0,0.0,0.0,0.0,0.0,0.0,0.0,0.0,0.0,0.0,0.0,0.0,0.0,0.0,0.0,0.0,0.0,0.0,0.0,0.0,0.0,0.0,0.0,0.0,0.0,0.0,0.0,0.0,0.0,0.0,0.0,0.0,0.0,0.0,0.0,0.0,0.0,0.0,0.0,0.0,0.0,0.0,0.0,0.0,0.0,0.0,0.0,0.0,0.0,0.0,0.0,0.0,0.0,0.0,-2.8844,-4.0531,-4.8936,-4.886,-4.7918,-4.7853,-4.9377,-4.9517,-4.4689,0.0,0.0,0.0,0.0,0.0,0.0,0.0,0.0,0.0,0.0,0.0,0.0,0.0,0.0,0.0,0.0,0.0,0.0,0.0,0.0,0.0,0.0,0.0,0.0,0.0,0.0,0.0,0.0,0.0,0.0,0.0,0.0,0.0,0.0,0.0,0.0,0.0,0.0,0.0,0.0,0.0,0.0,0.0,0.0,0.0,0.0,0.0,0.0,0.0,0.0,0.0,0.0,0.0,0.0,0.0,0.0,0.0,0.0,0.0,0.0,0.0,0.0,0.0,0.0,0.0,0.0,0.0,0.0,0.0,0.0,0.0,0.0,0.0,0.0,0.0,0.0,0.0,0.0,0.0,0.0,0.0,0.0,0.0,0.0,0.0,0.0,0.0,0.0,0.0,0.0,0.0,0.0,0.0,0.0,0.0,0.0,0.0,0.0,0.0,0.0,0.0,0.0,0.0,-2.9064,-4.1415,-4.9791,-4.8525,-4.8634,-4.8729,-4.8624,-4.912,-4.4334,-3.2276,0.0,0.0,0.0,0.0,0.0,0.0,0.0,0.0,0.0,0.0,0.0,0.0,0.0,0.0,0.0,0.0,0.0,0.0,0.0,0.0,0.0,0.0,0.0,0.0,0.0,0.0,0.0,0.0,0.0,0.0,0.0,0.0,0.0,0.0,0.0,0.0,0.0,0.0,0.0,0.0,0.0,0.0,0.0,0.0,0.0,0.0,0.0,0.0,0.0,0.0,0.0,0.0,0.0,0.0,0.0,0.0,0.0,0.0,0.0,0.0,0.0,0.0,0.0,0.0,0.0,0.0,0.0,0.0,0.0,0.0,0.0,0.0,0.0,0.0,0.0,0.0,0.0,0.0,0.0,0.0,0.0,0.0,0.0,0.0,0.0,0.0,0.0,0.0,0.0,0.0,0.0,0.0,0.0,0.0,0.0,0.0,0.0,0.0,0.0,0.0,0.0,0.0,-2.9703,-4.2052,-5.0422,-4.9218,-4.9548,-4.9786,-4.9478,-4.9614,-4.5707,-3.6133,0.0,0.0,0.0,0.0,0.0,0.0,0.0,0.0,0.0,0.0,0.0,0.0,0.0,0.0,0.0,0.0,0.0,0.0,0.0,0.0,0.0,0.0,0.0,0.0,0.0,0.0,0.0,0.0,0.0,0.0,0.0,0.0,0.0,0.0,0.0,0.0,0.0,0.0,0.0,0.0,0.0,0.0,0.0,0.0,0.0,0.0,0.0,0.0,0.0,0.0,0.0,0.0,0.0,0.0,0.0,0.0,0.0,0.0,0.0,0.0,0.0,0.0,0.0,0.0,0.0,0.0,0.0,0.0,0.0,0.0,0.0,0.0,0.0,0.0,0.0,0.0,0.0,0.0,0.0,0.0,0.0,0.0,0.0,0.0,0.0,0.0,0.0,0.0,0.0,0.0,0.0,0.0,0.0,0.0,0.0,0.0,0.0,0.0,0.0,0.0,0.0,0.0,-3.0719,-4.2436,-5.0731,-5.0377,-5.0569,-5.0909,-5.1312,-5.0741,-4.8079,-4.2647,0.0,0.0,0.0,0.0,0.0,0.0,0.0,0.0,0.0,0.0,0.0,0.0,0.0,0.0,0.0,0.0,0.0,0.0,0.0,0.0,0.0,0.0,0.0,0.0,0.0,0.0,0.0,0.0,0.0,0.0,0.0,0.0,0.0,0.0,0.0,0.0,0.0,0.0,0.0,0.0,0.0,0.0,0.0,0.0,0.0,0.0,0.0,0.0,0.0,0.0,0.0,0.0,0.0,0.0,0.0,0.0,0.0,0.0,0.0,0.0,-0.1948,0.0,0.0,0.0,0.0,0.0,0.0,0.0,0.0,0.0,0.0,0.0,0.0,0.0,0.0,0.0,0.0,0.0,0.0,0.0,0.0,0.0,0.0,0.0,0.0,0.0,0.0,0.0,0.0,0.0,0.0,0.0,0.0,0.0,0.0,0.0,0.0,0.0,0.0,0.0,0.0,0.0,-3.2293,-4.3178,-5.0861,-5.0747,-5.1297,-5.1621,-5.1518,-5.1879,-4.933,-4.276,-4.114,0.0,0.0,0.0,0.0,0.0,0.0,0.0,0.0,0.0,0.0,0.0,0.0,0.0,0.0,0.0,0.0,0.0,0.0,0.0,0.0,0.0,0.0,0.0,0.0,0.0,0.0,0.0,0.0,0.0,0.0,0.0,0.0,0.0,0.0,0.0,0.0,0.0,0.0,0.0,0.0,0.0,0.0,0.0,0.0,0.0,0.0,0.0,0.0,0.0,0.0,0.0,0.0,0.0,0.0,0.0,0.0,0.0,0.0,0.0,0.0,-0.2481,0.0,0.0,0.0,0.0,0.0,0.0,0.0,0.0,0.0,0.0,0.0,0.0,0.0,0.0,0.0,0.0,0.0,0.0,0.0,0.0,0.0,0.0,0.0,0.0,0.0,0.0,0.0,0.0,0.0,0.0,0.0,0.0,0.0,0.0,0.0,0.0,0.0,0.0,0.0,0.0,-3.3028,-4.3979,-5.1653,-5.1662,-5.1812,-5.2197,-5.2785,-5.2517,-5.1012,-4.8048,-4.4813,0.0,0.0,0.0,0.0,0.0,0.0,0.0,0.0,0.0,0.0,0.0,0.0,0.0,0.0,0.0,0.0,0.0,0.0,0.0,0.0,0.0,0.0,0.0,0.0,0.0,0.0,0.0,0.0,0.0,0.0,0.0,0.0,0.0,0.0,0.0,0.0,0.0,0.0,0.0,0.0,0.0,0.0,0.0,0.0,0.0,0.0,0.0,0.0,0.0,0.0,0.0,0.0,0.0,0.3201,0.2937,0.1846,0.1411,0.1853,0.2794,0.0291,-0.048,-0.0251,0.0,0.0,0.0,0.0,0.0,0.0,0.0,0.0,0.0,0.0,0.0,0.0,0.0,0.0,0.0,0.0,0.0,0.0,0.0,0.0,0.0,0.0,0.0,0.0,0.0,-4.0838,-4.3811,0.0,0.0,0.0,0.0,0.0,0.0,0.0,0.0,0.0,0.0,0.0,0.0,-3.5147,-4.5347,-5.2426,-5.2433,-5.2433,-5.2951,-5.3985,-5.3161,-5.2854,-5.3709,-4.8446,-4.46,0.0,0.0,0.0,0.0,0.0,0.0,0.0,0.0,0.0,0.0,0.0,0.0,0.0,0.0,0.0,0.0,0.0,0.0,0.0,0.0,0.0,0.0,0.0,0.0,0.0,0.0,0.0,0.0,0.0,0.0,0.0,0.0,1.8236,1.8425,0.0,0.0,0.0,0.0,0.0,0.0,0.0,0.0,0.0,0.0,0.0,0.0,0.0,0.0,0.5029,0.5856,0.5817,0.4989,0.6786,0.7116,0.6134,0.5682,0.525,0.452,0.3007,0.0,-0.0067,-0.114,0.0,0.0,0.0,0.0,0.0,0.0,0.0,0.0,0.0,0.0,0.0,0.0,0.0,0.0,0.0,0.0,0.0,0.0,0.0,0.0,0.0,0.0,-4.7188,-4.9531,-5.2278,-5.4376,0.0,-4.5277,-3.663,-3.5414,-3.4585,0.0,0.0,0.0,0.0,0.0,0.0,0.0,-4.2474,-4.8651,-5.2393,-5.2599,-5.3734,-5.4311,-5.4008,-5.4621,-5.4679,-5.3986,-5.3131,-4.9941,-4.398,-4.2655,0.0,0.0,0.0,0.0,0.0,0.0,0.0,0.0,0.0,0.0,0.0,0.0,0.0,0.0,0.0,0.0,0.0,0.0,0.0,0.0,0.0,0.0,0.0,0.0,0.0,0.0,0.0,0.0,0.0,1.4504,1.5565,1.5643,1.3664,1.1105,0.0,0.0,0.0,0.0,0.0,0.0,0.0,0.0,0.0,0.7423,0.6657,0.6695,0.7553,0.7663,0.7766,0.7885,0.8305,0.8594,0.8711,0.7224,0.6133,0.5295,0.3759,0.185,-0.0296,-0.1609,-0.3125,-0.4757,0.0,0.0,0.0,0.0,-0.8784,-0.9053,-1.1699,-1.2468,0.0,-1.3694,0.0,0.0,0.0,0.0,0.0,0.0,0.0,0.0,0.0,0.0,0.0,-5.3739,-5.6175,-5.7463,-5.8551,-5.4083,-4.8383,0.0,-3.9307,-3.4337,-2.6835,0.0,0.0,0.0,0.0,0.0,-4.4815,-5.0105,-5.3708,-5.4147,-5.4685,-5.5359,-5.5928,-5.5877,-5.5942,-5.6138,-5.5451,-5.3668,-5.0445,-4.6735,-4.2335,0.0,0.0,0.0,0.0,0.0,0.0,0.0,0.0,0.0,0.0,0.0,0.0,0.0,0.0,0.0,0.0,0.0,0.0,0.0,0.0,0.0,0.0,0.0,0.0,0.0,0.0,0.0,0.0,1.4508,1.5374,1.4621,1.4742,1.312,0.0,0.0,0.0,0.0,0.0,0.0,0.7754,0.734,0.7811,0.934,0.9043,0.915,0.9791,0.9435,0.9435,0.9814,0.9299,0.9221,0.959,0.771,0.6362,0.5652,0.4078,0.2157,-0.0,-0.1611,-0.2683,-0.3642,-0.5395,-0.6524,-0.735,-0.868,-0.8521,-0.8219,-1.2164,-1.2868,-1.2318,-1.4356,0.0,-1.6978,-1.8407,0.0,0.0,0.0,0.0,-3.3952,-4.3881,-4.7163,-4.9565,-5.629,-5.8614,-5.9522,-6.0222,-5.8915,-5.6071,0.0,-4.61,-4.0478,-3.2589,0.0,0.0,0.0,0.0,-4.6092,-4.797,-5.195,-5.4964,-5.5734,-5.5864,-5.6481,-5.7767,-5.7135,-5.7015,-5.7851,-5.6876,-5.626,-5.6124,-5.1398,-4.8186,-4.6932,0.0,0.0,0.0,0.0,0.0,0.0,0.0,0.0,0.0,0.0,0.0,0.0,0.0,0.0,0.0,0.0,0.0,0.0,0.0,0.0,0.0,0.0,0.0,0.0,0.0,0.0,0.0,0.0,0.0,1.9482,2.0338,0.0,0.0,0.0,0.0,1.2205,1.1377,1.1032,1.1303,1.0756,1.0964,1.2124,1.1647,1.1318,1.1247,1.0872,1.0369,0.9865,1.0122,0.9615,0.8342,0.7571,0.6679,0.5661,0.4123,0.2706,0.1285,0.0249,-0.1924,-0.4689,-0.4826,-0.6036,-0.7729,-0.8343,-0.8931,-0.9586,-1.1287,-1.2729,-1.3702,-1.4028,-1.5376,-1.7392,-2.0599,-2.2553,0.0,0.0,-3.8053,-4.2118,-5.0211,-5.5069,-5.8234,-5.9631,-6.1479,-6.2797,-6.2285,-5.6691,-5.2997,0.0,-5.7648,-5.4972,-4.773,0.0,-4.6413,-4.6027,-4.568,-4.7874,-5.439,-5.5296,-5.5816,-5.6857,-5.7374,-5.8022,-5.8734,-5.8396,-5.8067,-5.7934,-5.7834,-5.7885,-5.8052,-5.7458,-5.4338,-4.8164,-4.7088,0.0,0.0,0.0,0.0,0.0,0.0,0.0,0.0,0.0,0.0,0.0,0.0,0.0,0.0,0.0,0.0,0.0,0.0,0.0,0.0,0.0,0.0,0.0,0.0,0.0,0.0,0.0,0.0,1.7981,2.0045,0.0,0.0,1.6508,1.6111,1.4251,1.4887,1.4995,1.4052,1.3252,1.2516,1.2178,1.1471,1.0916,1.0287,0.9767,1.0032,1.1084,1.0653,1.0429,1.0551,0.901,0.7698,0.656,0.4081,0.2092,0.0523,-0.039,-0.1812,-0.3428,-0.3857,-0.4559,-0.544,-0.6581,-0.7226,-0.8119,-1.0852,-1.2658,-1.4279,-1.7122,-2.0046,-2.2845,-2.532,-2.8602,-3.3045,-4.0362,-4.4591,-4.8591,-5.6092,-5.9108,-6.0538,-6.1848,-6.2367,-6.2416,-6.1888,-5.9301,-5.7521,-5.8951,-5.5574,-5.1526,-4.8663,-5.1395,-5.2368,-4.77,-5.0103,-5.3327,-5.5857,-5.6589,-5.7189,-5.7864,-5.8719,-5.9554,-6.0136,-5.9821,-5.9712,-5.9927,-5.9498,-5.9317,-5.9383,-5.9014,-5.7666,-5.5371,-5.4905,-4.8738,0.0,0.0,0.0,0.0,0.0,0.0,0.0,0.0,0.0,0.0,0.0,0.0,0.0,0.0,0.0,0.0,0.0,0.0,0.0,0.0,0.0,0.0,0.0,0.0,0.0,0.0,2.1075,1.6673,2.0144,2.1141,1.6784,1.826,1.8751,1.6961,1.7644,1.7472,1.6024,1.4828,1.3765,1.2588,1.1822,1.1244,1.0591,1.0056,1.046,1.1676,1.0965,1.0873,1.1138,0.9278,0.7929,0.6889,0.4044,0.187,0.0134,-0.0665,-0.1583,-0.2484,-0.3252,-0.3906,-0.4445,-0.6132,-0.7036,-0.8067,-1.2047,-1.3975,-1.5519,-1.9929,-2.3089,-2.5481,-2.837,-3.2826,-3.8169,-4.4352,-4.8994,-5.3554,-5.9453,-6.1541,-6.2348,-6.338,-6.321,-6.2661,-6.2098,-6.1422,-6.0723,-6.0142,-5.6133,-5.2724,-5.2115,-5.5297,-5.5568,-4.8618,-5.2605,-5.5824,-5.4145,-5.6266,-5.8314,-5.9269,-5.997,-6.062,-6.1223,-5.8494,-5.8099,-6.1119,-5.8411,-5.7969,-6.0792,-5.7736,-5.6221,-5.6703,-5.5861,-5.0196,-3.9477,0.0,0.0,0.0,0.0,0.0,0.0,0.0,0.0,0.0,0.0,0.0,0.0,0.0,0.0,0.0,0.0,0.0,0.0,0.0,0.0,0.0,0.0,0.0,1.8329,2.0118,2.0377,1.6435,2.1177,2.3187,1.9273,2.0549,2.131,2.0516,1.937,1.8149,1.712,1.5767,1.4563,1.3637,1.2851,1.2395,1.228,1.2142,1.2,1.1586,1.1172,1.0757,0.9929,0.8534,0.7418,0.6575,0.4006,0.2062,0.0549,-0.0271,-0.1213,-0.2289,-0.3315,-0.4121,-0.4977,-0.7247,-0.8579,-1.0031,-1.474,-1.6597,-1.7507,-2.2381,-2.4001,-2.4893,-2.9711,-3.4858,-4.0207,-4.53,-5.1345,-5.6951,-6.0298,-6.2591,-6.4091,-6.4261,-6.4145,-6.3809,-6.3132,-6.2497,-6.1858,-6.1283,-6.0657,-5.9929,-5.9091,-5.863,-5.6228,-4.985,-5.3391,0.0,-5.0074,-5.4727,-5.9134,-6.0806,-6.0768,-6.088,-6.1568,-5.4401,-5.3224,-6.1165,-5.4666,-5.4174,-6.2249,-5.437,-5.0517,-5.1803,-4.9594,-4.804,-4.7221,0.0,0.0,0.0,0.0,0.0,0.0,0.0,0.0,0.0,0.0,0.0,0.0,0.0,0.0,0.0,0.0,0.0,0.0,0.0,0.0,0.0,0.0,2.2665,2.1083,2.3413,2.4426,2.23,2.3267,2.3361,2.1358,2.1704,2.1314,1.9938,1.8589,1.7691,1.7254,1.5361,1.4053,1.3604,1.2793,1.2035,1.1335,1.1054,1.1054,1.1196,1.077,1.0203,0.9487,0.8401,0.7235,0.5819,0.4341,0.2786,0.1393,0.0695,-0.0693,-0.2213,-0.2161,-0.2834,-0.4094,-0.6802,-1.0627,-1.4647,-1.6937,-1.868,-2.0385,-2.4322,-2.6436,-2.8587,-3.4104,-3.9943,-4.5815,-5.1238,-5.6474,-6.098,-6.3757,-6.4785,-6.5006,-6.466,-6.4064,-6.3535,-6.3392,-6.3021,-6.2774,-6.294,-6.2731,-6.1953,-6.0317,-5.9227,-5.7868,-5.5979,-5.7013,0.0,-5.6088,-5.8395,-5.8369,-5.3597,-5.3411,-5.3632,-5.3892,-5.1966,-5.3985,-6.1408,-6.0391,-6.0494,-6.2821,-5.9807,-5.7729,-5.7012,-5.0661,-4.7496,0.0,0.0,0.0,0.0,0.0,0.0,0.0,0.0,0.0,0.0,0.0,0.0,0.0,0.0,0.0,0.0,0.0,0.0,0.0,0.0,0.0,0.0,2.4443,2.5233,2.4461,2.5694,2.6083,2.4663,2.4016,2.3213,2.1962,2.1363,2.051,1.929,1.8162,1.7261,1.6825,1.5092,1.4053,1.3725,1.2611,1.1803,1.1312,1.074,1.0455,1.0311,1.0455,0.9879,0.8726,0.8222,0.7046,0.0,0.4117,0.2684,0.1272,0.0422,-0.0841,0.0,0.0,0.0,0.0,0.0,-1.2403,-1.6591,-1.7948,-1.9941,-2.2421,-2.6096,-2.9012,-3.2068,-3.7244,-4.3443,-4.9668,-5.4073,-5.8915,-6.319,-6.5263,-6.5475,-6.5153,-6.506,-6.4252,-6.3579,-6.3874,-6.3615,-6.3334,-6.3525,-6.3351,0.0,-6.176,-6.0572,-5.8746,-5.5511,-5.7303,-5.8158,-5.5911,-5.867,-5.9389,-5.5682,-5.5441,-5.5613,-5.5782,-5.2903,0.0,0.0,0.0,-5.7532,-5.717,-5.718,0.0,0.0,0.0,0.0,0.0,0.0,0.0,0.0,-4.1511,-3.995,0.0,0.0,0.0,0.0,0.0,0.0,0.0,0.0,0.0,0.0,0.0,0.0,0.0,0.0,0.0,0.0,2.7723,2.849,2.7532,2.6988,2.6,2.4616,2.3894,2.2937,2.1701,2.0436,1.9406,1.8548,1.7658,1.6828,1.5924,0.0,0.0,0.0,0.0,1.1603,1.1459,1.074,1.0167,0.9304,1.0023,0.959,0.8152,0.7998,0.6982,0.5238,0.3884,0.2292,0.0573,-0.0283,-0.1409,-0.2533,-0.3655,-0.5192,-0.7141,-1.0767,-1.4212,-1.7344,-1.844,0.0,0.0,-2.784,-3.1484,-3.5413,-4.0001,-4.6372,-5.2498,-5.5479,-5.9993,-6.4244,-6.5586,-6.5388,-6.494,-6.5444,-6.4642,-6.3911,-6.4584,-6.4292,-6.3896,-6.3706,-6.3476,-6.3205,-6.3279,-6.2322,-5.9319,-5.2647,-5.6474,-5.832,-5.3523,-5.7523,-6.1026,-6.1402,0.0,0.0,-6.1498,-5.5083,-5.45,-6.2582,-5.6027,-5.1405,-5.031,-5.1718,-5.1307,-4.8634,-4.8937,-5.1765,-5.7139,-5.6274,-5.5637,-5.4854,-4.2941,-4.0517,0.0,0.0,0.0,0.0,0.0,0.0,0.0,0.0,0.0,0.0,0.0,0.0,0.0,0.0,0.0,2.6698,2.7439,2.778,2.7078,2.6363,2.5621,2.4569,2.4171,2.327,2.1785,2.091,1.9623,1.7525,1.6124,1.5138,1.471,1.3498,0.0,1.2602,1.189,1.1172,1.0311,1.0452,1.0167,0.9304,0.0,0.0,0.8584,0.7568,0.6843,0.5972,0.4362,0.2324,0.0145,-0.0,-0.1448,-0.3759,-0.5285,-0.7237,-0.9352,-1.2429,-1.6129,-1.9898,-2.0191,-2.2869,-2.6703,-2.9129,-3.2903,-3.7794,-4.4857,-5.0496,0.0,-6.0139,-6.3342,-6.5555,-6.6577,-6.6174,-6.5593,-6.5914,-6.5256,-6.4749,-6.5307,-6.5413,-6.5402,-6.5474,-6.5377,-6.4973,-6.389,-6.2775,-6.1518,-6.0272,-6.1019,-6.133,-6.0316,-6.1673,-6.0421,-5.4537,-5.3919,-5.3955,-5.4039,-5.2755,-5.5198,-6.2942,-6.1343,-5.9536,-5.8072,-5.8331,-5.7973,-5.6741,-5.6575,-5.6886,-5.7735,-5.7197,-5.643,-5.5295,-5.234,-5.1483,0.0,0.0,0.0,0.0,0.0,0.0,0.0,0.0,0.0,0.0,0.0,2.4849,2.6004,0.0,2.7541,2.865,2.7902,2.6896,2.6127,2.4966,2.4105,2.3991,2.3832,2.3154,2.1519,2.044,1.9096,1.7202,1.5702,1.4643,1.3887,1.2835,1.202,1.1596,1.0884,1.0167,0.959,0.959,0.9449,0.9304,0.9735,0.9443,0.8721,0.7853,0.6839,0.5535,0.3642,0.1749,-0.0146,-0.1167,-0.2187,-0.335,-0.635,-0.8619,-1.0469,-1.3827,-1.7388,-2.0605,-2.0213,-2.3833,-2.898,-3.0882,-3.5484,-4.1554,-4.8316,-5.3422,-5.7895,-6.2372,-6.4967,-6.6652,-6.7521,-6.7147,-6.659,-6.6786,-6.6162,-6.5769,-6.6276,-6.6308,-6.6184,-6.6038,-6.5824,-6.549,-6.493,-6.3545,-6.2404,-6.1848,-6.2195,-6.2354,-6.2208,-6.2793,-6.1858,-5.8167,-5.7997,-5.8041,-5.8058,-5.8075,-5.9523,-6.2802,-6.2686,-6.1806,-6.0254,-6.0202,-5.9684,-5.8473,-5.826,-5.7881,-5.7289,-5.7063,-5.643,-5.5426,-5.5164,-5.4765,0.0,0.0,0.0,0.0,0.0,0.0,0.0,0.0,2.3364,2.5897,2.6698,2.7531,2.9408,2.904,2.895,3.0519,2.816,2.5827,2.5067,2.3438,2.2462,2.2937,2.323,2.2882,2.1479,2.0074,1.8699,1.7325,1.583,1.4432,1.3388,1.2322,1.148,1.0881,0.9879,0.9302,0.9449,0.9016,0.9016,0.9304,0.9735,0.9443,0.8572,0.8285,0.6982,0.4805,0.2037,0.0291,-0.0583,-0.2187,-0.277,-0.2914,-0.711,-0.9416,-1.0846,-1.4858,-1.811,-2.0328,-2.0346,-2.4615,-3.0627,-3.2883,-3.8275,-4.5106,-5.118,-5.5926,-6.0033,-6.3967,-6.6252,-6.7694,-6.8441,-6.8129,-6.765,-6.7666,-6.713,-6.6753,-6.7102,-6.7061,-6.6736,-6.6233,-6.5806,-6.5479,-6.5426,-6.3878,-6.2457,-6.1866,-6.2213,-6.2454,-6.2168,-6.2724,-6.3355,-6.3635,-6.3867,-6.4007,-6.4093,-6.3989,-6.3375,-6.2217,-6.2182,-6.1421,-5.982,-5.9888,-5.933,-5.7898,-5.7881,-5.7514,-5.668,-5.668,-5.6277,-5.5456,-5.5456,-5.496,1.7649,1.9673,2.3207,2.6198,2.6781,2.8223,0.0,0.0,3.135,3.4735,3.504,3.4681,3.4624,3.2823,3.1145,3.074,2.7475,2.4718,2.4053,2.2697,2.1582,2.1018,2.2282,2.2978,2.2527,2.0923,1.9383,1.8347,1.5505,1.3804,1.3567,1.2055,1.0868,1.0596,0.9735,0.9446,0.9879,0.9449,0.9304,0.9304,0.9735,0.9299,0.814,0.8435,0.6982,0.3787,-0.0146,-0.1895,-0.2041,-0.2333,-0.2625,-0.3206,-0.7537,-0.9548,-1.0407,-1.5416,-1.8256,-2.0051,-2.2519,-2.6346,-3.0811,-3.4752,-4.0186,-4.6609,-5.3783,-5.8286,-6.1912,-6.6545,-6.8271,-6.8824,-6.9319,-6.8975,-6.8434,-6.8249,-6.7811,-6.745,-6.723,-6.7341,-6.7323,-6.6736,-6.6229,-6.5573,-6.4386,-6.2715,-6.2023,-6.3569,-6.288,-6.2175,-6.2107,-6.2363,-6.2628,-6.3084,-6.3414,-6.3814,-6.4058,-6.3501,-6.2506,-6.1011,-6.0904,-6.0091,-5.8213,-5.8807,-5.8733,-5.7898,-5.7881,-5.748,-5.6614,-5.6614,-5.6332,-5.5778,-5.5778,-5.5187,2.5651,2.5689,2.5882,2.966,3.0354,3.0775,3.337,3.2555,3.2176,3.543,3.5963,3.5655,3.5274,3.3394,3.1449,0.0,2.676,2.3929,2.2879,2.1582,2.0638,2.008,2.0859,2.1339,2.1202,2.0068,1.8968,1.7662,1.6017,1.4614,1.3449,1.2168,1.1021,1.0167,0.9013,0.8435,0.8871,0.8729,0.9016,0.959,0.959,0.9008,0.8133,0.8285,0.6398,0.2766,0.0437,-0.1458,-0.2625,-0.2625,-0.2916,-0.3644,-0.7968,-1.0251,-1.1664,-1.6253,-1.8535,-2.0051,-2.3297,-2.6994,-3.1138,-3.7155,-4.2948,-4.8887,-5.6709,-6.1042,-6.4072,-6.8197,-6.9491,-6.9735,-7.004,-6.9975,-6.9649,-6.8983,-6.8567,-6.8247,-6.7945,-6.7878,-6.7686,-6.7022,-6.6564,-6.6103,-6.5268,-6.3246,-6.1953,-6.2992,-6.2244,-6.1555,-6.1555,-6.2222,-6.2934,-6.3594,-6.3797,-6.3974,-6.4076,-6.3601,-6.2854,-6.1707,-6.1223,-6.0638,-5.986,-5.9725,-5.9372,-5.8824,-5.8562,-5.8158,-5.7524,-5.7282,-5.6869,-5.6342,-5.6342,-5.582,2.8532,2.863,2.8095,3.1721,3.3111,3.3486,3.298,3.2615,3.3093,3.5533,3.5748,3.5443,3.5046,3.3273,3.1181,2.9326,2.6118,2.3311,2.2057,2.0619,1.9601,1.925,1.941,1.9584,1.9571,1.9194,1.8589,1.7748,1.6404,1.501,1.3692,1.2158,1.0878,0.9879,0.8579,0.8003,0.844,0.8295,0.8729,0.9735,0.9304,0.8721,0.8131,0.7266,0.5235,0.2328,0.0728,-0.1166,-0.2916,-0.3063,-0.3645,-0.4803,-0.84,-1.1103,-1.3499,-1.7102,-1.9501,-2.1252,-2.4607,-2.8454,-3.309,-3.9982,-4.5903,-5.1765,-5.9137,-6.3284,-6.6104,-6.9525,-7.0458,-7.0453,-7.0554,-7.0563,-7.0298,-6.9303,-6.8945,-6.8698,-6.8364,-6.8203,-6.7915,-6.7266,-6.6767,-6.6166,-6.5561,-6.3312,-6.1806,-6.2187,-6.1612,-6.1195,-6.1064,-6.2139,-6.3181,-6.3727,-6.3799,-6.3823,-6.3933,-6.325,-6.2531,-6.1852,-6.1363,-6.0914,-6.0539,-6.0142,-5.9639,-5.9106,-5.8689,-5.8265,-5.7783,-5.7462,-5.713,-5.6885,-5.6813,-5.6356,2.1519,2.4764,2.8099,3.1374,3.4701,3.7101,3.6858,3.6303,3.6086,3.6922,3.6083,3.5171,3.4823,3.291,3.0781,2.8628,2.5472,2.2949,2.17,1.9893,1.8619,1.8262,1.8134,1.8033,0.0,1.8437,1.88,1.9434,1.6211,1.4383,1.4566,1.1934,1.0308,0.9879,0.916,0.8871,0.9304,0.8871,0.8871,0.9304,0.8871,0.8435,0.7996,0.4947,0.3347,0.2762,-0.0291,-0.2041,-0.2916,-0.3354,-0.4803,-0.7112,-0.8973,-1.2105,-1.5652,-1.7679,-2.0845,-2.4465,-2.697,-3.1816,-3.7522,-4.2913,-4.8849,-5.4996,-6.0855,-6.4731,-6.7744,-7.0639,-7.1224,-7.0959,-7.0825,-7.046,-6.9912,-6.9028,-6.879,-6.8651,-6.8222,-6.807,-6.8018,-6.7667,-6.6665,-6.5474,-6.4194,-6.2364,-6.1278,-6.175,-6.1488,-6.1064,-6.0784,-6.2057,-6.2997,-6.2997,-6.3043,-6.3193,-6.3513,-6.2114,-6.1093,-6.07,-6.0638,-6.0144,-5.9046,-5.9152,-5.9003,-5.8215,-5.78,-5.7291,-5.6861,-5.6861,-5.6949,-5.7184,-5.6743,-5.6528,2.4585,2.812,3.1686,3.5276,3.6862,3.7366,3.6872,3.6546,3.6248,3.604,3.3068,3.0558,3.0492,2.8224,2.5815,2.4118,2.34,2.2596,2.1047,1.9414,1.8179,1.7474,1.7339,0.0,0.0,0.0,0.0,1.7894,1.6275,1.5019,1.4122,1.2303,1.0878,0.9879,0.8871,0.844,0.8871,0.8729,0.8729,0.8871,0.7129,0.6694,0.7276,0.4078,0.233,0.1601,-0.0146,-0.2331,-0.437,-0.4517,-0.6246,-0.912,-1.0986,-1.4231,-1.7881,-1.935,-2.3541,-2.858,-2.866,-3.242,-3.8275,-4.4649,-5.0708,-5.6535,-6.2259,-6.6125,-6.8934,-7.0946,-7.1504,-7.1382,-7.071,-7.0563,-7.019,-6.8647,-6.8272,-6.8203,-6.784,-6.767,-6.7426,-6.6912,-6.6408,-6.575,-6.4687,-6.3235,-6.2405,-6.2754,-6.2319,-6.1985,-6.187,-6.2526,-6.2891,-6.2626,-6.2822,-6.2889,-6.2745,-6.1998,-6.1341,-6.0968,-6.0886,-6.0605,-5.9926,-5.9971,-5.9732,-5.9214,-5.871,-5.8446,-5.8284,-5.7623,-5.729,-5.7433,-5.6553,-5.6082,2.7751,3.088,3.3626,3.7139,3.7915,3.7596,3.6794,3.6711,3.6574,3.6005,3.1917,2.8428,2.8271,2.5642,2.2748,2.0501,2.1051,2.1223,1.9384,1.7952,1.7099,1.6865,1.6748,1.6618,0.0,0.0,0.0,1.6608,1.5701,1.4578,1.3352,1.1995,1.0734,0.9735,0.8871,0.8584,0.8729,0.8729,0.8437,0.7856,0.6257,0.5678,0.6252,0.7681,0.5648,0.1306,0.3826,0.1238,-0.5097,-0.5242,-0.7546,-1.0983,-1.228,-1.5929,-2.0521,-2.1383,-2.6042,-3.1587,-3.0206,-3.4409,-4.1345,-4.649,-5.2781,-5.9082,-6.3191,-6.6631,-6.9337,-7.0358,-7.0569,-7.0372,-6.9759,-6.9529,-6.9101,-6.7699,-6.7428,-6.7317,-6.7002,-6.6834,-6.6593,-6.6066,-6.5785,-6.5349,-6.4513,-6.3778,-6.3299,-6.3205,-6.3013,-6.2839,-6.277,-6.2889,-6.2841,-6.2438,-6.2447,-6.2408,-6.2139,-6.1692,-6.1318,-6.1002,-6.0919,-6.0734,-6.0292,-6.012,-5.9859,-5.9419,-5.8988,-5.8626,-5.8427,-5.7668,-5.7195,-5.718,-5.5888,-5.529,3.0457,3.2784,3.4037,3.6965,3.7915,3.7901,3.69,3.6886,3.6935,3.6437,3.2168,2.8319,0.0,2.4792,2.1455,1.7929,1.8761,1.9156,1.716,1.6019,1.5681,0.0,0.0,0.0,0.0,0.0,0.0,1.5834,0.0,1.3352,1.2123,1.1015,1.0023,0.9304,0.916,0.9016,0.8726,0.8584,0.7856,0.6404,0.582,0.5507,0.573,1.4207,1.211,0.2426,1.0499,0.6864,-0.4955,-0.568,-0.8701,-1.2855,-1.2993,-1.7322,-2.3453,-2.3777,-2.8088,-3.3608,-3.2081,-3.7859,-4.6325,-4.8585,-5.5118,-6.2315,-6.3673,-6.6367,-6.8972,-6.9061,-6.8678,-6.8231,-6.8219,-6.7616,-6.6894,-6.6363,-6.6287,-6.6209,-6.5712,-6.5651,-6.557,-6.5243,-6.4821,-6.4359,-6.3807,-6.3974,-6.3886,-6.3119,-6.3499,-6.3716,-6.3513,-6.3176,-6.283,-6.2313,-6.1934,-6.1709,-6.1628,-6.1334,-6.1002,-6.0717,-6.0717,-6.0447,-6.0001,-5.9492,-5.9152,-5.8898,-5.8443,-5.798,-5.748,-5.6892,-5.6603,-5.6603,-5.4988,-5.42,3.2371,3.4872,3.7126,3.8208,3.7976,3.7366,3.6794,3.6117,3.4621,3.08,2.6525,2.2244,1.8268,1.8225,1.8037,1.565,1.8931,0.0,1.9098,1.7616,0.0,1.6183,0.0,1.4926,1.5192,1.5062,0.0,0.0,1.3912,1.2948,1.102,1.0158,0.9441,0.8871,0.8003,0.786,0.8295,0.7421,0.6839,0.6402,0.4222,0.7655,1.5488,0.7898,0.7045,1.1121,0.3936,-0.1955,-0.6551,-0.8703,-1.1562,-1.4694,-1.6927,-2.0407,-2.4424,-2.6464,-3.0316,-3.4759,-3.7226,-4.191,-4.7616,-5.1444,-5.6558,-6.1779,-6.4407,-6.6589,-6.8312,-6.8923,-6.8875,-6.8568,-6.8277,-6.7795,-6.7085,-6.5962,-6.5595,-6.5352,-6.4824,-6.5022,-6.5173,-6.4928,-6.4737,-6.4473,-6.4053,-6.4168,-6.4183,-6.3724,-6.3629,-6.3496,-6.3274,-6.2838,-6.233,-6.1854,-6.179,-6.1564,-6.1252,-6.0986,-6.0734,-6.0463,-6.0479,-6.012,-5.9331,-5.8972,-5.8503,-5.7856,-5.7385,-5.6988,-5.6892,-5.5986,-5.5491,-5.5491,-5.386,-5.3261,3.4906,3.6842,3.8234,3.7933,3.74,3.623,3.3317,3.2676,3.1248,2.6412,2.1791,1.7825,1.5195,1.5245,1.4935,0.0,0.0,0.0,1.691,1.5933,1.536,0.0,1.4534,0.0,1.48,1.769,1.9489,0.0,1.5832,1.2838,1.0553,0.9476,0.8863,0.844,0.757,0.728,0.786,0.6841,0.5967,0.5094,0.2766,0.4856,1.09,0.7352,0.63,0.693,0.0,-0.1082,-0.7851,-1.0138,-1.3124,-1.652,-1.901,-2.2323,-2.6306,-2.9561,-3.3247,-3.7432,-4.2133,-4.6895,-5.1269,-5.3918,-5.7965,-6.2296,-6.472,-6.6322,-6.7379,-6.7805,-6.7728,-6.7445,-6.6984,-6.6529,-6.5934,-6.4856,-6.4563,-6.4473,-6.4272,-6.443,-6.4634,-6.4704,-6.4516,-6.4333,-6.4122,-6.4183,-6.4111,-6.3565,-6.3158,-6.2821,-6.2668,-6.2469,-6.2189,-6.1709,-6.1367,-6.1119,-6.1102,-6.0378,-6.0017,-6.0222,-5.9756,-5.9209,-5.8701,-5.8227,-5.7653,-5.7195,-5.6588,-5.6183,-5.6001,-5.4857,-5.4362,-5.4392,-5.2943,-5.2687,3.7419,3.8234,3.7965,3.6752,3.6346,3.4739,2.9011,2.8289,2.737,2.2258,1.7669,1.4496,1.4342,1.3598,1.2264,0.9972,0.0,1.5438,1.3551,1.34,1.405,1.5313,1.5418,1.5548,1.6186,2.2809,2.6875,2.6649,1.9499,1.4197,1.1793,1.098,0.9639,0.7856,0.728,0.7133,0.7421,0.6402,0.5094,0.3057,0.1019,0.0719,0.1823,0.825,0.6715,-0.0698,0.0,0.0,-0.9144,-1.1136,-1.4386,-1.8326,-2.0515,-2.4196,-2.8787,-3.2585,-3.6557,-4.0977,-4.6556,-5.1664,-5.5797,-5.6314,-5.9611,-6.3632,-6.5171,-6.6212,-6.6791,-6.6608,-6.6364,-6.598,-6.535,-6.4958,-6.4571,-6.3898,-6.3806,-6.3984,-6.4049,-6.4082,-6.4221,-6.4572,-6.4386,-6.4186,-6.4148,-6.4039,-6.3695,-6.2966,-6.2408,-6.1997,-6.182,-6.203,-6.1967,-6.1547,-6.0752,-6.043,-6.0835,-5.9652,-5.9209,-5.9875,-5.885,-5.8211,-5.8119,-5.7464,-5.6892,-5.6506,-5.5986,-5.5376,-5.4887,-5.3831,-5.3337,-5.341,-5.2329,-5.2452,3.8003,3.7691,3.6986,3.6188,3.521,3.3247,2.873,2.6989,2.4075,1.6131,1.3922,1.2081,0.7784,0.8827,1.0629,1.1186,1.344,1.5373,1.5904,1.5533,1.7365,0.0,2.3455,2.3139,2.3253,3.0613,0.0,0.0,0.0,2.1803,1.9633,1.9831,1.5702,0.6522,0.6698,0.6698,0.6116,0.466,0.3056,0.1017,-0.1164,0.2158,1.0066,0.1185,0.1302,0.7939,-0.1838,0.0,-1.0996,-1.5238,-1.8175,-2.0371,-2.4103,-2.7925,-3.1739,-3.4595,-3.9036,-4.4229,-4.8808,-5.3632,-5.7933,-5.9546,-6.2558,-6.5787,-6.7133,-6.8028,-6.839,-6.7598,-6.7384,-6.7022,-6.5429,-6.5559,-6.5852,-6.5011,-6.5243,-6.5493,-6.4725,-6.4574,-6.4616,-6.5036,-6.4817,-6.453,-6.4164,-6.3621,-6.3042,-6.2486,-6.2347,-6.1951,-6.0736,-6.0685,-6.0701,-6.0584,-6.0087,-5.9843,-5.993,-5.9136,-5.8792,-5.9168,-5.8594,-5.8026,-5.7668,-5.7084,-5.6409,-5.572,-5.5003,-5.4289,-5.3815,-5.3049,-5.2716,-5.273,-5.2113,-5.2234,3.7615,3.7078,3.6452,3.521,3.4152,3.1594,2.5024,2.2534,1.9315,1.1286,0.9189,0.8106,0.6006,0.7318,0.8684,0.8676,1.173,1.3925,1.3294,1.4303,1.6092,1.8758,2.2441,2.4875,2.5296,3.6594,0.0,0.0,0.0,3.3185,2.2451,1.6379,1.0726,0.5375,0.5536,0.5827,0.5827,0.3201,0.1308,-0.0,-0.2762,-0.153,0.2818,-0.4329,-0.4707,-0.0,-0.7532,0.0,-1.4106,-1.7467,-2.0634,-2.3628,-2.7174,-3.0534,-3.4007,-3.8388,-4.2853,-4.7298,-5.2611,-5.7437,-6.1524,-6.3515,-6.5344,-6.696,-6.7963,-6.859,-6.8807,-6.8104,-6.7787,-6.7359,-6.6142,-6.609,-6.6243,-6.5524,-6.5583,-6.5622,-6.496,-6.4777,-6.4721,-6.4873,-6.4463,-6.3985,-6.3621,-6.3025,-6.2408,-6.174,-6.1251,-6.0736,-6.0038,-5.9548,-5.9459,-5.9881,-5.9371,-5.903,-5.9266,-5.8303,-5.7965,-5.8503,-5.7762,-5.7195,-5.6892,-5.6228,-5.5536,-5.4713,-5.3993,-5.3471,-5.3064,-5.2423,-5.2377,-5.2689,-5.2374,-5.277,3.6513,3.6294,3.5722,3.3901,3.2895,3.0033,2.1228,1.8373,1.5423,0.7793,0.537,0.4755,0.5345,0.6041,0.6455,0.6097,0.9062,1.1211,1.0484,1.3684,1.658,1.7817,2.4771,0.0,3.0296,4.3515,0.0,0.0,0.0,0.0,2.2698,1.102,0.4665,0.4665,0.481,0.4953,0.4805,0.189,-0.0291,-0.1743,-0.4505,-0.6107,-0.6831,-0.8417,-0.9568,-1.0281,-1.2001,0.0,0.0,-1.9933,-2.3194,-2.7126,-3.013,-3.3529,-3.721,-4.2438,-4.6943,-5.1086,-5.6448,-6.0928,-6.4688,-6.6776,-6.7749,-6.8239,-6.8914,-6.9252,-6.9259,-6.859,-6.8196,-6.7783,-6.683,-6.6693,-6.663,-6.6062,-6.5733,-6.546,-6.5202,-6.4817,-6.4602,-6.4602,-6.3985,-6.336,-6.2906,-6.2408,-6.174,-6.082,-6.0038,-5.9515,-5.9161,-5.8546,-5.8379,-5.877,-5.8363,-5.8195,-5.853,-5.7464,-5.7131,-5.784,-5.6908,-5.6244,-5.6017,-5.5451,-5.4758,-5.3904,-5.3381,-5.2957,-5.253,-5.2131,-5.2236,-5.27,-5.284,-5.3515,3.4651,3.5142,3.4121,3.2077,3.127,2.8698,1.9735,1.7271,1.4485,0.5967,0.4126,0.3945,0.3609,0.3229,0.3627,0.6027,0.5659,0.6689,1.1414,1.7166,2.435,3.3736,0.0,0.0,4.5819,5.3974,0.0,0.0,0.0,0.0,2.0775,1.05,0.4665,0.4665,0.5391,0.4367,0.1601,0.0145,-0.2179,-0.538,-0.669,-0.8285,-1.0017,-1.0593,-1.1592,-1.3016,-1.5543,0.0,0.0,-2.4302,-2.7398,-3.0174,-3.3595,-3.8225,-4.3219,-4.578,-5.0692,-5.6397,-5.9014,-6.2314,-6.5796,-6.796,-6.9412,-7.0405,-7.0975,-7.1058,-7.0718,-6.939,-6.9154,-6.8898,-6.6997,-6.7235,-6.7779,-6.7122,-6.6301,-6.5681,-6.5564,-6.482,-6.4182,-6.4164,-6.3531,-6.2906,-6.2469,-6.1659,-6.0803,-5.9865,-5.9691,-5.9161,-5.784,-5.8026,-5.7731,-5.6378,-5.6988,-5.7574,-5.7668,-5.7131,-5.6842,-5.6796,-5.6311,-5.572,-5.5235,-5.4932,-5.4436,-5.3904,-5.3381,-5.2865,-5.2235,-5.2459,-5.2658,-5.2714,-5.3304,-5.3823,3.3504,3.3791,3.2784,3.1613,2.8872,2.4907,1.9018,1.4937,1.0809,0.5129,0.3635,0.3433,0.32,0.3067,0.3187,0.3738,0.4836,0.5927,0.6715,1.5018,2.2596,2.6808,3.8632,0.0,0.0,0.0,0.0,0.0,0.0,0.0,0.0,0.5451,0.2769,0.3207,0.2476,0.131,0.0145,-0.2179,-0.4358,-0.625,-0.8283,-0.9876,-1.0884,-1.2591,-1.4286,-1.5826,-1.8476,0.0,0.0,-2.697,-3.0445,-3.4255,-3.6878,-4.1172,-4.6328,-4.9709,-5.4128,-5.8893,-6.2422,-6.5171,-6.7502,-6.9395,-7.0347,-7.0853,-7.1272,-7.1145,-7.0648,-6.98,-6.9399,-6.891,-6.7775,-6.7381,-6.7006,-6.6125,-6.5468,-6.4976,-6.448,-6.3444,-6.2787,-6.3308,-6.2088,-6.1036,-6.148,-6.0534,-5.9499,-5.8818,-5.8546,-5.7902,-5.6684,-5.6684,-5.6491,-5.5521,-5.6115,-5.6409,-5.6115,-5.5933,-5.5735,-5.572,-5.5521,-5.522,-5.4611,-5.4509,-5.4112,-5.341,-5.3213,-5.3066,-5.3006,-5.3057,-5.3442,-5.4388,-5.4091,-5.4439,3.0573,3.1667,3.1641,3.0508,2.6752,2.2135,1.7799,1.298,0.8286,0.4156,0.3032,0.2726,0.2466,0.2527,0.2385,0.1804,0.3304,0.4201,0.3302,1.1869,1.8619,1.9599,0.0,4.1035,0.0,0.0,0.0,0.0,0.0,0.0,0.0,0.102,0.0437,0.1457,0.0146,-0.1164,-0.2179,-0.4358,-0.6248,-0.7408,-0.9582,-1.1028,-1.2026,-1.4428,-1.653,-1.8749,0.0,0.0,0.0,-3.0555,-3.3917,-3.7438,-4.0806,-4.4887,-4.9337,-5.3769,-5.7777,-6.1603,-6.5166,-6.7389,-6.8849,-7.0328,-7.0931,-7.1113,-7.1253,-7.0932,-7.0393,-6.988,-6.9185,-6.8442,-6.793,-6.7006,-6.5958,-6.5039,-6.4549,-6.4111,-6.3049,-6.2167,-6.1689,-6.1963,-6.0703,-5.9778,-6.0296,-5.9411,-5.8455,-5.7824,-5.737,-5.67,-5.5819,-5.562,-5.5305,-5.4815,-5.5003,-5.5205,-5.5134,-5.5134,-5.4917,-5.4611,-5.4611,-5.4304,-5.3562,-5.3562,-5.3381,-5.3015,-5.2866,-5.3166,-5.3703,-5.3442,-5.3966,-5.5254,-5.4534,-5.4739,2.4927,2.851,3.0711,2.8226,2.5179,2.132,1.5719,1.1757,0.7911,0.3025,0.2017,0.1814,0.1008,0.0806,0.0817,0.0953,0.0109,0.0393,0.2877,0.8559,1.3659,0.0,0.0,2.8702,0.0,0.0,0.0,0.0,0.0,0.0,0.0,-0.1311,-0.2184,-0.0582,-0.0582,-0.2324,-0.5672,-0.6105,-0.7555,-0.9879,-1.0311,-1.1883,-1.4449,-1.5967,-1.8459,0.0,0.0,0.0,0.0,-3.5797,-3.814,-3.9173,-4.5582,-4.9923,-5.3049,-5.8016,-6.1941,-6.5012,-6.6755,-6.8326,-6.972,-7.0538,-7.1112,-7.1439,-7.1165,-7.0728,-7.017,-6.9468,-6.8501,-6.7541,-6.7175,-6.6125,-6.4905,-6.4201,-6.3806,-6.3083,-6.1298,-6.1315,-6.1185,-5.9849,-5.9603,-5.9427,-5.8966,-5.8546,-5.7824,-5.6892,-5.6311,-5.572,-5.5134,-5.4917,-5.4494,-5.4008,-5.3681,-5.3979,-5.5033,-5.5134,-5.4611,-5.3562,-5.3576,-5.3049,-5.1896,-5.1787,-5.2113,-5.268,-5.2377,-5.2797,-5.4014,-5.3709,-5.399,-5.4597,-5.4644,-5.4699,1.9959,2.1204,2.1368,2.0658,1.7004,1.3072,1.1193,0.744,0.3911,0.219,0.1456,0.1068,0.0874,0.0496,0.0204,0.0211,-0.0442,-0.0663,-0.0202,1.2936,2.3239,2.5069,3.4481,3.6205,0.0,0.0,0.0,0.0,0.0,0.0,0.0,-0.1893,-0.2621,-0.2184,-0.3781,-0.538,-0.6982,-0.7989,-0.9147,-1.074,-1.2312,-1.4156,-1.6127,-1.8888,0.0,0.0,0.0,0.0,0.0,-3.7449,-4.0056,-4.2314,-4.7507,-5.1743,-5.5374,-5.9464,-6.3153,-6.631,-6.7595,-6.903,-7.0442,-7.1085,-7.1252,-7.115,-7.0787,-7.0382,-6.9809,-6.8761,-6.786,-6.7079,-6.6618,-6.5725,-6.4755,-6.395,-6.2956,-6.2009,-6.1119,-6.0092,-5.9323,-5.9603,-5.853,-5.7824,-5.8379,-5.7433,-5.6491,-5.5918,-5.562,-5.5018,-5.4082,-5.4097,-5.3904,-5.3198,-5.2972,-5.2972,-5.3064,-5.317,-5.2851,-5.2423,-5.2315,-5.2207,-5.1787,-5.2194,-5.2529,-5.2749,-5.3037,-5.3557,-5.429,-5.4027,-5.3979,-5.3919,-5.456,-5.4419,1.461,1.6143,1.6632,1.6231,1.249,0.8784,0.8371,0.4847,0.156,0.1147,0.0667,0.0191,-0.0286,-0.0684,-0.1007,-0.1244,-0.1633,-0.0782,0.2519,1.3713,2.1994,2.3542,0.0,0.0,0.0,0.0,0.0,0.0,0.0,0.0,0.0,0.0,-0.4366,-0.4657,-0.6112,-0.7562,-0.8863,-0.9582,-1.1012,-1.3009,-1.429,-1.6394,-1.9033,-2.1514,0.0,0.0,0.0,0.0,0.0,-4.0787,-4.3367,-4.5381,-5.0505,-5.436,-5.756,-6.1405,-6.4689,-6.7432,-6.8601,-6.9821,-7.0979,-7.1325,-7.1174,-7.0664,-6.9629,-6.9151,-6.876,-6.7716,-6.6737,-6.579,-6.5448,-6.4626,-6.3681,-6.2804,-6.1929,-6.1119,-6.0108,-5.8966,-5.8256,-5.8712,-5.7449,-5.6552,-5.7259,-5.628,-5.5305,-5.48,-5.4611,-5.42,-5.3275,-5.3275,-5.3078,-5.2559,-5.2358,-5.2019,-5.1787,-5.2004,-5.2004,-5.1458,-5.1668,-5.1683,-5.1461,-5.2057,-5.2376,-5.2362,-5.2641,-5.324,-5.4167,-5.4068,-5.3929,-5.3592,-5.3792,-5.3658,0.0,1.2601,1.5072,1.3868,1.0599,0.7481,0.6643,0.3614,0.0,-0.0095,-0.0381,-0.0762,-0.2006,-0.2423,-0.2666,-0.3131,-0.3494,-0.0315,0.9364,1.2773,1.4683,1.5698,1.8367,0.0,0.0,0.0,0.0,0.0,0.0,0.0,0.0,0.0,-0.6984,-0.7709,-0.7856,-0.8866,-1.1028,-1.1168,-1.3009,-1.6244,-1.652,-1.8877,-2.3154,-2.4374,0.0,0.0,0.0,0.0,0.0,-4.501,-4.7322,-4.8325,-5.415,-5.7404,-5.9481,-6.3678,-6.6482,-6.8328,-6.9692,-7.0635,-7.1285,-7.1251,-7.0758,-6.9847,-6.7926,-6.7355,-6.7197,-6.6452,-6.5145,-6.3942,-6.389,-6.3041,-6.1975,-6.1168,-6.087,-6.0381,-5.8546,-5.8056,-5.7839,-5.737,-5.6342,-5.5566,-5.572,-5.5089,-5.4377,-5.3562,-5.3471,-5.3275,-5.2666,-5.2343,-5.2127,-5.2127,-5.1596,-5.1155,-5.0906,-5.1568,-5.1677,-5.0781,-5.1233,-5.1336,-5.0892,-5.1426,-5.1751,-5.1724,-5.1723,-5.2365,-5.3392,-5.3745,-5.3806,-5.347,-5.2588,-5.2425,0.3839,0.0,0.6019,0.5651,0.4058,0.2541,0.0,0.1057,-0.0094,-0.028,-0.1118,-0.1882,-0.2325,-0.3029,-0.3685,-0.4073,-0.4566,-0.1276,0.9326,2.5681,3.368,2.5847,3.4225,0.0,0.0,0.0,0.0,0.0,0.0,0.0,0.0,0.0,-0.8716,-0.9732,-1.0593,-1.1025,-1.1028,-1.3294,-1.5397,-1.7337,-1.998,-2.2712,-2.568,-2.8433,0.0,0.0,0.0,0.0,-4.1412,-4.6152,-4.8368,-4.9353,-5.5063,-5.8636,-6.0893,-6.447,-6.7366,-6.9559,-7.0239,-7.0805,-7.1142,-7.0636,-6.9456,-6.809,-6.7319,-6.7017,-6.6565,-6.524,-6.3921,-6.3057,-6.338,-6.2306,-6.1223,-6.1377,-6.0348,-5.9161,-5.8316,-5.7197,-5.628,-5.5705,-5.5119,-5.4611,-5.4713,-5.4186,-5.3666,-5.3232,-5.2957,-5.2544,-5.1458,-5.143,-5.143,-5.1238,-5.0446,-4.9996,-5.0235,-5.0208,-4.9969,-4.9529,-4.9631,-4.9847,-5.0224,-5.0738,-5.116,-5.1643,-5.2095,-5.2389,-5.2375,-5.2767,-5.2711,-5.2492,-5.2478,-5.1957,0.157,0.1714,0.2051,0.1935,0.1151,0.038,0.0282,-0.0462,-0.1186,-0.1186,-0.1915,-0.2671,-0.2945,0.0274,0.1284,-0.3778,0.2884,1.077,1.7032,2.8158,3.3958,2.917,3.5195,0.0,0.0,0.0,0.0,0.0,0.0,0.0,0.0,0.0,-0.9582,-1.1028,-1.2459,-1.3028,-1.2877,-1.5128,-1.7503,-2.0136,-2.3127,-2.5836,-2.8385,-3.1404,-3.4057,0.0,0.0,0.0,-4.4597,-4.8184,-5.0612,-5.262,-5.6558,-5.9939,-6.2813,-6.5394,-6.7949,-7.0247,-7.0754,-7.0663,-7.0196,-6.9463,-6.8223,-6.6728,-6.54,-6.4784,-6.4329,-6.341,-6.1967,-6.0737,-6.0927,-6.0393,-5.9779,-5.9842,-5.9257,-5.8363,-5.759,-5.6445,-5.5406,-5.5089,-5.4392,-5.3785,-5.386,-5.3352,-5.273,-5.2071,-5.199,-5.1568,-5.0572,-5.0656,-5.0544,-5.032,-4.9883,-4.9529,-4.9415,-4.8957,-4.8842,-4.9072,-4.9061,-4.9272,-4.9991,-5.0232,-5.0581,-5.1223,-5.1417,-5.1459,-5.1359,-5.1734,-5.1859,-5.1859,-5.1484,-5.122,0.0723,0.1483,0.2191,0.0964,0.0096,-0.0474,-0.0567,-0.138,-0.2243,-0.2333,-0.2697,-0.2704,-0.1721,0.403,0.6181,-0.1361,1.3041,2.5972,2.8075,2.9674,3.0654,3.0788,0.0,0.0,0.0,0.0,0.0,0.0,0.0,0.0,0.0,0.0,0.0,-1.2169,-1.388,-1.5,-1.5798,-1.7353,-1.986,-2.3467,-2.5924,-2.8572,-3.1423,-3.4007,-3.6445,0.0,0.0,0.0,-4.8027,-5.0372,-5.3169,-5.62,-5.8239,-6.1236,-6.4531,-6.6099,-6.8206,-7.0273,-7.0675,-7.0,-6.882,-6.8053,-6.6871,-6.5337,-6.3128,-6.1938,-6.1309,-6.1002,-5.965,-5.8262,-5.8191,-5.8265,-5.8194,-5.7748,-5.7781,-5.7637,-5.6588,-5.559,-5.4756,-5.4624,-5.3756,-5.2943,-5.2992,-5.2502,-5.1677,-5.0906,-5.0795,-5.0572,-4.9897,-4.9783,-4.9656,-4.9288,-4.92,-4.8855,-4.8469,-4.7795,-4.7847,-4.8859,-4.8878,-4.9113,-4.9772,-4.9861,-5.0141,-5.0617,-5.0369,-5.0227,-5.0474,-5.0728,-5.1107,-5.1471,-5.0219,-5.0347,-0.0187,0.4588,0.8044,0.1429,-0.0736,-0.1389,-0.182,-0.2074,-0.2333,-0.2689,-0.3182,-0.108,0.7049,0.2482,-0.0392,0.6352,1.7441,2.838,0.0,0.0,4.8851,0.0,0.0,0.0,0.0,0.0,0.0,0.0,0.0,0.0,0.0,0.0,0.0,-1.4871,-1.5589,-1.7172,-1.9704,-2.1264,-2.3398,-2.6331,-2.8457,-3.1659,-3.5732,-3.6665,-3.8816,0.0,0.0,-4.6703,-4.8622,-5.2029,-5.4581,-5.6737,-5.9584,-6.2211,-6.4563,-6.6131,-6.7639,-6.8853,-6.8661,-6.8004,-6.7178,-6.6589,-6.4955,-6.3036,-6.2283,-6.0358,-5.8317,-5.7937,-5.7678,-5.7549,-5.808,-5.7683,-5.6973,-5.6584,-5.6715,-5.6491,-5.5003,-5.4156,-5.3518,-5.302,-5.2408,-5.1882,-5.132,-5.1224,-5.0906,-5.0235,-5.0123,-4.9897,-4.9341,-4.874,-4.8366,-4.8366,-4.7455,-4.6993,-4.7442,-4.6874,-4.6971,-4.815,-4.7676,-4.7913,-4.8975,-4.9576,-4.9758,-4.9837,-4.9952,-4.999,-4.9719,-5.0091,-5.0461,-5.0728,-5.0588,-5.0601,-0.0826,0.1605,0.4709,0.6175,0.982,1.3051,1.3411,1.3191,1.1335,0.5764,0.4221,0.5094,0.9591,1.093,1.638,3.192,2.9115,2.8643,3.9133,4.0145,0.0,0.0,0.0,0.0,0.0,0.0,0.0,0.0,0.0,0.0,0.0,0.0,0.0,0.0,-1.7157,-1.8952,-2.1398,-2.4005,-2.6072,-2.7495,-3.0262,-3.3244,-3.6448,-3.8493,-4.0825,-4.3424,0.0,-4.8833,-5.109,-5.3851,-5.6395,-5.8747,-6.0737,-6.3059,-6.5487,-6.7233,-6.8036,-6.8164,-6.7751,-6.6774,-6.5544,-6.4635,-6.3112,-6.142,-6.0317,-5.8823,-5.7288,-5.6376,-5.5826,-5.5507,-5.5537,-5.5421,-5.5085,-5.4694,-5.5001,-5.4973,-5.3623,-5.2644,-5.1797,-5.1307,-5.0405,-4.9829,-4.9843,-4.9616,-4.9274,-4.9072,-4.8957,-4.8726,-4.8159,-4.7795,-4.7311,-4.6704,-4.6636,-4.6516,-4.625,-4.666,-4.7078,-4.7161,-4.7719,-4.8027,-4.7883,-4.8782,-4.9451,-4.9761,-4.9495,-4.9391,-4.959,-4.9706,-4.9963,-5.0091,-5.0474,-5.0842,-0.1453,-0.0179,0.3118,1.0567,1.5723,2.0328,2.5441,2.4482,2.0953,1.5555,1.397,1.3487,1.3283,1.9566,2.9973,4.581,3.7164,3.2124,0.0,0.0,0.0,0.0,0.0,0.0,0.0,0.0,0.0,0.0,0.0,0.0,0.0,0.0,0.0,0.0,-1.8815,-2.0662,-2.2918,-2.6128,-2.8071,-2.8799,-3.1865,-3.4623,-3.7066,-3.9858,-4.2493,-4.4903,-4.7686,-5.0601,-5.3481,-5.5591,-5.8119,-6.0773,-6.19,-6.3872,-6.6198,-6.7503,-6.7561,-6.691,-6.6319,-6.5039,-6.3529,-6.2512,-6.12,-5.9773,-5.8287,-5.7254,-5.6298,-5.5002,-5.4055,-5.3341,-5.3326,-5.353,-5.3546,-5.3083,-5.3419,-5.3518,-5.2201,-5.1113,-5.0266,-4.9629,-4.8815,-4.821,-4.8571,-4.8223,-4.7873,-4.7899,-4.7782,-4.7547,-4.7193,-4.6955,-4.6408,-4.5466,-4.6088,-4.6381,-4.5896,-4.7154,-4.7513,-4.6715,-4.796,-4.829,-4.7531,-4.8404,-4.9135,-4.957,-4.8937,-4.8894,-4.9202,-4.9202,-4.9332,-4.959,-5.0104,-5.0842,-0.1975,0.3696,1.0067,1.1685,0.615,0.4957,2.211,1.9178,1.4969,2.2684,2.4028,2.358,2.2592,2.2979,2.4284,2.6974,3.4069,4.2972,0.0,0.0,0.0,0.0,0.0,0.0,0.0,0.0,0.0,0.0,0.0,0.0,0.0,0.0,0.0,0.0,0.0,-2.2586,-2.5101,-2.7501,-2.9514,-3.1293,-3.3716,-3.6657,-4.0134,-4.0632,-4.3127,-4.7136,-4.8982,-5.1575,-5.4583,-5.7055,-5.9487,-6.1807,-6.3164,-6.4695,-6.6118,-6.5509,-6.4918,-6.4211,-6.3208,-6.1989,-6.0818,-6.0132,-5.899,-5.7734,-5.6813,-5.5682,-5.4521,-5.3118,-5.2029,-5.1691,-5.3101,-5.3277,-5.3039,-5.2588,-5.2488,-5.2187,-5.0462,-4.9576,-4.8904,-4.8326,-4.821,-4.799,-4.7429,-4.7311,-4.7311,-4.7311,-4.673,-4.661,-4.7087,-4.6118,-4.5478,-4.5521,-4.5919,-4.6601,-4.762,-4.8322,-4.841,-4.782,-4.7857,-4.8134,-4.8636,-4.8812,-4.8975,-4.9127,-4.8775,-4.8408,-4.8158,-4.7762,-4.8289,-4.959,-4.959,-5.0715,-0.2104,0.4441,1.147,1.1721,0.9256,1.1754,3.0943,3.236,2.8558,2.4895,2.9468,3.195,2.4866,3.4288,4.1122,3.4901,4.2987,0.0,0.0,0.0,0.0,0.0,0.0,0.0,0.0,0.0,0.0,0.0,0.0,0.0,0.0,0.0,0.0,0.0,0.0,-2.4247,-2.6876,-2.8919,-3.1358,-3.4149,-3.5167,-3.7385,-4.0453,-4.1555,-4.4441,-4.8722,-5.0771,-5.3486,-5.6637,-5.9302,-6.1313,-6.2748,-6.4128,-6.5013,-6.5431,-6.4604,-6.3578,-6.2475,-6.1476,-6.0178,-5.8848,-5.8099,-5.707,-5.5837,-5.4677,-5.3616,-5.2529,-5.1513,-5.0461,-4.9954,-5.0832,-5.0789,-5.0502,-5.0425,-5.0037,-4.9535,-4.8904,-4.7977,-4.7154,-4.7061,-4.6345,-4.5755,-4.5997,-4.5646,-4.5537,-4.601,-4.5768,-4.5768,-4.5997,-4.5646,-4.538,-4.5695,-4.6425,-4.7471,-4.8648,-4.8775,-4.8824,-4.895,-4.895,-4.8899,-4.8774,-4.91,-4.9248,-4.906,-4.8706,-4.8445,-4.8026,-4.8551,-4.9072,-4.959,-5.0842,-5.1846,0.2223,0.6711,1.217,1.5365,1.3708,1.6555,3.6527,3.8317,3.5284,3.3661,3.649,3.7121,3.0127,4.0435,4.7733,0.0,0.0,0.0,0.0,0.0,0.0,0.0,0.0,0.0,0.0,0.0,0.0,0.0,0.0,0.0,0.0,0.0,0.0,0.0,0.0,-2.5975,-2.8398,-3.049,-3.3151,-3.6192,-3.7036,-3.8822,-4.1405,-4.2515,-4.5511,-4.9907,-5.1947,-5.4941,-5.8533,-6.1116,-6.2786,-6.3843,-6.4649,-6.4774,-6.4367,-6.3418,-6.2132,-6.0747,-5.9726,-5.8427,-5.7036,-5.6039,-5.5102,-5.4041,-5.2626,-5.1743,-5.1015,-4.9739,-4.8924,-4.8586,-4.8572,-4.8573,-4.8615,-4.8758,-4.8294,-4.7756,-4.7534,-4.6704,-4.5876,-4.5659,-4.4951,-4.447,-4.4939,-4.4582,-4.4582,-4.5159,-4.5159,-4.5049,-4.5281,-4.5319,-4.5463,-4.6056,-4.7113,-4.8103,-4.8872,-4.9038,-4.9188,-4.9294,-4.9461,-4.9427,-4.905,-4.9402,-4.9344,-4.8955,-4.8706,-4.8313,-4.7894,-4.8551,-4.9319,-4.9938,-5.132,-5.2329,1.1618,1.0998,1.2899,2.3205,1.8066,1.5844,3.6501,3.3159,3.1304,5.085,4.6078,3.8757,3.9833,3.937,3.9233,0.0,0.0,0.0,0.0,0.0,0.0,0.0,0.0,0.0,0.0,0.0,0.0,0.0,0.0,0.0,0.0,0.0,0.0,0.0,0.0,0.0,-2.978,-3.2219,-3.4736,-3.7203,-3.9378,-4.1375,-4.333,-4.3516,-4.6253,-5.0923,-5.2508,-5.5826,-6.0172,-6.2142,-6.3815,-6.5145,-6.4676,-6.3954,-6.3035,-6.166,-6.0356,-5.9007,-5.7641,-5.6475,-5.5345,-5.3999,-5.303,-5.2198,-5.0664,-5.0209,-4.9882,-4.7732,-4.7524,-4.7661,-4.6553,-4.713,-4.8086,-4.8079,-4.7652,-4.6955,-4.6345,-4.5755,-4.5049,-4.4458,-4.4347,-4.4347,-4.4347,-4.4347,-4.4582,-4.5159,-4.4693,-4.4582,-4.5172,-4.5178,-4.5676,-4.7114,-4.7947,-4.8383,-4.8026,-4.9332,-4.959,-4.8632,-4.919,-4.959,-4.959,-4.959,-4.9344,-4.8588,-4.8588,-4.8182,-4.7497,-4.7497,-4.8502,-5.0498,-5.0498,-5.1669,0.0257,1.0005,1.934,1.5713,2.3118,3.2882,3.9037,3.8299,3.9911,5.2454,4.6275,3.8758,3.9256,4.5641,0.0,0.0,0.0,0.0,0.0,0.0,0.0,0.0,0.0,0.0,0.0,0.0,0.0,0.0,0.0,0.0,0.0,0.0,0.0,0.0,0.0,0.0,-3.0781,-3.2405,-3.528,-3.9477,-3.9873,-4.1027,-4.2964,-4.4724,-4.7596,-5.1442,-5.4364,-5.7557,-6.0908,-6.3453,-6.4723,-6.4959,-6.384,-6.2743,-6.1667,-5.9814,-5.8393,-5.7308,-5.5916,-5.4094,-5.2479,-5.1744,-5.0644,-4.9412,-4.8425,-4.7657,-4.7174,-4.6645,-4.5904,-4.5203,-4.5176,-4.5494,-4.6012,-4.6679,-4.601,-4.5172,-4.5525,-4.5049,-4.4582,-4.4347,-4.4347,-4.4347,-4.4347,-4.4347,-4.4347,-4.4582,-4.447,-4.4479,-4.509,-4.6166,-4.7103,-4.755,-4.8337,-4.906,-4.9473,-4.9461,-4.9461,-4.9577,-4.959,-4.959,-4.959,-4.959,-4.9344,-4.8588,-4.8588,-4.8182,-4.7497,-4.8551,-4.9552,-5.0498,-5.1544,-5.2575,1.1019,1.8506,2.4436,2.7267,3.3951,4.1004,4.521,4.6389,4.8182,5.3916,4.9888,4.5369,4.5674,5.1268,0.0,0.0,0.0,0.0,0.0,0.0,0.0,0.0,0.0,0.0,0.0,0.0,0.0,0.0,0.0,0.0,0.0,0.0,0.0,0.0,0.0,0.0,-3.1957,-3.3823,-3.6516,-4.0306,-4.1569,-4.291,-4.4291,-4.6196,-4.9047,-5.2712,-5.7186,-6.0292,-6.2368,-6.432,-6.4721,-6.3959,-6.2675,-6.1208,-5.9646,-5.7858,-5.6326,-5.5053,-5.3765,-5.1941,-5.0162,-4.9592,-4.8411,-4.6916,-4.6123,-4.5555,-4.5166,-4.4979,-4.4486,-4.4044,-4.4193,-4.4299,-4.4546,-4.5159,-4.4816,-4.447,-4.4816,-4.4582,-4.4347,-4.4347,-4.4347,-4.4347,-4.4347,-4.4347,-4.4347,-4.4347,-4.4527,-4.4852,-4.5381,-4.656,-4.7414,-4.7621,-4.833,-4.8918,-4.9177,-4.9461,-4.959,-4.9706,-4.9719,-4.9731,-4.9603,-4.9461,-4.9215,-4.8588,-4.8445,-4.8038,-4.7497,-4.8669,-4.9784,-5.0878,-5.1819,-5.2725,3.2415,3.1257,2.9092,4.8695,4.7161,4.3413,5.3176,5.5267,5.5149,5.5149,5.525,5.5451,5.5767,0.0,0.0,0.0,0.0,0.0,0.0,0.0,0.0,0.0,0.0,0.0,0.0,0.0,0.0,0.0,0.0,0.0,0.0,0.0,0.0,0.0,0.0,0.0,-3.3077,-3.5647,-3.8032,0.0,-4.3976,-4.6087,-4.6741,-4.8065,-5.0853,-5.4914,-6.0372,-6.3242,-6.4086,-6.4484,-6.3745,-6.2259,-6.099,-5.9201,-5.7161,-5.5784,-5.4162,-5.2436,-5.1376,-4.9904,-4.8212,-4.7503,-4.6174,-4.4699,-4.3881,-4.386,-4.384,-4.2911,-4.3216,-4.3747,-4.3173,-4.3314,-4.3565,-4.3565,-4.395,-4.4347,-4.4347,-4.4347,-4.4347,-4.4347,-4.4347,-4.4347,-4.4347,-4.4347,-4.4371,-4.4419,-4.4864,-4.5393,-4.5922,-4.6463,-4.6968,-4.7449,-4.8133,-4.8371,-4.8109,-4.9319,-4.9847,-4.9165,-4.9706,-4.9988,-4.959,-4.9332,-4.8955,-4.8588,-4.817,-4.7894,-4.763,-4.8264,-4.9631,-5.1505,-5.157,-5.2342,1.4151,2.5445,3.6956,4.16,4.7389,5.2551,5.4867,5.5446,5.5504,5.5504,5.5667,5.5865,0.0,0.0,0.0,0.0,0.0,0.0,0.0,0.0,0.0,0.0,0.0,0.0,0.0,0.0,0.0,0.0,0.0,0.0,0.0,0.0,0.0,0.0,0.0,-3.1245,-3.3459,-3.558,-3.8099,0.0,-4.4289,-4.6956,-4.9191,-5.0818,-5.4285,-5.9175,-6.0864,-6.2348,-6.3546,-6.2427,-6.1163,-5.9773,-5.7758,-5.6129,-5.4681,-5.2931,-5.1774,-5.0851,-4.889,-4.7637,-4.655,-4.5063,-4.4048,-4.3232,-4.2575,-4.2507,-4.2574,-4.2042,-4.2115,-4.2296,-4.1531,-4.1795,-4.2177,-4.2177,-4.3326,-4.4347,-4.4347,-4.4347,-4.4347,-4.4347,-4.4347,-4.4347,-4.4347,-4.4347,-4.4491,-4.49,-4.5417,-4.5946,-4.6475,-4.7004,-4.7377,-4.7485,-4.8133,-4.8775,-4.919,-4.9719,-5.0104,-5.0206,-5.0104,-4.9988,-4.959,-4.9332,-4.8955,-4.8588,-4.817,-4.8145,-4.8252,-4.9047,-5.0078,-5.1583,-5.1583,-5.2094,1.905,2.7258,3.385,4.4417,5.1269,5.5428,5.549,5.5596,5.5708,5.5789,5.5901,0.0,0.0,0.0,0.0,0.0,0.0,0.0,0.0,0.0,0.0,0.0,0.0,0.0,0.0,0.0,0.0,0.0,0.0,0.0,0.0,0.0,0.0,0.0,-3.0422,-3.2166,-3.3797,-3.6876,-3.9548,-4.1779,-4.5888,-5.0051,-5.4188,-5.435,-5.6492,-6.0084,-6.071,-6.1142,-6.1393,-6.0536,-5.9124,-5.7236,-5.5611,-5.3876,-5.2294,-5.0945,-4.9436,-4.8012,-4.6847,-4.5409,-4.3939,-4.3169,-4.1963,-4.087,-4.0755,-4.0646,-4.0461,-4.035,-4.0638,-4.0919,-4.0644,-4.0895,-4.1282,-4.1282,-4.2304,-4.3451,-4.3701,-4.395,-4.4075,-4.4075,-4.4211,-4.4347,-4.4347,-4.4563,-4.4816,-4.5092,-4.5802,-4.6403,-4.668,-4.6956,-4.7124,-4.7124,-4.7536,-4.8009,-4.8786,-4.9305,-4.9556,-4.9794,-4.9681,-4.9432,-4.9188,-4.8675,-4.8423,-4.8588,-4.8038,-4.8002,-4.8502,-4.919,-5.0448,-5.2055,-5.1708,-5.2094,2.6469,2.9755,3.0293,5.0408,5.5428,5.544,5.5573,5.5708,5.5883,5.5985,0.0,0.0,0.0,0.0,0.0,0.0,0.0,0.0,0.0,0.0,0.0,0.0,0.0,0.0,0.0,0.0,0.0,0.0,0.0,0.0,0.0,0.0,-2.6892,-2.9375,-3.1351,-3.3191,-3.4547,-3.8467,-4.1031,-4.2293,-4.7707,-5.3239,-5.8725,-5.7316,-5.7872,-6.0027,-6.0073,-5.9602,-5.8833,-5.8252,-5.6723,-5.4648,-5.3161,-5.144,-4.9625,-4.8835,-4.7039,-4.4888,-4.4699,-4.3207,-4.1353,-4.1215,-4.0059,-3.8693,-3.901,-3.8784,-3.8539,-3.8559,-3.9336,-3.999,-3.979,-4.0192,-4.0506,-4.0506,-4.1142,-4.2038,-4.2799,-4.3302,-4.3553,-4.3678,-4.395,-4.4347,-4.4347,-4.4708,-4.5056,-4.5249,-4.5934,-4.6511,-4.6692,-4.6631,-4.6571,-4.6571,-4.6816,-4.7307,-4.7908,-4.8664,-4.9045,-4.8922,-4.8922,-4.8756,-4.8611,-4.7947,-4.7961,-4.831,-4.7726,-4.7882,-4.8645,-4.9319,-5.0575,-5.2275,-5.1819,-5.2218,1.0247,2.4173,4.0098,5.2342,5.544,5.5504,5.5583,5.5789,5.5993,0.0,0.0,0.0,0.0,0.0,0.0,0.0,0.0,0.0,0.0,0.0,0.0,0.0,0.0,0.0,0.0,0.0,0.0,0.0,0.0,0.0,0.0,-2.4933,-2.7633,-2.9384,-3.1023,-3.3497,-3.6895,-3.926,-4.1329,-4.2944,-4.8661,-5.3771,-5.8167,-5.7279,-5.8626,-6.1535,-5.8774,-5.7579,-5.7296,-5.4496,-5.2785,-5.1668,-4.8495,-4.7045,-4.6599,-4.5063,-4.3926,-4.2972,-4.1383,-4.0822,-4.0373,-3.8648,-3.7965,-3.7923,-3.8243,-3.8448,-3.8581,-3.8027,-3.9076,-3.9812,-3.8308,-3.865,-3.9473,-3.9473,-3.9473,-3.9986,-4.1259,-4.2038,-4.2535,-4.2914,-4.3689,-4.4347,-4.4347,-4.4407,-4.4768,-4.5681,-4.5549,-4.5681,-4.6595,-4.6307,-4.603,-4.603,-4.7092,-4.7783,-4.7908,-4.9032,-4.952,-4.8922,-4.8922,-4.8578,-4.767,-4.7749,-4.7648,-4.7333,-4.7401,-4.8145,-4.9461,-4.959,-5.0334,-5.1708,-5.1596,-5.1721,1.2312,2.7029,4.1461,5.2715,5.5535,5.5607,5.5843,5.5968,5.6091,0.0,0.0,0.0,0.0,0.0,0.0,0.0,0.0,0.0,0.0,0.0,0.0,0.0,0.0,0.0,0.0,0.0,0.0,0.0,0.0,0.0,-2.342,-2.4933,-2.7013,-2.9884,-3.1446,-3.3025,-3.4736,-3.923,-4.3795,-4.8546,-5.0676,-5.3558,-5.6913,-5.4747,-5.5149,-5.7435,-5.6134,-5.4364,-5.2413,-5.131,-4.9875,-4.8283,-4.6025,-4.4796,-4.4188,-4.3131,-4.1938,-4.0719,-3.9511,-3.8698,-3.8138,-3.7099,-3.6806,-3.6806,-3.6904,-3.7488,-3.7932,-3.7156,-3.8036,-3.8914,-3.8065,-3.8291,-3.8702,-3.8702,-3.8702,-3.8824,-3.9473,-4.0884,-4.2293,-4.3177,-4.3826,-4.4347,-4.4347,-4.4587,-4.4948,-4.5417,-4.5537,-4.5742,-4.6211,-4.5802,-4.5604,-4.5983,-4.6563,-4.7101,-4.7465,-4.8441,-4.8692,-4.8215,-4.7854,-4.763,-4.732,-4.6833,-4.6609,-4.6774,-4.7588,-4.8526,-4.959,-5.0347,-5.122,-5.2094,-5.2094,-5.2094,1.2121,2.3083,3.2708,4.7323,5.0938,5.1816,5.5288,5.6112,5.6179,0.0,0.0,0.0,0.0,0.0,0.0,0.0,0.0,0.0,0.0,0.0,0.0,0.0,0.0,0.0,0.0,0.0,0.0,0.0,0.0,0.0,-2.4294,-2.4432,-2.6261,-3.0128,-3.1176,-3.2313,-3.3765,-3.8755,-4.4698,-5.1541,-5.0198,-5.1157,-5.405,-5.0916,-4.9984,-5.0865,-5.1867,-5.0543,-4.761,-4.76,-4.6586,-4.497,-4.3212,-4.214,-4.1525,-4.0763,-3.9522,-3.8279,-3.7615,-3.6671,-3.5879,-3.5756,-3.5697,-3.5585,-3.5834,-3.6439,-3.6821,-3.6537,-3.7146,-3.7883,-3.8036,-3.8098,-3.8181,-3.8181,-3.8181,-3.8314,-3.857,-4.0247,-4.2038,-4.3428,-4.395,-4.4347,-4.4347,-4.4671,-4.4984,-4.5116,-4.5357,-4.5573,-4.5706,-4.5261,-4.5174,-4.5797,-4.615,-4.6491,-4.7205,-4.7808,-4.8055,-4.769,-4.71,-4.6813,-4.6744,-4.6044,-4.5699,-4.61,-4.7764,-4.8849,-4.9389,-5.0651,-5.1721,-5.2355,-5.2355,-5.2355,0.0236,0.3677,0.9839,3.2574,3.8146,4.1204,5.3263,0.0,0.0,0.0,0.0,0.0,0.0,0.0,0.0,0.0,0.0,0.0,0.0,0.0,0.0,0.0,0.0,0.0,0.0,0.0,0.0,0.0,0.0,0.0,-2.2606,-2.3589,-2.5871,-2.97,-2.9554,-3.1805,-3.668,-3.8219,-4.2044,-4.8143,-4.4897,-4.5313,-4.8785,-4.5859,-4.3749,-4.2449,-4.5525,-4.6028,-4.4611,-4.2741,-4.2028,-4.1791,-3.876,-3.7963,-3.8297,-3.7177,-3.6237,-3.5489,-3.5242,-3.4871,-3.4507,-3.4153,-3.4082,-3.425,-3.544,-3.5629,-3.5599,-3.6272,-3.6737,-3.7256,-3.7511,-3.786,-3.8181,-3.8181,-3.8181,-3.858,-3.9855,-4.0755,-4.1772,-4.3063,-4.3838,-4.4347,-4.4347,-4.4371,-4.4563,-4.5056,-4.4732,-4.4611,-4.5116,-4.472,-4.4618,-4.5331,-4.5914,-4.6491,-4.7205,-4.7808,-4.8055,-4.769,-4.71,-4.6528,-4.5855,-4.5736,-4.5404,-4.5176,-4.749,-4.8812,-4.8812,-5.0092,-5.0968,-5.1596,-5.1596,-5.1596,-0.0707,0.215,0.5935,2.15,3.1478,3.8582,4.3108,5.0432,0.0,0.0,0.0,0.0,0.0,0.0,0.0,0.0,0.0,0.0,0.0,0.0,0.0,0.0,0.0,0.0,0.0,0.0,0.0,0.0,0.0,0.0,-2.471,-2.3969,-2.5285,-2.9139,-2.9418,-3.1381,-3.5169,-3.3451,-3.5545,-4.1407,-3.9824,-4.0335,-4.2621,-4.0374,-3.8479,-3.6822,-3.8137,-3.9118,-3.9774,-3.9462,-3.8706,-3.7862,-3.6539,-3.6061,-3.5897,-3.5345,-3.4871,-3.4248,-3.3253,-3.2883,-3.2804,-3.2706,-3.2945,-3.3492,-3.3899,-3.472,-3.5462,-3.5732,-3.64,-3.7183,-3.7841,-3.8057,-3.8181,-3.8181,-3.857,-3.9088,-3.9986,-4.1142,-4.2166,-4.3063,-4.3838,-4.4347,-4.4347,-4.4347,-4.4419,-4.4599,-4.4467,-4.4419,-4.4611,-4.4467,-4.4705,-4.5768,-4.6143,-4.6742,-4.769,-4.8055,-4.8185,-4.8055,-4.7231,-4.6636,-4.6155,-4.5503,-4.5108,-4.5219,-4.6811,-4.8046,-4.8774,-5.0822,-5.1846,-5.1596,-5.2094,-5.197,-0.6293,-0.447,-0.1859,0.9593,1.8885,2.7333,3.5463,4.395,0.0,0.0,0.0,0.0,0.0,0.0,0.0,0.0,0.0,0.0,0.0,0.0,0.0,0.0,0.0,0.0,0.0,0.0,0.0,0.0,0.0,0.0,-2.5333,-2.4216,-2.4563,-2.6981,-2.8519,-3.0059,-3.1579,-2.8872,-3.0355,-3.6014,-3.4369,-3.4885,-3.7202,-3.4847,-3.3361,-3.2591,-3.2342,-3.36,-3.5627,-3.5944,-3.5568,-3.4551,-3.3968,-3.3591,-3.3436,-3.2961,-3.2727,-3.2374,-3.1773,-3.144,-3.1513,-3.1793,-3.2193,-3.2691,-3.2947,-3.3724,-3.4599,-3.5275,-3.5967,-3.6799,-3.7914,-3.8181,-3.8181,-3.8181,-3.8967,-3.9735,-4.0366,-4.1516,-4.2673,-4.3314,-4.4075,-4.4594,-4.4594,-4.4594,-4.4594,-4.447,-4.447,-4.447,-4.4347,-4.4458,-4.5061,-4.6143,-4.6503,-4.71,-4.8068,-4.8185,-4.8185,-4.8185,-4.7337,-4.6742,-4.6263,-4.5428,-4.5061,-4.5281,-4.6437,-4.7579,-4.8584,-5.0819,-5.1923,-5.1596,-5.2094,-5.197,0.0,0.0,0.0,-0.3411,0.0078,0.679,3.0454,0.0,0.0,0.0,0.0,0.0,0.0,0.0,0.0,0.0,0.0,0.0,0.0,0.0,0.0,0.0,0.0,0.0,0.0,0.0,0.0,0.0,0.0,-2.3479,-2.4108,-2.4116,-2.3758,-2.3237,-2.6441,-2.7496,-2.6139,-2.4723,-2.6698,-3.2005,-2.8559,-2.9085,-3.2816,-2.9509,-2.8601,-2.9612,-2.8572,-2.9793,-3.2363,-3.2321,-3.2247,-3.2119,-3.0825,-3.0437,-3.0687,-3.0039,-2.9796,-2.9883,-3.0654,-3.0672,-3.0618,-3.1675,-3.1788,-3.1685,-3.2775,-3.2927,-3.3112,-3.4874,-3.5412,-3.5831,-3.776,-3.8181,-3.8181,-3.8181,-3.9231,-4.0517,-4.1108,-4.2131,-4.304,-4.3678,-4.457,-4.5331,-4.5331,-4.5331,-4.5208,-4.484,-4.484,-4.4717,-4.4347,-4.4927,-4.5525,-4.6263,-4.6849,-4.7442,-4.8185,-4.8185,-4.8185,-4.8185,-4.7573,-4.6968,-4.6263,-4.5646,-4.5281,-4.5281,-4.6534,-4.7445,-4.809,-4.998,-5.106,-5.157,-5.1583,-5.1596,-1.7304,0.0,0.0,0.0,0.0,0.0,0.0,0.0,0.0,0.0,0.0,0.0,0.0,0.0,0.0,0.0,0.0,0.0,0.0,0.0,0.0,0.0,0.0,0.0,0.0,0.0,0.0,0.0,-2.3837,-2.4595,-2.4857,-2.3066,-2.1348,-1.9693,-1.8128,-1.81,-1.9746,-1.8142,-1.8941,-2.2275,-2.3717,-2.5182,-2.6776,-2.6416,-2.6518,-2.7019,-2.619,-2.6806,-2.8476,-2.9648,-2.9674,-2.9003,-2.9421,-2.902,-2.8345,-2.9151,-2.933,-2.9177,-2.983,-3.0464,-3.0767,-3.0849,-3.1176,-3.16,-3.187,-3.2176,-3.2675,-3.4461,-3.5275,-3.5831,-3.776,-3.8181,-3.8181,-3.8181,-3.922,-4.0377,-4.1108,-4.2638,-4.4039,-4.4422,-4.4939,-4.5331,-4.5331,-4.5331,-4.5208,-4.5208,-4.4963,-4.4717,-4.4717,-4.5049,-4.5525,-4.6263,-4.6849,-4.7442,-4.8185,-4.8185,-4.8185,-4.8185,-4.7573,-4.6968,-4.6263,-4.6155,-4.6035,-4.601,-4.6762,-4.7773,-4.8836,-5.0102,-5.0877,-5.1021,-5.0913,-5.0842,-1.7326,-1.7326,-1.7435,-1.7904,0.0,0.0,0.0,1.7922,0.0,0.0,0.0,0.0,0.0,0.0,0.0,0.0,0.0,0.0,0.0,0.0,0.0,0.0,0.0,0.0,0.0,0.0,0.0,0.0,-2.3062,-2.2792,-2.1043,-1.8909,-1.6619,-1.4141,-1.2455,-1.2449,-1.4282,-1.3229,-1.4431,-1.7949,-1.9889,-2.154,-2.2766,-2.2795,-2.3319,-2.4091,-2.3637,-2.3898,-2.4547,-2.6339,-2.7161,-2.7584,-2.7841,-2.7576,-2.7043,-2.7849,-2.8344,-2.8672,-2.9522,-3.0233,-3.0737,-3.0827,-3.1086,-3.1277,-3.1499,-3.17,-3.2246,-3.4324,-3.5695,-3.6799,-3.7904,-3.8181,-3.8181,-3.8181,-3.9462,-4.0862,-4.1471,-4.3255,-4.4792,-4.4915,-4.5428,-4.5696,-4.5696,-4.5696,-4.5574,-4.5331,-4.5086,-4.4963,-4.4594,-4.5294,-4.5901,-4.6263,-4.71,-4.7821,-4.8185,-4.8185,-4.8185,-4.8055,-4.7573,-4.6981,-4.6155,-4.6059,-4.6168,-4.6263,-4.661,-4.7381,-4.8703,-4.9378,-4.9813,-4.9919,-5.0227,-5.037,-1.7016,-1.7355,-1.7516,-1.8057,0.0,0.0,0.842,1.447,0.0,0.0,0.0,0.0,0.0,0.0,0.0,0.0,0.0,0.0,0.0,0.0,0.0,0.0,0.0,0.0,0.0,0.0,-2.0068,-2.0899,-2.0574,-1.8563,-1.467,-1.2875,-1.0716,-0.7927,-0.8501,-0.9139,-0.9662,-0.9841,-1.2197,-1.6632,-1.6831,-1.8073,-2.0077,-1.9358,-1.964,-2.0919,-2.1013,-2.1167,-2.1424,-2.2957,-2.488,-2.6792,-2.6241,-2.6115,-2.6532,-2.6697,-2.7471,-2.8372,-2.956,-3.0195,-3.0687,-3.1307,-3.1285,-3.1135,-3.1375,-3.1675,-3.2254,-3.4461,-3.6489,-3.8119,-3.8171,-3.8181,-3.8181,-3.8181,-3.9703,-4.1343,-4.2086,-4.3867,-4.5281,-4.5403,-4.5926,-4.6313,-4.6313,-4.6313,-4.6072,-4.5453,-4.5331,-4.5086,-4.447,-4.555,-4.6263,-4.6263,-4.7468,-4.8185,-4.8185,-4.8185,-4.8055,-4.769,-4.769,-4.71,-4.5817,-4.5817,-4.6047,-4.6263,-4.6383,-4.6996,-4.7866,-4.8051,-4.8299,-4.8774,-4.9392,-5.0063,-1.5417,-1.7523,-1.7691,0.0,0.0,0.0,-1.177,-0.4347,0.0,0.0,0.0,0.0,0.0,0.0,0.0,0.0,0.0,0.0,0.0,0.0,0.0,0.0,0.0,0.0,0.0,0.0,-1.547,-2.0439,-1.5712,-1.196,-1.0591,-0.8091,-0.62,-0.5067,-0.4158,-0.458,-0.6445,-0.776,-1.0095,-1.3508,-1.4502,-1.5901,-1.7675,-1.7787,-1.8242,-1.8961,-1.9111,-1.9846,-2.1022,-2.1537,-2.2846,-2.4631,-2.5022,-2.5158,-2.5202,-2.6819,-2.7684,-2.8186,-2.978,-3.0713,-3.1324,-3.1118,-3.1285,-3.1508,-3.1217,-3.2009,-3.3345,-3.5558,-3.6951,-3.7715,-3.8088,-3.8181,-3.8181,-3.8181,-3.9703,-4.1343,-4.2086,-4.3867,-4.5416,-4.6047,-4.618,-4.6313,-4.6313,-4.6313,-4.6193,-4.5817,-4.5453,-4.5208,-4.4717,-4.5671,-4.6263,-4.6263,-4.7468,-4.8185,-4.8185,-4.8185,-4.8055,-4.769,-4.7442,-4.6862,-4.5817,-4.6059,-4.6168,-4.6263,-4.7337,-4.7401,-4.6667,-4.7618,-4.8299,-4.8774,-4.8888,-4.9558,-1.5042,-1.7443,-1.7574,-1.7574,0.0,0.0,0.0,0.0,0.0,0.0,0.0,0.0,0.0,0.0,0.0,0.0,0.0,0.0,0.0,0.0,0.0,0.0,0.0,0.0,0.0,0.0,-0.8148,-1.2971,-0.8743,-0.5732,-0.532,-0.2559,-0.0896,-0.0534,-0.0403,-0.1628,-0.456,-0.5703,-0.8026,-1.1196,-1.2183,-1.3267,-1.4575,-1.4937,-1.5662,-1.6897,-1.7418,-1.8625,-1.9989,-2.0683,-2.1766,-2.2996,-2.4081,-2.4353,-2.4517,-2.6703,-2.7644,-2.8257,-2.981,-3.0941,-3.1568,-3.1427,-3.1427,-3.1491,-3.1123,-3.209,-3.3746,-3.5586,-3.6851,-3.7601,-3.8067,-3.8181,-3.8314,-3.857,-4.0214,-4.1843,-4.2615,-4.4398,-4.5926,-4.618,-4.6313,-4.6313,-4.6313,-4.6313,-4.6193,-4.5574,-4.5453,-4.5208,-4.5061,-4.578,-4.6383,-4.673,-4.7586,-4.8185,-4.8185,-4.8055,-4.7808,-4.7442,-4.7231,-4.6528,-4.5574,-4.6059,-4.6301,-4.6263,-4.7218,-4.7087,-4.5768,-4.6418,-4.6736,-4.6941,-4.7983,-4.8901,0.0,0.0,0.0,0.0,0.0,-1.5315,0.0,0.0,0.0,0.0,0.0,0.0,0.0,0.0,0.0,0.0,0.0,0.0,0.0,0.0,0.0,0.0,0.0,0.0,0.0,0.0,-0.3479,-0.3997,-0.2734,-0.1625,-0.0793,0.1612,0.2959,0.269,0.1884,0.0,-0.3337,-0.4045,-0.6221,-0.9554,-1.0303,-1.1077,-1.1884,-1.2319,-1.3415,-1.4902,-1.5904,-1.7164,-1.8632,-1.9808,-2.0798,-2.1766,-2.3277,-2.3823,-2.4109,-2.6537,-2.7757,-2.8387,-3.0043,-3.1054,-3.1568,-3.1568,-3.1465,-3.1442,-3.1626,-3.2385,-3.3774,-3.5564,-3.675,-3.7488,-3.8036,-3.8181,-3.8314,-3.9088,-4.071,-4.2339,-4.313,-4.4915,-4.6313,-4.6313,-4.6313,-4.6193,-4.6193,-4.6193,-4.5951,-4.5331,-4.5331,-4.5318,-4.5281,-4.601,-4.661,-4.7205,-4.7808,-4.8185,-4.8185,-4.7938,-4.7573,-4.7205,-4.6887,-4.6313,-4.5331,-4.5817,-4.6168,-4.6263,-4.673,-4.6478,-4.5281,-4.5281,-4.533,-4.5404,-4.7184,-4.8247,0.0,0.0,0.0,0.0,-1.8438,0.0,0.0,0.0,0.0,0.0,0.0,0.0,0.0,0.0,0.0,0.0,0.0,0.0,0.0,0.0,0.0,0.0,0.0,0.0,0.0,0.0,0.0,0.1481,-0.1205,-0.2316,0.0134,0.1615,0.1885,0.0808,0.1077,0.0,-0.2472,-0.3198,-0.5214,-0.8294,-0.9269,-1.0327,-1.1182,-1.1975,-1.2445,-1.2895,-1.4281,-1.5547,-1.6842,-1.8465,-1.9825,-2.0943,-2.2448,-2.2996,-2.3475,-2.6916,-2.7747,-2.7749,-3.0492,-3.1491,-3.1568,-3.1568,-3.1114,-3.1019,-3.32,-3.3171,-3.3149,-3.6465,-3.7068,-3.7084,-3.7964,-3.8181,-3.8314,-3.9088,-4.071,-4.2339,-4.313,-4.4915,-4.6313,-4.6313,-4.6059,-4.5817,-4.5817,-4.5817,-4.5574,-4.4963,-4.5331,-4.5684,-4.5281,-4.6358,-4.7087,-4.7205,-4.7808,-4.8185,-4.8185,-4.7938,-4.7573,-4.7205,-4.6887,-4.6313,-4.5331,-4.5416,-4.5646,-4.6263,-4.6383,-4.601,-4.5281,-4.5281,-4.5576,-4.6142,-4.7433,-4.8247,0.0,0.0,0.0,0.0,0.0,0.0,-1.6917,0.0,-1.8138,0.0,0.0,0.0,0.0,0.0,0.0,0.0,0.0,0.0,0.0,0.0,0.0,0.0,0.0,0.0,0.0,0.0,0.0,0.0,0.0,0.0124,-0.0662,0.0399,0.0931,0.0931,0.0402,-0.0815,-0.2633,-0.349,-0.4935,-0.7422,-0.8346,-0.909,-0.9519,-1.0535,-1.1639,-1.2838,-1.4079,-1.5648,-1.7271,-1.8932,-2.011,-2.0804,-2.1904,-2.2454,-2.316,-2.6012,-2.7328,-2.8126,-3.0237,-3.1191,-3.1568,-3.1568,-3.1054,-3.0854,-3.3155,-3.335,-3.3421,-3.632,-3.7146,-3.7353,-3.8015,-3.8181,-3.8447,-3.9473,-4.0968,-4.2477,-4.3654,-4.5172,-4.6313,-4.6313,-4.6072,-4.5696,-4.5574,-4.5453,-4.5331,-4.484,-4.5331,-4.5805,-4.5901,-4.661,-4.7324,-4.769,-4.8055,-4.8172,-4.7938,-4.7573,-4.7337,-4.7006,-4.6301,-4.5939,-4.5939,-4.5537,-4.5403,-4.5768,-4.5768,-4.5416,-4.4693,-4.4693,-4.4972,-4.5643,-4.6808,-4.7718,-1.419,0.0,0.0,0.0,0.0,0.0,0.0,0.0,0.0,0.0,0.0,0.0,0.0,0.0,0.0,0.0,0.0,0.0,0.0,0.0,0.0,0.0,0.0,0.0,0.0,0.0,0.0,0.0,0.0,0.0,-0.1583,-0.066,0.0132,0.0397,-0.0134,-0.1227,-0.2936,-0.3489,-0.4778,-0.6992,-0.7848,-0.843,-0.8891,-1.0059,-1.1493,-1.294,-1.4139,-1.5723,-1.783,-1.9262,-2.011,-2.0804,-2.149,-2.231,-2.3406,-2.5524,-2.7021,-2.8241,-3.0001,-3.0951,-3.1414,-3.1414,-3.1029,-3.1067,-3.2784,-3.3376,-3.4011,-3.6146,-3.7265,-3.7853,-3.8322,-3.857,-3.9088,-4.0257,-4.1493,-4.2867,-4.4039,-4.5306,-4.6313,-4.6193,-4.5939,-4.5574,-4.5208,-4.5208,-4.5086,-4.4717,-4.5196,-4.5793,-4.6263,-4.6849,-4.7442,-4.8185,-4.8068,-4.7938,-4.769,-4.7337,-4.6993,-4.6673,-4.583,-4.5574,-4.6313,-4.5428,-4.5172,-4.5281,-4.5159,-4.4816,-4.4347,-4.4491,-4.484,-4.5357,-4.6504,-4.7211,0.0,0.0,0.0,-1.731,0.0,0.0,0.0,0.0,-2.0954,0.0,0.0,0.0,0.0,0.0,0.0,0.0,0.0,0.0,0.0,0.0,0.0,0.0,0.0,0.0,0.0,0.0,0.0,0.0,0.0,0.0,-0.2274,-0.1062,-0.0795,-0.1477,-0.0538,-0.0954,-0.2942,-0.2904,-0.4312,-0.7271,-0.7905,-0.9024,-1.0799,-1.1354,-1.2109,-1.2815,-1.3999,-1.5566,-1.7404,-1.8557,-1.9686,-2.0804,-2.149,-2.2709,-2.4088,-2.6042,-2.6939,-2.7571,-3.0157,-3.1011,-3.1037,-3.1037,-3.1178,-3.1579,-3.2628,-3.3676,-3.4932,-3.6414,-3.7642,-3.8614,-3.9093,-3.9604,-4.0377,-4.1046,-4.2281,-4.3392,-4.4163,-4.5306,-4.6193,-4.5817,-4.5574,-4.5208,-4.484,-4.484,-4.4717,-4.4347,-4.4939,-4.5525,-4.6263,-4.6849,-4.7442,-4.8185,-4.7938,-4.769,-4.769,-4.7125,-4.6673,-4.6313,-4.5696,-4.5574,-4.6313,-4.5086,-4.4582,-4.5281,-4.4693,-4.4347,-4.4347,-4.4864,-4.5381,-4.5898,-4.6675,-4.6841,0.0,0.0,-0.4418,-1.3455,0.0,0.0,0.0,0.0,0.0,0.0,0.0,0.0,0.0,0.0,0.0,0.0,0.0,0.0,0.0,0.0,0.0,0.0,0.0,0.0,0.0,0.0,0.0,0.0,0.0,0.0,0.0,-0.33,-0.2638,-0.199,-0.1607,-0.2037,-0.3177,-0.3714,-0.4821,-0.68,-0.8247,-0.9299,-1.0248,-1.1118,-1.2216,-1.34,-1.4627,-1.6013,-1.7689,-1.9117,-2.0388,-2.149,-2.1766,-2.2983,-2.4745,-2.5952,-2.7309,-2.8866,-3.0738,-3.1379,-3.1337,-3.1097,-3.1344,-3.1923,-3.2702,-3.3849,-3.5291,-3.6496,-3.7483,-3.8503,-3.9046,-3.9713,-4.0484,-4.1655,-4.3028,-4.4139,-4.478,-4.555,-4.5939,-4.5817,-4.5331,-4.4963,-4.484,-4.4939,-4.5049,-4.4927,-4.5889,-4.661,-4.6849,-4.7455,-4.7821,-4.7821,-4.7821,-4.7586,-4.7138,-4.6673,-4.6434,-4.6313,-4.5696,-4.5453,-4.5574,-4.484,-4.447,-4.457,-4.447,-4.4515,-4.4864,-4.5044,-4.5585,-4.6451,-4.6698,-4.6988,-0.0922,0.0586,0.0,-0.8879,-0.8266,0.0,-1.6681,0.0,0.0,0.0,0.0,0.0,0.0,0.0,0.0,0.0,0.0,0.0,0.0,0.0,0.0,0.0,0.0,0.0,0.0,0.0,0.0,0.0,0.0,0.0,0.0,0.0,-0.3826,-0.2921,-0.2545,-0.2844,-0.3978,-0.4233,-0.532,-0.7387,-0.8483,-0.9709,-1.0928,-1.1725,-1.2995,-1.4466,-1.5505,-1.6862,-1.8541,-1.9686,-2.0804,-2.1904,-2.2304,-2.3659,-2.542,-2.5965,-2.7542,-2.9791,-3.0804,-3.1305,-3.1245,-3.0737,-3.1513,-3.255,-3.2655,-3.4219,-3.6,-3.6666,-3.7848,-3.9088,-3.9713,-4.0603,-4.1621,-4.2788,-4.3903,-4.4767,-4.5159,-4.555,-4.5817,-4.5696,-4.5208,-4.4717,-4.4594,-4.5184,-4.5525,-4.5281,-4.625,-4.6968,-4.7193,-4.7573,-4.7808,-4.769,-4.7573,-4.7231,-4.6673,-4.6434,-4.6313,-4.6313,-4.5696,-4.5331,-4.5331,-4.4717,-4.4431,-4.4623,-4.4443,-4.4708,-4.5417,-4.5417,-4.5862,-4.6716,-4.6908,-4.7173]}]]